﻿<?xml version="1.0" encoding="utf-8"?><gpx creator="Garmin Desktop App" version="1.1" xsi:schemaLocation="http://www.topografix.com/GPX/1/1 http://www.topografix.com/GPX/1/1/gpx.xsd http://www.garmin.com/xmlschemas/WaypointExtension/v1 http://www8.garmin.com/xmlschemas/WaypointExtensionv1.xsd http://www.garmin.com/xmlschemas/TrackPointExtension/v1 http://www.garmin.com/xmlschemas/TrackPointExtensionv1.xsd http://www.garmin.com/xmlschemas/GpxExtensions/v3 http://www8.garmin.com/xmlschemas/GpxExtensionsv3.xsd http://www.garmin.com/xmlschemas/ActivityExtension/v1 http://www8.garmin.com/xmlschemas/ActivityExtensionv1.xsd http://www.garmin.com/xmlschemas/AdventuresExtensions/v1 http://www8.garmin.com/xmlschemas/AdventuresExtensionv1.xsd http://www.garmin.com/xmlschemas/PressureExtension/v1 http://www.garmin.com/xmlschemas/PressureExtensionv1.xsd http://www.garmin.com/xmlschemas/TripExtensions/v1 http://www.garmin.com/xmlschemas/TripExtensionsv1.xsd http://www.garmin.com/xmlschemas/TripMetaDataExtensions/v1 http://www.garmin.com/xmlschemas/TripMetaDataExtensionsv1.xsd http://www.garmin.com/xmlschemas/ViaPointTransportationModeExtensions/v1 http://www.garmin.com/xmlschemas/ViaPointTransportationModeExtensionsv1.xsd http://www.garmin.com/xmlschemas/CreationTimeExtension/v1 http://www.garmin.com/xmlschemas/CreationTimeExtensionsv1.xsd http://www.garmin.com/xmlschemas/AccelerationExtension/v1 http://www.garmin.com/xmlschemas/AccelerationExtensionv1.xsd http://www.garmin.com/xmlschemas/PowerExtension/v1 http://www.garmin.com/xmlschemas/PowerExtensionv1.xsd http://www.garmin.com/xmlschemas/VideoExtension/v1 http://www.garmin.com/xmlschemas/VideoExtensionv1.xsd" xmlns="http://www.topografix.com/GPX/1/1" xmlns:xsi="http://www.w3.org/2001/XMLSchema-instance" xmlns:wptx1="http://www.garmin.com/xmlschemas/WaypointExtension/v1" xmlns:gpxtrx="http://www.garmin.com/xmlschemas/GpxExtensions/v3" xmlns:gpxtpx="http://www.garmin.com/xmlschemas/TrackPointExtension/v1" xmlns:gpxx="http://www.garmin.com/xmlschemas/GpxExtensions/v3" xmlns:trp="http://www.garmin.com/xmlschemas/TripExtensions/v1" xmlns:adv="http://www.garmin.com/xmlschemas/AdventuresExtensions/v1" xmlns:prs="http://www.garmin.com/xmlschemas/PressureExtension/v1" xmlns:tmd="http://www.garmin.com/xmlschemas/TripMetaDataExtensions/v1" xmlns:vptm="http://www.garmin.com/xmlschemas/ViaPointTransportationModeExtensions/v1" xmlns:ctx="http://www.garmin.com/xmlschemas/CreationTimeExtension/v1" xmlns:gpxacc="http://www.garmin.com/xmlschemas/AccelerationExtension/v1" xmlns:gpxpx="http://www.garmin.com/xmlschemas/PowerExtension/v1" xmlns:vidx1="http://www.garmin.com/xmlschemas/VideoExtension/v1">

  <metadata>
    <link href="http://www.garmin.com">
      <text>Garmin International</text>
    </link>
    <time>2021-01-25T13:59:30Z</time>
    <bounds maxlat="46.382433995604515" maxlon="8.691746005788446" minlat="46.361918030306697" minlon="8.661957979202271" />
  </metadata>

  <trk>
    <name>lago-tomeo</name>
    <desc>Traccia corrente: 02 OTT 2014 21:31</desc>
    <extensions>
      <gpxx:TrackExtension>
        <gpxx:DisplayColor>Yellow</gpxx:DisplayColor>
      </gpxx:TrackExtension>
    </extensions>
    <trkseg>
      <trkpt lat="46.377363195642829" lon="8.661992093548179">
        <ele>671.62005599999998</ele>
        <time>2014-10-18T07:03:08Z</time>
      </trkpt>
      <trkpt lat="46.37722690589726" lon="8.662118995562196">
        <ele>672.09997599999997</ele>
        <time>2014-10-18T07:03:19Z</time>
      </trkpt>
      <trkpt lat="46.377003360539675" lon="8.661983963102102">
        <ele>673.05999799999995</ele>
        <time>2014-10-18T07:03:33Z</time>
      </trkpt>
      <trkpt lat="46.376865729689598" lon="8.66224086843431">
        <ele>674.5</ele>
        <time>2014-10-18T07:03:58Z</time>
      </trkpt>
      <trkpt lat="46.376773025840521" lon="8.662498695775867">
        <ele>674.5</ele>
        <time>2014-10-18T07:04:08Z</time>
      </trkpt>
      <trkpt lat="46.376634472981095" lon="8.662820560857654">
        <ele>674.5</ele>
        <time>2014-10-18T07:04:16Z</time>
      </trkpt>
      <trkpt lat="46.376456022262573" lon="8.662686618044972">
        <ele>674.5</ele>
        <time>2014-10-18T07:04:26Z</time>
      </trkpt>
      <trkpt lat="46.376231890171766" lon="8.662616461515427">
        <ele>674.5</ele>
        <time>2014-10-18T07:04:29Z</time>
      </trkpt>
      <trkpt lat="46.375960735604167" lon="8.662740429863334">
        <ele>674.97997999999995</ele>
        <time>2014-10-18T07:04:41Z</time>
      </trkpt>
      <trkpt lat="46.375957801938057" lon="8.663000268861651">
        <ele>674.5</ele>
        <time>2014-10-18T07:04:46Z</time>
      </trkpt>
      <trkpt lat="46.375959226861596" lon="8.662870433181524">
        <ele>675.46002199999998</ele>
        <time>2014-10-18T07:05:01Z</time>
      </trkpt>
      <trkpt lat="46.376184783875942" lon="8.662810502573848">
        <ele>676.42004399999996</ele>
        <time>2014-10-18T07:05:18Z</time>
      </trkpt>
      <trkpt lat="46.376320403069258" lon="8.662748476490378">
        <ele>676.42004399999996</ele>
        <time>2014-10-18T07:05:20Z</time>
      </trkpt>
      <trkpt lat="46.376319732517004" lon="8.66281352005899">
        <ele>677.39001499999995</ele>
        <time>2014-10-18T07:05:32Z</time>
      </trkpt>
      <trkpt lat="46.37645392678678" lon="8.662881497293711">
        <ele>678.830017</ele>
        <time>2014-10-18T07:05:37Z</time>
      </trkpt>
      <trkpt lat="46.376543194055557" lon="8.662948468700051">
        <ele>680.74993900000004</ele>
        <time>2014-10-18T07:05:51Z</time>
      </trkpt>
      <trkpt lat="46.376587534323335" lon="8.663014518097043">
        <ele>682.19000200000005</ele>
        <time>2014-10-18T07:06:04Z</time>
      </trkpt>
      <trkpt lat="46.376677388325334" lon="8.663016529753804">
        <ele>682.669983</ele>
        <time>2014-10-18T07:06:07Z</time>
      </trkpt>
      <trkpt lat="46.376675963401794" lon="8.663146533071995">
        <ele>683.14996299999996</ele>
        <time>2014-10-18T07:06:11Z</time>
      </trkpt>
      <trkpt lat="46.376765901222825" lon="8.663148460909724">
        <ele>683.63000499999998</ele>
        <time>2014-10-18T07:06:19Z</time>
      </trkpt>
      <trkpt lat="46.376854497939348" lon="8.663280475884676">
        <ele>684.12005599999998</ele>
        <time>2014-10-18T07:06:22Z</time>
      </trkpt>
      <trkpt lat="46.376898838207126" lon="8.663346525281668">
        <ele>685.55999799999995</ele>
        <time>2014-10-18T07:06:34Z</time>
      </trkpt>
      <trkpt lat="46.377033032476902" lon="8.663414502516389">
        <ele>686.03997800000002</ele>
        <time>2014-10-18T07:06:35Z</time>
      </trkpt>
      <trkpt lat="46.377076534554362" lon="8.66354551166296">
        <ele>687</ele>
        <time>2014-10-18T07:06:47Z</time>
      </trkpt>
      <trkpt lat="46.377120791003108" lon="8.66361147724092">
        <ele>688.92004399999996</ele>
        <time>2014-10-18T07:07:04Z</time>
      </trkpt>
      <trkpt lat="46.377163706347346" lon="8.663807362318039">
        <ele>690.839966</ele>
        <time>2014-10-18T07:07:24Z</time>
      </trkpt>
      <trkpt lat="46.377208633348346" lon="8.66380836814642">
        <ele>692.29003899999998</ele>
        <time>2014-10-18T07:07:40Z</time>
      </trkpt>
      <trkpt lat="46.377251464873552" lon="8.664004420861602">
        <ele>694.20996100000002</ele>
        <time>2014-10-18T07:07:56Z</time>
      </trkpt>
      <trkpt lat="46.37729580514133" lon="8.664070386439562">
        <ele>696.13000499999998</ele>
        <time>2014-10-18T07:08:17Z</time>
      </trkpt>
      <trkpt lat="46.377294380217791" lon="8.664200305938721">
        <ele>698.04998799999998</ele>
        <time>2014-10-18T07:08:38Z</time>
      </trkpt>
      <trkpt lat="46.377384988591075" lon="8.664137441664934">
        <ele>699.5</ele>
        <time>2014-10-18T07:08:55Z</time>
      </trkpt>
      <trkpt lat="46.377474339678884" lon="8.664204413071275">
        <ele>702.37994400000002</ele>
        <time>2014-10-18T07:09:22Z</time>
      </trkpt>
      <trkpt lat="46.377562768757343" lon="8.664336428046227">
        <ele>705.26000999999997</ele>
        <time>2014-10-18T07:09:55Z</time>
      </trkpt>
      <trkpt lat="46.377603588625789" lon="8.664727276191115">
        <ele>706.70996100000002</ele>
        <time>2014-10-18T07:10:09Z</time>
      </trkpt>
      <trkpt lat="46.377601493149996" lon="8.664922239258885">
        <ele>708.63000499999998</ele>
        <time>2014-10-18T07:10:25Z</time>
      </trkpt>
      <trkpt lat="46.377735687419772" lon="8.664990216493607">
        <ele>710.07000700000003</ele>
        <time>2014-10-18T07:10:40Z</time>
      </trkpt>
      <trkpt lat="46.377826295793056" lon="8.664927268400788">
        <ele>711.51000999999997</ele>
        <time>2014-10-18T07:10:51Z</time>
      </trkpt>
      <trkpt lat="46.377916317433119" lon="8.66492928005755">
        <ele>712.94995100000006</ele>
        <time>2014-10-18T07:11:09Z</time>
      </trkpt>
      <trkpt lat="46.378006171435118" lon="8.664931291714311">
        <ele>714.40002400000003</ele>
        <time>2014-10-18T07:11:24Z</time>
      </trkpt>
      <trkpt lat="46.378141790628433" lon="8.664869433268905">
        <ele>716.79998799999998</ele>
        <time>2014-10-18T07:11:43Z</time>
      </trkpt>
      <trkpt lat="46.378276739269495" lon="8.664872534573078">
        <ele>717.27996800000005</ele>
        <time>2014-10-18T07:11:45Z</time>
      </trkpt>
      <trkpt lat="46.378321666270494" lon="8.664873540401459">
        <ele>717.27996800000005</ele>
        <time>2014-10-18T07:11:55Z</time>
      </trkpt>
      <trkpt lat="46.378456614911556" lon="8.664876474067569">
        <ele>718.72003199999995</ele>
        <time>2014-10-18T07:12:06Z</time>
      </trkpt>
      <trkpt lat="46.378545882180333" lon="8.664943529292941">
        <ele>720.160034</ele>
        <time>2014-10-18T07:12:18Z</time>
      </trkpt>
      <trkpt lat="46.378590809181333" lon="8.664944618940353">
        <ele>721.13000499999998</ele>
        <time>2014-10-18T07:12:25Z</time>
      </trkpt>
      <trkpt lat="46.378680076450109" lon="8.665011590346694">
        <ele>721.13000499999998</ele>
        <time>2014-10-18T07:12:30Z</time>
      </trkpt>
      <trkpt lat="46.378768589347601" lon="8.665143605321646">
        <ele>721.13000499999998</ele>
        <time>2014-10-18T07:12:48Z</time>
      </trkpt>
      <trkpt lat="46.378992134705186" lon="8.665278637781739">
        <ele>724.49005099999999</ele>
        <time>2014-10-18T07:13:11Z</time>
      </trkpt>
      <trkpt lat="46.379080563783646" lon="8.665410568937659">
        <ele>724.96997099999999</ele>
        <time>2014-10-18T07:13:26Z</time>
      </trkpt>
      <trkpt lat="46.379259098321199" lon="8.665544595569372">
        <ele>727.36999500000002</ele>
        <time>2014-10-18T07:13:48Z</time>
      </trkpt>
      <trkpt lat="46.379480380564928" lon="8.665874591097236">
        <ele>729.29998799999998</ele>
        <time>2014-10-18T07:14:10Z</time>
      </trkpt>
      <trkpt lat="46.379613988101482" lon="8.666007611900568">
        <ele>728.82000700000003</ele>
        <time>2014-10-18T07:14:29Z</time>
      </trkpt>
      <trkpt lat="46.379793109372258" lon="8.666076678782702">
        <ele>729.29998799999998</ele>
        <time>2014-10-18T07:14:45Z</time>
      </trkpt>
      <trkpt lat="46.379881706088781" lon="8.666208693757653">
        <ele>729.77996800000005</ele>
        <time>2014-10-18T07:15:02Z</time>
      </trkpt>
      <trkpt lat="46.380061581730843" lon="8.666212717071176">
        <ele>729.77996800000005</ele>
        <time>2014-10-18T07:15:18Z</time>
      </trkpt>
      <trkpt lat="46.380151519551873" lon="8.666214812546969">
        <ele>730.73999000000003</ele>
        <time>2014-10-18T07:15:36Z</time>
      </trkpt>
      <trkpt lat="46.380331395193934" lon="8.666218835860491">
        <ele>731.70001200000002</ele>
        <time>2014-10-18T07:15:53Z</time>
      </trkpt>
      <trkpt lat="46.380419908091426" lon="8.666350767016411">
        <ele>733.14001499999995</ele>
        <time>2014-10-18T07:16:13Z</time>
      </trkpt>
      <trkpt lat="46.380508504807949" lon="8.666482781991363">
        <ele>734.10003700000004</ele>
        <time>2014-10-18T07:16:26Z</time>
      </trkpt>
      <trkpt lat="46.380552677437663" lon="8.666548831388354">
        <ele>734.57995600000004</ele>
        <time>2014-10-18T07:16:41Z</time>
      </trkpt>
      <trkpt lat="46.380596263334155" lon="8.666679840534926">
        <ele>735.54998799999998</ele>
        <time>2014-10-18T07:17:06Z</time>
      </trkpt>
      <trkpt lat="46.380640603601933" lon="8.666745806112886">
        <ele>736.99005099999999</ele>
        <time>2014-10-18T07:17:22Z</time>
      </trkpt>
      <trkpt lat="46.380684105679393" lon="8.666876815259457">
        <ele>737.46997099999999</ele>
        <time>2014-10-18T07:17:37Z</time>
      </trkpt>
      <trkpt lat="46.380727021023631" lon="8.667072700336576">
        <ele>738.42999299999997</ele>
        <time>2014-10-18T07:17:47Z</time>
      </trkpt>
      <trkpt lat="46.380771277472377" lon="8.667138665914536">
        <ele>739.86999500000002</ele>
        <time>2014-10-18T07:17:58Z</time>
      </trkpt>
      <trkpt lat="46.380769936367869" lon="8.667268669232726">
        <ele>740.830017</ele>
        <time>2014-10-18T07:18:09Z</time>
      </trkpt>
      <trkpt lat="46.380769181996584" lon="8.667333712801337">
        <ele>742.76000999999997</ele>
        <time>2014-10-18T07:18:20Z</time>
      </trkpt>
      <trkpt lat="46.380767673254013" lon="8.667463716119528">
        <ele>742.76000999999997</ele>
        <time>2014-10-18T07:18:22Z</time>
      </trkpt>
      <trkpt lat="46.380766332149506" lon="8.667593635618687">
        <ele>743.72003199999995</ele>
        <time>2014-10-18T07:18:31Z</time>
      </trkpt>
      <trkpt lat="46.380810588598251" lon="8.667659601196647">
        <ele>744.67999299999997</ele>
        <time>2014-10-18T07:18:42Z</time>
      </trkpt>
      <trkpt lat="46.380809918045998" lon="8.667724560946226">
        <ele>746.11999500000002</ele>
        <time>2014-10-18T07:18:52Z</time>
      </trkpt>
      <trkpt lat="46.380854174494743" lon="8.667790610343218">
        <ele>748.03997800000002</ele>
        <time>2014-10-18T07:19:01Z</time>
      </trkpt>
      <trkpt lat="46.380808493122458" lon="8.667854564264417">
        <ele>749.96997099999999</ele>
        <time>2014-10-18T07:19:18Z</time>
      </trkpt>
      <trkpt lat="46.380899101495743" lon="8.667791616171598">
        <ele>751.40997300000004</ele>
        <time>2014-10-18T07:19:19Z</time>
      </trkpt>
      <trkpt lat="46.380807822570205" lon="8.667919524013996">
        <ele>751.89001499999995</ele>
        <time>2014-10-18T07:19:29Z</time>
      </trkpt>
      <trkpt lat="46.380897676572204" lon="8.667921619489789">
        <ele>752.36999500000002</ele>
        <time>2014-10-18T07:19:41Z</time>
      </trkpt>
      <trkpt lat="46.380942016839981" lon="8.667987585067749">
        <ele>752.84997599999997</ele>
        <time>2014-10-18T07:19:52Z</time>
      </trkpt>
      <trkpt lat="46.38103187084198" lon="8.66798959672451">
        <ele>752.84997599999997</ele>
        <time>2014-10-18T07:20:05Z</time>
      </trkpt>
      <trkpt lat="46.381122563034296" lon="8.667926732450724">
        <ele>752.36999500000002</ele>
        <time>2014-10-18T07:20:24Z</time>
      </trkpt>
      <trkpt lat="46.381122563034296" lon="8.667926732450724">
        <ele>752.84997599999997</ele>
        <time>2014-10-18T07:20:43Z</time>
      </trkpt>
      <trkpt lat="46.381031200289726" lon="8.668054640293121">
        <ele>752.36999500000002</ele>
        <time>2014-10-18T07:20:48Z</time>
      </trkpt>
      <trkpt lat="46.381076211109757" lon="8.66805556230247">
        <ele>752.84997599999997</ele>
        <time>2014-10-18T07:21:10Z</time>
      </trkpt>
      <trkpt lat="46.381121221929789" lon="8.668056568130851">
        <ele>752.36999500000002</ele>
        <time>2014-10-18T07:21:45Z</time>
      </trkpt>
      <trkpt lat="46.381120467558503" lon="8.668121611699462">
        <ele>751.89001499999995</ele>
        <time>2014-10-18T07:22:09Z</time>
      </trkpt>
      <trkpt lat="46.381211075931787" lon="8.668058663606644">
        <ele>753.330017</ele>
        <time>2014-10-18T07:22:16Z</time>
      </trkpt>
      <trkpt lat="46.381255416199565" lon="8.668124713003635">
        <ele>755.25</ele>
        <time>2014-10-18T07:22:27Z</time>
      </trkpt>
      <trkpt lat="46.381299672648311" lon="8.668190678581595">
        <ele>756.20996100000002</ele>
        <time>2014-10-18T07:22:31Z</time>
      </trkpt>
      <trkpt lat="46.38134459964931" lon="8.668191684409976">
        <ele>758.61993399999994</ele>
        <time>2014-10-18T07:22:40Z</time>
      </trkpt>
      <trkpt lat="46.381434621289372" lon="8.668193696066737">
        <ele>760.53997800000002</ele>
        <time>2014-10-18T07:22:53Z</time>
      </trkpt>
      <trkpt lat="46.381524475291371" lon="8.66819579154253">
        <ele>763.419983</ele>
        <time>2014-10-18T07:23:13Z</time>
      </trkpt>
      <trkpt lat="46.381568815559149" lon="8.668261840939522">
        <ele>766.79003899999998</ele>
        <time>2014-10-18T07:23:28Z</time>
      </trkpt>
      <trkpt lat="46.381568061187863" lon="8.668326800689101">
        <ele>769.669983</ele>
        <time>2014-10-18T07:23:44Z</time>
      </trkpt>
      <trkpt lat="46.38156739063561" lon="8.668391676619649">
        <ele>772.07995600000004</ele>
        <time>2014-10-18T07:23:56Z</time>
      </trkpt>
      <trkpt lat="46.381521709263325" lon="8.66845571435988">
        <ele>774.96002199999998</ele>
        <time>2014-10-18T07:24:13Z</time>
      </trkpt>
      <trkpt lat="46.38156596571207" lon="8.66852167993784">
        <ele>778.31994599999996</ele>
        <time>2014-10-18T07:24:31Z</time>
      </trkpt>
      <trkpt lat="46.381520284339786" lon="8.66858571767807">
        <ele>780.25</ele>
        <time>2014-10-18T07:24:44Z</time>
      </trkpt>
      <trkpt lat="46.381565295159817" lon="8.668586723506451">
        <ele>780.73004200000003</ele>
        <time>2014-10-18T07:24:47Z</time>
      </trkpt>
      <trkpt lat="46.381563870236278" lon="8.668716726824641">
        <ele>784.089966</ele>
        <time>2014-10-18T07:25:06Z</time>
      </trkpt>
      <trkpt lat="46.381562361493707" lon="8.668846562504768">
        <ele>786.01995799999997</ele>
        <time>2014-10-18T07:25:17Z</time>
      </trkpt>
      <trkpt lat="46.381516763940454" lon="8.668910600244999">
        <ele>789.38000499999998</ele>
        <time>2014-10-18T07:25:34Z</time>
      </trkpt>
      <trkpt lat="46.3815160933882" lon="8.668975559994578">
        <ele>792.26000999999997</ele>
        <time>2014-10-18T07:25:51Z</time>
      </trkpt>
      <trkpt lat="46.38142473064363" lon="8.669103467836976">
        <ele>795.14996299999996</ele>
        <time>2014-10-18T07:26:08Z</time>
      </trkpt>
      <trkpt lat="46.381378965452313" lon="8.669167505577207">
        <ele>798.51000999999997</ele>
        <time>2014-10-18T07:26:26Z</time>
      </trkpt>
      <trkpt lat="46.38137829490006" lon="8.669232381507754">
        <ele>800.919983</ele>
        <time>2014-10-18T07:26:42Z</time>
      </trkpt>
      <trkpt lat="46.381377624347806" lon="8.669297425076366">
        <ele>803.31994599999996</ele>
        <time>2014-10-18T07:26:57Z</time>
      </trkpt>
      <trkpt lat="46.381422635167837" lon="8.669298430904746">
        <ele>805.71997099999999</ele>
        <time>2014-10-18T07:27:16Z</time>
      </trkpt>
      <trkpt lat="46.381466891616583" lon="8.669364396482706">
        <ele>809.089966</ele>
        <time>2014-10-18T07:27:34Z</time>
      </trkpt>
      <trkpt lat="46.381511818617582" lon="8.669365486130118">
        <ele>811.97003199999995</ele>
        <time>2014-10-18T07:27:55Z</time>
      </trkpt>
      <trkpt lat="46.381555404514074" lon="8.66949649527669">
        <ele>814.84997599999997</ele>
        <time>2014-10-18T07:28:12Z</time>
      </trkpt>
      <trkpt lat="46.381645258516073" lon="8.669498506933451">
        <ele>818.21997099999999</ele>
        <time>2014-10-18T07:28:34Z</time>
      </trkpt>
      <trkpt lat="46.381734609603882" lon="8.669565478339791">
        <ele>821.10003700000004</ele>
        <time>2014-10-18T07:28:58Z</time>
      </trkpt>
      <trkpt lat="46.381733939051628" lon="8.669630521908402">
        <ele>823.98999000000003</ele>
        <time>2014-10-18T07:29:18Z</time>
      </trkpt>
      <trkpt lat="46.381823122501373" lon="8.669697493314743">
        <ele>827.34997599999997</ele>
        <time>2014-10-18T07:29:38Z</time>
      </trkpt>
      <trkpt lat="46.381867378950119" lon="8.669763458892703">
        <ele>830.23999000000003</ele>
        <time>2014-10-18T07:29:58Z</time>
      </trkpt>
      <trkpt lat="46.381912305951118" lon="8.669764464721084">
        <ele>833.60003700000004</ele>
        <time>2014-10-18T07:30:18Z</time>
      </trkpt>
      <trkpt lat="46.381956562399864" lon="8.669830514118075">
        <ele>836.47997999999995</ele>
        <time>2014-10-18T07:30:40Z</time>
      </trkpt>
      <trkpt lat="46.382000902667642" lon="8.669896479696035">
        <ele>839.84997599999997</ele>
        <time>2014-10-18T07:30:59Z</time>
      </trkpt>
      <trkpt lat="46.382045913487673" lon="8.669897569343448">
        <ele>842.73004200000003</ele>
        <time>2014-10-18T07:31:56Z</time>
      </trkpt>
      <trkpt lat="46.382090840488672" lon="8.669898575171828">
        <ele>846.10003700000004</ele>
        <time>2014-10-18T07:32:14Z</time>
      </trkpt>
      <trkpt lat="46.382090086117387" lon="8.669963618740439">
        <ele>849.45996100000002</ele>
        <time>2014-10-18T07:32:32Z</time>
      </trkpt>
      <trkpt lat="46.382180107757449" lon="8.669965630397201">
        <ele>852.34997599999997</ele>
        <time>2014-10-18T07:32:54Z</time>
      </trkpt>
      <trkpt lat="46.382179437205195" lon="8.67003059014678">
        <ele>855.23004200000003</ele>
        <time>2014-10-18T07:33:12Z</time>
      </trkpt>
      <trkpt lat="46.382223609834909" lon="8.670096639543772">
        <ele>858.589966</ele>
        <time>2014-10-18T07:33:30Z</time>
      </trkpt>
      <trkpt lat="46.382268620654941" lon="8.670097561553121">
        <ele>861.95996100000002</ele>
        <time>2014-10-18T07:34:06Z</time>
      </trkpt>
      <trkpt lat="46.382267866283655" lon="8.670162605121732">
        <ele>861.95996100000002</ele>
        <time>2014-10-18T07:34:48Z</time>
      </trkpt>
      <trkpt lat="46.382267195731401" lon="8.670227564871311">
        <ele>868.68994099999998</ele>
        <time>2014-10-18T07:34:49Z</time>
      </trkpt>
      <trkpt lat="46.382433995604515" lon="8.670346001163125">
        <ele>871.57000700000003</ele>
        <time>2014-10-18T07:35:42Z</time>
      </trkpt>
      <trkpt lat="46.382289994508028" lon="8.670431999489665">
        <ele>874.45996100000002</ele>
        <time>2014-10-18T07:36:00Z</time>
      </trkpt>
      <trkpt lat="46.382242972031236" lon="8.670498970896006">
        <ele>876.38000499999998</ele>
        <time>2014-10-18T07:36:11Z</time>
      </trkpt>
      <trkpt lat="46.382099976763129" lon="8.670588992536068">
        <ele>879.73999000000003</ele>
        <time>2014-10-18T07:36:29Z</time>
      </trkpt>
      <trkpt lat="46.382010960951447" lon="8.670670967549086">
        <ele>882.63000499999998</ele>
        <time>2014-10-18T07:36:46Z</time>
      </trkpt>
      <trkpt lat="46.381887998431921" lon="8.670754032209516">
        <ele>885.51000999999997</ele>
        <time>2014-10-18T07:37:05Z</time>
      </trkpt>
      <trkpt lat="46.381783979013562" lon="8.670841958373785">
        <ele>888.88000499999998</ele>
        <time>2014-10-18T07:37:24Z</time>
      </trkpt>
      <trkpt lat="46.381652969866991" lon="8.670938014984131">
        <ele>890.80004899999994</ele>
        <time>2014-10-18T07:37:41Z</time>
      </trkpt>
      <trkpt lat="46.381567977368832" lon="8.671051003038883">
        <ele>893.20001200000002</ele>
        <time>2014-10-18T07:37:56Z</time>
      </trkpt>
      <trkpt lat="46.38143696822226" lon="8.670998029410839">
        <ele>896.089966</ele>
        <time>2014-10-18T07:38:15Z</time>
      </trkpt>
      <trkpt lat="46.381338983774185" lon="8.671099031344056">
        <ele>898.97003199999995</ele>
        <time>2014-10-18T07:38:33Z</time>
      </trkpt>
      <trkpt lat="46.381280981004238" lon="8.671204978600144">
        <ele>902.32995600000004</ele>
        <time>2014-10-18T07:38:50Z</time>
      </trkpt>
      <trkpt lat="46.381057016551495" lon="8.671393990516663">
        <ele>905.21997099999999</ele>
        <time>2014-10-18T07:39:18Z</time>
      </trkpt>
      <trkpt lat="46.380928019061685" lon="8.671422991901636">
        <ele>906.65997300000004</ele>
        <time>2014-10-18T07:39:34Z</time>
      </trkpt>
      <trkpt lat="46.380869010463357" lon="8.6714749597013">
        <ele>907.61999500000002</ele>
        <time>2014-10-18T07:39:41Z</time>
      </trkpt>
      <trkpt lat="46.380797009915113" lon="8.671634970232844">
        <ele>910.03002900000001</ele>
        <time>2014-10-18T07:39:59Z</time>
      </trkpt>
      <trkpt lat="46.380692990496755" lon="8.671818030998111">
        <ele>912.43005400000004</ele>
        <time>2014-10-18T07:40:19Z</time>
      </trkpt>
      <trkpt lat="46.380672035738826" lon="8.671866981312633">
        <ele>913.86999500000002</ele>
        <time>2014-10-18T07:40:24Z</time>
      </trkpt>
      <trkpt lat="46.38061897829175" lon="8.671992039307952">
        <ele>914.82995600000004</ele>
        <time>2014-10-18T07:40:35Z</time>
      </trkpt>
      <trkpt lat="46.380587965250015" lon="8.672064961865544">
        <ele>915.78997800000002</ele>
        <time>2014-10-18T07:40:43Z</time>
      </trkpt>
      <trkpt lat="46.380580002442002" lon="8.672093041241169">
        <ele>915.78997800000002</ele>
        <time>2014-10-18T07:40:44Z</time>
      </trkpt>
      <trkpt lat="46.380491992458701" lon="8.67231197655201">
        <ele>917.71997099999999</ele>
        <time>2014-10-18T07:41:03Z</time>
      </trkpt>
      <trkpt lat="46.380500039085746" lon="8.672489002346993">
        <ele>919.15997300000004</ele>
        <time>2014-10-18T07:41:16Z</time>
      </trkpt>
      <trkpt lat="46.380500961095095" lon="8.672652030363679">
        <ele>921.080017</ele>
        <time>2014-10-18T07:41:30Z</time>
      </trkpt>
      <trkpt lat="46.380463996902108" lon="8.672834001481533">
        <ele>923.00006099999996</ele>
        <time>2014-10-18T07:41:45Z</time>
      </trkpt>
      <trkpt lat="46.380359977483749" lon="8.673047991469502">
        <ele>925.410034</ele>
        <time>2014-10-18T07:42:01Z</time>
      </trkpt>
      <trkpt lat="46.380327036604285" lon="8.673186963424087">
        <ele>928.28997800000002</ele>
        <time>2014-10-18T07:42:20Z</time>
      </trkpt>
      <trkpt lat="46.380270961672068" lon="8.673290982842445">
        <ele>931.17004399999996</ele>
        <time>2014-10-18T07:42:36Z</time>
      </trkpt>
      <trkpt lat="46.380237014964223" lon="8.673468008637428">
        <ele>934.54003899999998</ele>
        <time>2014-10-18T07:42:51Z</time>
      </trkpt>
      <trkpt lat="46.380213964730501" lon="8.673588959500194">
        <ele>936.94000200000005</ele>
        <time>2014-10-18T07:43:06Z</time>
      </trkpt>
      <trkpt lat="46.380156967788935" lon="8.673842009156942">
        <ele>939.82995600000004</ele>
        <time>2014-10-18T07:43:25Z</time>
      </trkpt>
      <trkpt lat="46.380112962797284" lon="8.673974024131894">
        <ele>942.71002199999998</ele>
        <time>2014-10-18T07:43:40Z</time>
      </trkpt>
      <trkpt lat="46.380035011097789" lon="8.673988021910191">
        <ele>945.589966</ele>
        <time>2014-10-18T07:43:57Z</time>
      </trkpt>
      <trkpt lat="46.380031993612647" lon="8.674060022458434">
        <ele>948.95996100000002</ele>
        <time>2014-10-18T07:44:14Z</time>
      </trkpt>
      <trkpt lat="46.38001699000597" lon="8.674207963049412">
        <ele>951.84002699999996</ele>
        <time>2014-10-18T07:44:29Z</time>
      </trkpt>
      <trkpt lat="46.380198206752539" lon="8.674340480938554">
        <ele>953.28002900000001</ele>
        <time>2014-10-18T07:45:28Z</time>
      </trkpt>
      <trkpt lat="46.380151771008968" lon="8.674469394609332">
        <ele>965.29998799999998</ele>
        <time>2014-10-18T07:45:47Z</time>
      </trkpt>
      <trkpt lat="46.380094019696116" lon="8.674612976610661">
        <ele>968.17999299999997</ele>
        <time>2014-10-18T07:45:58Z</time>
      </trkpt>
      <trkpt lat="46.380186975002289" lon="8.674569977447391">
        <ele>970.10998500000005</ele>
        <time>2014-10-18T07:46:08Z</time>
      </trkpt>
      <trkpt lat="46.380258975550532" lon="8.674550028517842">
        <ele>972.98999000000003</ele>
        <time>2014-10-18T07:46:24Z</time>
      </trkpt>
      <trkpt lat="46.380054960027337" lon="8.674598978832364">
        <ele>975.88000499999998</ele>
        <time>2014-10-18T07:46:41Z</time>
      </trkpt>
      <trkpt lat="46.380057977512479" lon="8.67491003125906">
        <ele>978.28002900000001</ele>
        <time>2014-10-18T07:47:05Z</time>
      </trkpt>
      <trkpt lat="46.379963010549545" lon="8.675138019025326">
        <ele>981.64001499999995</ele>
        <time>2014-10-18T07:47:25Z</time>
      </trkpt>
      <trkpt lat="46.379855973646045" lon="8.675357038155198">
        <ele>984.52996800000005</ele>
        <time>2014-10-18T07:47:41Z</time>
      </trkpt>
      <trkpt lat="46.379735022783279" lon="8.675544038414955">
        <ele>986.45001200000002</ele>
        <time>2014-10-18T07:47:57Z</time>
      </trkpt>
      <trkpt lat="46.37965296395123" lon="8.675693990662694">
        <ele>989.32995600000004</ele>
        <time>2014-10-18T07:48:14Z</time>
      </trkpt>
      <trkpt lat="46.379628991708159" lon="8.675782000645995">
        <ele>991.74005099999999</ele>
        <time>2014-10-18T07:48:29Z</time>
      </trkpt>
      <trkpt lat="46.379643995314837" lon="8.675960032269359">
        <ele>994.14001499999995</ele>
        <time>2014-10-18T07:48:47Z</time>
      </trkpt>
      <trkpt lat="46.379651036113501" lon="8.676086012274027">
        <ele>996.05999799999995</ele>
        <time>2014-10-18T07:48:58Z</time>
      </trkpt>
      <trkpt lat="46.37962999753654" lon="8.676252979785204">
        <ele>997.98999000000003</ele>
        <time>2014-10-18T07:49:14Z</time>
      </trkpt>
      <trkpt lat="46.379635781049728" lon="8.676407625898719">
        <ele>1001.349976</ele>
        <time>2014-10-18T07:49:34Z</time>
      </trkpt>
      <trkpt lat="46.379722869023681" lon="8.676669560372829">
        <ele>1003.27002</ele>
        <time>2014-10-18T07:49:47Z</time>
      </trkpt>
      <trkpt lat="46.379630919545889" lon="8.676862511783838">
        <ele>1004.22998</ele>
        <time>2014-10-18T07:50:01Z</time>
      </trkpt>
      <trkpt lat="46.379582975059748" lon="8.677121428772807">
        <ele>1006.6400149999999</ele>
        <time>2014-10-18T07:50:25Z</time>
      </trkpt>
      <trkpt lat="46.379580879583955" lon="8.677316308021545">
        <ele>1007.119995</ele>
        <time>2014-10-18T07:50:39Z</time>
      </trkpt>
      <trkpt lat="46.379402009770274" lon="8.677390990778804">
        <ele>1008.559998</ele>
        <time>2014-10-18T07:50:51Z</time>
      </trkpt>
      <trkpt lat="46.379363033920527" lon="8.67746701464057">
        <ele>1009.999939</ele>
        <time>2014-10-18T07:51:04Z</time>
      </trkpt>
      <trkpt lat="46.379258008673787" lon="8.677631970494986">
        <ele>1012.410034</ele>
        <time>2014-10-18T07:51:24Z</time>
      </trkpt>
      <trkpt lat="46.379209980368614" lon="8.677840009331703">
        <ele>1013.370056</ele>
        <time>2014-10-18T07:51:43Z</time>
      </trkpt>
      <trkpt lat="46.379208974540234" lon="8.677886025980115">
        <ele>1013.849976</ele>
        <time>2014-10-18T07:51:50Z</time>
      </trkpt>
      <trkpt lat="46.378946034237742" lon="8.678036984056234">
        <ele>1014.809998</ele>
        <time>2014-10-18T07:52:10Z</time>
      </trkpt>
      <trkpt lat="46.37881301343441" lon="8.677987027913332">
        <ele>1018.169983</ele>
        <time>2014-10-18T07:52:28Z</time>
      </trkpt>
      <trkpt lat="46.378751993179321" lon="8.678205041214824">
        <ele>1020.099976</ele>
        <time>2014-10-18T07:52:47Z</time>
      </trkpt>
      <trkpt lat="46.378734977915883" lon="8.678238987922669">
        <ele>1020.580017</ele>
        <time>2014-10-18T07:52:50Z</time>
      </trkpt>
      <trkpt lat="46.378547977656126" lon="8.678392041474581">
        <ele>1022.499939</ele>
        <time>2014-10-18T07:53:12Z</time>
      </trkpt>
      <trkpt lat="46.378521993756294" lon="8.678533025085926">
        <ele>1025.8599850000001</ele>
        <time>2014-10-18T07:53:27Z</time>
      </trkpt>
      <trkpt lat="46.378516964614391" lon="8.678604019805789">
        <ele>1028.75</ele>
        <time>2014-10-18T07:53:43Z</time>
      </trkpt>
      <trkpt lat="46.378631964325905" lon="8.67873796261847">
        <ele>1032.1099850000001</ele>
        <time>2014-10-18T07:53:59Z</time>
      </trkpt>
      <trkpt lat="46.378517970442772" lon="8.678682977333665">
        <ele>1035</ele>
        <time>2014-10-18T07:54:23Z</time>
      </trkpt>
      <trkpt lat="46.378421997651458" lon="8.678717007860541">
        <ele>1035.959961</ele>
        <time>2014-10-18T07:54:37Z</time>
      </trkpt>
      <trkpt lat="46.378368018195033" lon="8.678747015073896">
        <ele>1036.440063</ele>
        <time>2014-10-18T07:54:51Z</time>
      </trkpt>
      <trkpt lat="46.378392996266484" lon="8.678844999521971">
        <ele>1035.4799800000001</ele>
        <time>2014-10-18T07:55:22Z</time>
      </trkpt>
      <trkpt lat="46.378251006826758" lon="8.678977014496923">
        <ele>1033.0699460000001</ele>
        <time>2014-10-18T07:55:41Z</time>
      </trkpt>
      <trkpt lat="46.378140030428767" lon="8.679141970351338">
        <ele>1033.0699460000001</ele>
        <time>2014-10-18T07:55:55Z</time>
      </trkpt>
      <trkpt lat="46.378041040152311" lon="8.679321007803083">
        <ele>1035</ele>
        <time>2014-10-18T07:56:09Z</time>
      </trkpt>
      <trkpt lat="46.378071969375014" lon="8.679556706920266">
        <ele>1037.880005</ele>
        <time>2014-10-18T07:56:29Z</time>
      </trkpt>
      <trkpt lat="46.378025617450476" lon="8.679685704410076">
        <ele>1040.76001</ele>
        <time>2014-10-18T07:56:46Z</time>
      </trkpt>
      <trkpt lat="46.378114130347967" lon="8.679817719385028">
        <ele>1043.169922</ele>
        <time>2014-10-18T07:57:05Z</time>
      </trkpt>
      <trkpt lat="46.378022013232112" lon="8.680010503157973">
        <ele>1046.0500489999999</ele>
        <time>2014-10-18T07:57:22Z</time>
      </trkpt>
      <trkpt lat="46.377976331859827" lon="8.680074540898204">
        <ele>1048.450073</ele>
        <time>2014-10-18T07:57:37Z</time>
      </trkpt>
      <trkpt lat="46.37793056666851" lon="8.680138411000371">
        <ele>1050.8599850000001</ele>
        <time>2014-10-18T07:57:52Z</time>
      </trkpt>
      <trkpt lat="46.377929896116257" lon="8.68020337074995">
        <ele>1052.780029</ele>
        <time>2014-10-18T07:58:22Z</time>
      </trkpt>
      <trkpt lat="46.377839958295226" lon="8.680201359093189">
        <ele>1056.630005</ele>
        <time>2014-10-18T07:58:23Z</time>
      </trkpt>
      <trkpt lat="46.377839958295226" lon="8.680201359093189">
        <ele>1056.630005</ele>
        <time>2014-10-18T07:58:24Z</time>
      </trkpt>
      <trkpt lat="46.377838617190719" lon="8.680331278592348">
        <ele>1059.51001</ele>
        <time>2014-10-18T07:58:38Z</time>
      </trkpt>
      <trkpt lat="46.377792181447148" lon="8.680460276082158">
        <ele>1061.429932</ele>
        <time>2014-10-18T07:58:53Z</time>
      </trkpt>
      <trkpt lat="46.377714984118938" lon="8.680512998253107">
        <ele>1064.3199460000001</ele>
        <time>2014-10-18T07:59:05Z</time>
      </trkpt>
      <trkpt lat="46.377739040181041" lon="8.680621962994337">
        <ele>1067.1999510000001</ele>
        <time>2014-10-18T07:59:22Z</time>
      </trkpt>
      <trkpt lat="46.377698974683881" lon="8.680698992684484">
        <ele>1067.6800539999999</ele>
        <time>2014-10-18T07:59:40Z</time>
      </trkpt>
      <trkpt lat="46.37773803435266" lon="8.680851040408015">
        <ele>1070.5699460000001</ele>
        <time>2014-10-18T08:00:13Z</time>
      </trkpt>
      <trkpt lat="46.377733005210757" lon="8.681058995425701">
        <ele>1073.450073</ele>
        <time>2014-10-18T08:00:30Z</time>
      </trkpt>
      <trkpt lat="46.377648683264852" lon="8.681236859411001">
        <ele>1076.8100589999999</ele>
        <time>2014-10-18T08:00:51Z</time>
      </trkpt>
      <trkpt lat="46.377602331340313" lon="8.68136577308178">
        <ele>1079.6999510000001</ele>
        <time>2014-10-18T08:01:08Z</time>
      </trkpt>
      <trkpt lat="46.377600906416774" lon="8.68149577639997">
        <ele>1082.580078</ele>
        <time>2014-10-18T08:01:23Z</time>
      </trkpt>
      <trkpt lat="46.377465287223458" lon="8.681557718664408">
        <ele>1085.950073</ele>
        <time>2014-10-18T08:01:41Z</time>
      </trkpt>
      <trkpt lat="46.377375265583396" lon="8.681555623188615">
        <ele>1087.869995</ele>
        <time>2014-10-18T08:01:53Z</time>
      </trkpt>
      <trkpt lat="46.377283902838826" lon="8.681683531031013">
        <ele>1090.2700199999999</ele>
        <time>2014-10-18T08:02:08Z</time>
      </trkpt>
      <trkpt lat="46.377237467095256" lon="8.681812360882759">
        <ele>1093.6400149999999</ele>
        <time>2014-10-18T08:02:28Z</time>
      </trkpt>
      <trkpt lat="46.377191869542003" lon="8.68187639862299">
        <ele>1095.559937</ele>
        <time>2014-10-18T08:02:41Z</time>
      </trkpt>
      <trkpt lat="46.377101177349687" lon="8.681939262896776">
        <ele>1097</ele>
        <time>2014-10-18T08:02:53Z</time>
      </trkpt>
      <trkpt lat="46.377055495977402" lon="8.682003300637007">
        <ele>1100.369995</ele>
        <time>2014-10-18T08:03:12Z</time>
      </trkpt>
      <trkpt lat="46.377009814605117" lon="8.682067170739174">
        <ele>1103.25</ele>
        <time>2014-10-18T08:03:34Z</time>
      </trkpt>
      <trkpt lat="46.376919206231833" lon="8.682130118831992">
        <ele>1106.6099850000001</ele>
        <time>2014-10-18T08:03:50Z</time>
      </trkpt>
      <trkpt lat="46.376828514039516" lon="8.682192983105779">
        <ele>1107.580078</ele>
        <time>2014-10-18T08:04:24Z</time>
      </trkpt>
      <trkpt lat="46.376782832667232" lon="8.682257020846009">
        <ele>1112.8599850000001</ele>
        <time>2014-10-18T08:04:25Z</time>
      </trkpt>
      <trkpt lat="46.376736396923661" lon="8.682385934516788">
        <ele>1113.339966</ele>
        <time>2014-10-18T08:04:31Z</time>
      </trkpt>
      <trkpt lat="46.376734972000122" lon="8.682515937834978">
        <ele>1116.7100829999999</ele>
        <time>2014-10-18T08:04:54Z</time>
      </trkpt>
      <trkpt lat="46.376645117998123" lon="8.682513758540154">
        <ele>1119.1099850000001</ele>
        <time>2014-10-18T08:05:17Z</time>
      </trkpt>
      <trkpt lat="46.376598682254553" lon="8.682642672210932">
        <ele>1121.5200199999999</ele>
        <time>2014-10-18T08:05:36Z</time>
      </trkpt>
      <trkpt lat="46.376552330330014" lon="8.682771669700742">
        <ele>1123.4399410000001</ele>
        <time>2014-10-18T08:05:57Z</time>
      </trkpt>
      <trkpt lat="46.376507319509983" lon="8.68277058005333">
        <ele>1126.320068</ele>
        <time>2014-10-18T08:06:13Z</time>
      </trkpt>
      <trkpt lat="46.376460883766413" lon="8.68289957754314">
        <ele>1128.7299800000001</ele>
        <time>2014-10-18T08:06:26Z</time>
      </trkpt>
      <trkpt lat="46.376417297869921" lon="8.682768568396568">
        <ele>1131.6099850000001</ele>
        <time>2014-10-18T08:06:42Z</time>
      </trkpt>
      <trkpt lat="46.376283103600144" lon="8.682700507342815">
        <ele>1134.969971</ele>
        <time>2014-10-18T08:07:00Z</time>
      </trkpt>
      <trkpt lat="46.376329539343715" lon="8.682571593672037">
        <ele>1134.969971</ele>
        <time>2014-10-18T08:07:01Z</time>
      </trkpt>
      <trkpt lat="46.376194590702653" lon="8.682568492367864">
        <ele>1136.420044</ele>
        <time>2014-10-18T08:07:12Z</time>
      </trkpt>
      <trkpt lat="46.375883035361767" lon="8.683108035475016">
        <ele>1140.26001</ele>
        <time>2014-10-18T08:07:32Z</time>
      </trkpt>
      <trkpt lat="46.375650689005852" lon="8.68294601328671">
        <ele>1143.630005</ele>
        <time>2014-10-18T08:07:50Z</time>
      </trkpt>
      <trkpt lat="46.375605007633567" lon="8.683009883388877">
        <ele>1146.51001</ele>
        <time>2014-10-18T08:08:07Z</time>
      </trkpt>
      <trkpt lat="46.375558571889997" lon="8.683138797059655">
        <ele>1149.869995</ele>
        <time>2014-10-18T08:08:23Z</time>
      </trkpt>
      <trkpt lat="46.375512890517712" lon="8.683202834799886">
        <ele>1152.76001</ele>
        <time>2014-10-18T08:08:38Z</time>
      </trkpt>
      <trkpt lat="46.375467209145427" lon="8.683266704902053">
        <ele>1155.6400149999999</ele>
        <time>2014-10-18T08:08:55Z</time>
      </trkpt>
      <trkpt lat="46.375420773401856" lon="8.683395702391863">
        <ele>1159.48999</ele>
        <time>2014-10-18T08:09:19Z</time>
      </trkpt>
      <trkpt lat="46.375374421477318" lon="8.683524616062641">
        <ele>1159.969971</ele>
        <time>2014-10-18T08:09:33Z</time>
      </trkpt>
      <trkpt lat="46.375372996553779" lon="8.6836545355618">
        <ele>1159.969971</ele>
        <time>2014-10-18T08:09:48Z</time>
      </trkpt>
      <trkpt lat="46.375282304361463" lon="8.683717399835587">
        <ele>1162.369995</ele>
        <time>2014-10-18T08:10:01Z</time>
      </trkpt>
      <trkpt lat="46.375236706808209" lon="8.683781437575817">
        <ele>1165.26001</ele>
        <time>2014-10-18T08:10:17Z</time>
      </trkpt>
      <trkpt lat="46.375191025435925" lon="8.683845307677984">
        <ele>1167.1800539999999</ele>
        <time>2014-10-18T08:10:31Z</time>
      </trkpt>
      <trkpt lat="46.375189516693354" lon="8.683975310996175">
        <ele>1170.0600589999999</ele>
        <time>2014-10-18T08:10:43Z</time>
      </trkpt>
      <trkpt lat="46.375278113409877" lon="8.684107325971127">
        <ele>1173.4300539999999</ele>
        <time>2014-10-18T08:11:02Z</time>
      </trkpt>
      <trkpt lat="46.375143080949783" lon="8.684104224666953">
        <ele>1176.309937</ele>
        <time>2014-10-18T08:11:16Z</time>
      </trkpt>
      <trkpt lat="46.37509748339653" lon="8.68416809476912">
        <ele>1179.670044</ele>
        <time>2014-10-18T08:11:29Z</time>
      </trkpt>
      <trkpt lat="46.375095974653959" lon="8.684298098087311">
        <ele>1181.119995</ele>
        <time>2014-10-18T08:11:40Z</time>
      </trkpt>
      <trkpt lat="46.375049622729421" lon="8.684427011758089">
        <ele>1184.4799800000001</ele>
        <time>2014-10-18T08:11:55Z</time>
      </trkpt>
      <trkpt lat="46.375003941357136" lon="8.684490965679288">
        <ele>1187.369995</ele>
        <time>2014-10-18T08:12:10Z</time>
      </trkpt>
      <trkpt lat="46.375002516433597" lon="8.684620885178447">
        <ele>1190.25</ele>
        <time>2014-10-18T08:12:25Z</time>
      </trkpt>
      <trkpt lat="46.374956835061312" lon="8.684684922918677">
        <ele>1192.650024</ele>
        <time>2014-10-18T08:12:39Z</time>
      </trkpt>
      <trkpt lat="46.374910399317741" lon="8.684813836589456">
        <ele>1196.0200199999999</ele>
        <time>2014-10-18T08:12:55Z</time>
      </trkpt>
      <trkpt lat="46.374864717945457" lon="8.684877706691623">
        <ele>1198.900024</ele>
        <time>2014-10-18T08:13:09Z</time>
      </trkpt>
      <trkpt lat="46.374819120392203" lon="8.684941660612822">
        <ele>1202.2700199999999</ele>
        <time>2014-10-18T08:13:24Z</time>
      </trkpt>
      <trkpt lat="46.37463916093111" lon="8.684937469661236">
        <ele>1205.150024</ele>
        <time>2014-10-18T08:13:39Z</time>
      </trkpt>
      <trkpt lat="46.374504212290049" lon="8.684934368357062">
        <ele>1208.030029</ele>
        <time>2014-10-18T08:13:53Z</time>
      </trkpt>
      <trkpt lat="46.374503541737795" lon="8.684999411925674">
        <ele>1211.400024</ele>
        <time>2014-10-18T08:14:09Z</time>
      </trkpt>
      <trkpt lat="46.374457776546478" lon="8.685063282027841">
        <ele>1216.690063</ele>
        <time>2014-10-18T08:14:38Z</time>
      </trkpt>
      <trkpt lat="46.37441142462194" lon="8.685192279517651">
        <ele>1216.690063</ele>
        <time>2014-10-18T08:14:39Z</time>
      </trkpt>
      <trkpt lat="46.374321486800909" lon="8.685190184041858">
        <ele>1220.0500489999999</ele>
        <time>2014-10-18T08:14:55Z</time>
      </trkpt>
      <trkpt lat="46.374230794608593" lon="8.685253132134676">
        <ele>1222.9300539999999</ele>
        <time>2014-10-18T08:15:10Z</time>
      </trkpt>
      <trkpt lat="46.374185867607594" lon="8.685252126306295">
        <ele>1225.820068</ele>
        <time>2014-10-18T08:15:26Z</time>
      </trkpt>
      <trkpt lat="46.374140940606594" lon="8.685251036658883">
        <ele>1229.179932</ele>
        <time>2014-10-18T08:15:42Z</time>
      </trkpt>
      <trkpt lat="46.374095175415277" lon="8.685314990580082">
        <ele>1229.660034</ele>
        <time>2014-10-18T08:16:11Z</time>
      </trkpt>
      <trkpt lat="46.374005321413279" lon="8.685312895104289">
        <ele>1237.829956</ele>
        <time>2014-10-18T08:16:32Z</time>
      </trkpt>
      <trkpt lat="46.374004567041993" lon="8.6853779386729">
        <ele>1274.849976</ele>
        <time>2014-10-18T08:21:17Z</time>
      </trkpt>
      <trkpt lat="46.374003812670708" lon="8.68544289842248">
        <ele>1275.8100589999999</ele>
        <time>2014-10-18T08:21:22Z</time>
      </trkpt>
      <trkpt lat="46.373958215117455" lon="8.685506768524647">
        <ele>1275.8100589999999</ele>
        <time>2014-10-18T08:21:23Z</time>
      </trkpt>
      <trkpt lat="46.374002387747169" lon="8.685572817921639">
        <ele>1277.25</ele>
        <time>2014-10-18T08:21:34Z</time>
      </trkpt>
      <trkpt lat="46.374001717194915" lon="8.685637777671218">
        <ele>1277.7299800000001</ele>
        <time>2014-10-18T08:21:43Z</time>
      </trkpt>
      <trkpt lat="46.374000962823629" lon="8.685702821239829">
        <ele>1278.690063</ele>
        <time>2014-10-18T08:21:57Z</time>
      </trkpt>
      <trkpt lat="46.37395603582263" lon="8.685701731592417">
        <ele>1278.690063</ele>
        <time>2014-10-18T08:22:09Z</time>
      </trkpt>
      <trkpt lat="46.373910270631313" lon="8.685765685513616">
        <ele>1280.1298830000001</ele>
        <time>2014-10-18T08:22:28Z</time>
      </trkpt>
      <trkpt lat="46.373864589259028" lon="8.685829639434815">
        <ele>1282.540039</ele>
        <time>2014-10-18T08:22:44Z</time>
      </trkpt>
      <trkpt lat="46.373819662258029" lon="8.685828633606434">
        <ele>1283.5</ele>
        <time>2014-10-18T08:22:48Z</time>
      </trkpt>
      <trkpt lat="46.373773980885744" lon="8.685892503708601">
        <ele>1285.900024</ele>
        <time>2014-10-18T08:23:02Z</time>
      </trkpt>
      <trkpt lat="46.373728299513459" lon="8.685956541448832">
        <ele>1287.3400879999999</ele>
        <time>2014-10-18T08:23:17Z</time>
      </trkpt>
      <trkpt lat="46.37372687458992" lon="8.686086377128959">
        <ele>1289.2700199999999</ele>
        <time>2014-10-18T08:23:31Z</time>
      </trkpt>
      <trkpt lat="46.373728299513459" lon="8.685956541448832">
        <ele>1291.670044</ele>
        <time>2014-10-18T08:23:33Z</time>
      </trkpt>
      <trkpt lat="46.373771801590919" lon="8.686087382957339">
        <ele>1292.630005</ele>
        <time>2014-10-18T08:23:34Z</time>
      </trkpt>
      <trkpt lat="46.373772472143173" lon="8.686022507026792">
        <ele>1294.070068</ele>
        <time>2014-10-18T08:23:44Z</time>
      </trkpt>
      <trkpt lat="46.373817482963204" lon="8.686023512855172">
        <ele>1295.51001</ele>
        <time>2014-10-18T08:23:49Z</time>
      </trkpt>
      <trkpt lat="46.373639116063714" lon="8.685889402404428">
        <ele>1297.919922</ele>
        <time>2014-10-18T08:24:06Z</time>
      </trkpt>
      <trkpt lat="46.373729724436998" lon="8.685826538130641">
        <ele>1300.3199460000001</ele>
        <time>2014-10-18T08:24:19Z</time>
      </trkpt>
      <trkpt lat="46.373729724436998" lon="8.685826538130641">
        <ele>1302.719971</ele>
        <time>2014-10-18T08:24:30Z</time>
      </trkpt>
      <trkpt lat="46.373639116063714" lon="8.685889402404428">
        <ele>1305.1298830000001</ele>
        <time>2014-10-18T08:24:41Z</time>
      </trkpt>
      <trkpt lat="46.373727628961205" lon="8.686021417379379">
        <ele>1307.049927</ele>
        <time>2014-10-18T08:24:54Z</time>
      </trkpt>
      <trkpt lat="46.373681193217635" lon="8.686150331050158">
        <ele>1309.4499510000001</ele>
        <time>2014-10-18T08:25:09Z</time>
      </trkpt>
      <trkpt lat="46.373636936768889" lon="8.686084281653166">
        <ele>1310.900024</ele>
        <time>2014-10-18T08:25:18Z</time>
      </trkpt>
      <trkpt lat="46.373638277873397" lon="8.685954362154007">
        <ele>1314.259888</ele>
        <time>2014-10-18T08:26:07Z</time>
      </trkpt>
      <trkpt lat="46.373591925948858" lon="8.686083275824785">
        <ele>1319.5500489999999</ele>
        <time>2014-10-18T08:26:49Z</time>
      </trkpt>
      <trkpt lat="46.373593434691429" lon="8.685953440144658">
        <ele>1321.950073</ele>
        <time>2014-10-18T08:27:01Z</time>
      </trkpt>
      <trkpt lat="46.373548423871398" lon="8.685952266678214">
        <ele>1322.4300539999999</ele>
        <time>2014-10-18T08:27:05Z</time>
      </trkpt>
      <trkpt lat="46.373458486050367" lon="8.685950338840485">
        <ele>1324.3500979999999</ele>
        <time>2014-10-18T08:27:20Z</time>
      </trkpt>
      <trkpt lat="46.373503413051367" lon="8.685951260849834">
        <ele>1325.799927</ele>
        <time>2014-10-18T08:27:24Z</time>
      </trkpt>
      <trkpt lat="46.373457731679082" lon="8.686015214771032">
        <ele>1327.719971</ele>
        <time>2014-10-18T08:27:39Z</time>
      </trkpt>
      <trkpt lat="46.373412134125829" lon="8.686079168692231">
        <ele>1330.119995</ele>
        <time>2014-10-18T08:27:55Z</time>
      </trkpt>
      <trkpt lat="46.373367123305798" lon="8.686078079044819">
        <ele>1332.040039</ele>
        <time>2014-10-18T08:28:04Z</time>
      </trkpt>
      <trkpt lat="46.373277101665735" lon="8.686076067388058">
        <ele>1333.969971</ele>
        <time>2014-10-18T08:28:16Z</time>
      </trkpt>
      <trkpt lat="46.373187163844705" lon="8.686073971912265">
        <ele>1335.410034</ele>
        <time>2014-10-18T08:28:26Z</time>
      </trkpt>
      <trkpt lat="46.373097226023674" lon="8.686071876436472">
        <ele>1335.8900149999999</ele>
        <time>2014-10-18T08:28:29Z</time>
      </trkpt>
      <trkpt lat="46.373007288202643" lon="8.686069864779711">
        <ele>1338.290039</ele>
        <time>2014-10-18T08:28:44Z</time>
      </trkpt>
      <trkpt lat="46.372962277382612" lon="8.686068775132299">
        <ele>1340.6999510000001</ele>
        <time>2014-10-18T08:28:54Z</time>
      </trkpt>
      <trkpt lat="46.372917434200644" lon="8.686067769303918">
        <ele>1344.059937</ele>
        <time>2014-10-18T08:29:11Z</time>
      </trkpt>
      <trkpt lat="46.372873093932867" lon="8.686001803725958">
        <ele>1344.540039</ele>
        <time>2014-10-18T08:29:14Z</time>
      </trkpt>
      <trkpt lat="46.372827412560582" lon="8.686065673828125">
        <ele>1347.910034</ele>
        <time>2014-10-18T08:29:31Z</time>
      </trkpt>
      <trkpt lat="46.372738229110837" lon="8.685998702421784">
        <ele>1349.3500979999999</ele>
        <time>2014-10-18T08:29:39Z</time>
      </trkpt>
      <trkpt lat="46.37269388884306" lon="8.685932736843824">
        <ele>1351.75</ele>
        <time>2014-10-18T08:30:10Z</time>
      </trkpt>
      <trkpt lat="46.372649716213346" lon="8.685866687446833">
        <ele>1351.75</ele>
        <time>2014-10-18T08:30:35Z</time>
      </trkpt>
      <trkpt lat="46.372604705393314" lon="8.685865681618452">
        <ele>1354.150024</ele>
        <time>2014-10-18T08:31:38Z</time>
      </trkpt>
      <trkpt lat="46.372559024021029" lon="8.685929635539651">
        <ele>1359.919922</ele>
        <time>2014-10-18T08:31:54Z</time>
      </trkpt>
      <trkpt lat="46.372514013200998" lon="8.68592862971127">
        <ele>1361.3599850000001</ele>
        <time>2014-10-18T08:32:11Z</time>
      </trkpt>
      <trkpt lat="46.372424075379968" lon="8.685926534235477">
        <ele>1363.7700199999999</ele>
        <time>2014-10-18T08:32:13Z</time>
      </trkpt>
      <trkpt lat="46.372379064559937" lon="8.685925528407097">
        <ele>1366.650024</ele>
        <time>2014-10-18T08:32:31Z</time>
      </trkpt>
      <trkpt lat="46.372334221377969" lon="8.685924438759685">
        <ele>1369.540039</ele>
        <time>2014-10-18T08:32:46Z</time>
      </trkpt>
      <trkpt lat="46.372423404827714" lon="8.685991493985057">
        <ele>1396.929932</ele>
        <time>2014-10-18T08:35:25Z</time>
      </trkpt>
      <trkpt lat="46.372377723455429" lon="8.686055364087224">
        <ele>1399.820068</ele>
        <time>2014-10-18T08:35:43Z</time>
      </trkpt>
      <trkpt lat="46.372331958264112" lon="8.686119401827455">
        <ele>1402.700073</ele>
        <time>2014-10-18T08:36:00Z</time>
      </trkpt>
      <trkpt lat="46.372287031263113" lon="8.686118312180042">
        <ele>1405.579956</ele>
        <time>2014-10-18T08:37:23Z</time>
      </trkpt>
      <trkpt lat="46.372242104262114" lon="8.686117306351662">
        <ele>1408.950073</ele>
        <time>2014-10-18T08:37:40Z</time>
      </trkpt>
      <trkpt lat="46.372197763994336" lon="8.686051340773702">
        <ele>1411.830078</ele>
        <time>2014-10-18T08:37:56Z</time>
      </trkpt>
      <trkpt lat="46.372196422889829" lon="8.686181176453829">
        <ele>1415.1999510000001</ele>
        <time>2014-10-18T08:38:12Z</time>
      </trkpt>
      <trkpt lat="46.372106401249766" lon="8.686179164797068">
        <ele>1418.080078</ele>
        <time>2014-10-18T08:38:29Z</time>
      </trkpt>
      <trkpt lat="46.372061474248767" lon="8.686178075149655">
        <ele>1420.48999</ele>
        <time>2014-10-18T08:38:43Z</time>
      </trkpt>
      <trkpt lat="46.372016463428736" lon="8.686177069321275">
        <ele>1421.4499510000001</ele>
        <time>2014-10-18T08:38:51Z</time>
      </trkpt>
      <trkpt lat="46.37197220697999" lon="8.686111103743315">
        <ele>1423.369995</ele>
        <time>2014-10-18T08:39:14Z</time>
      </trkpt>
      <trkpt lat="46.371970782056451" lon="8.686241023242474">
        <ele>1425.7700199999999</ele>
        <time>2014-10-18T08:39:15Z</time>
      </trkpt>
      <trkpt lat="46.371926525607705" lon="8.686174973845482">
        <ele>1428.179932</ele>
        <time>2014-10-18T08:39:28Z</time>
      </trkpt>
      <trkpt lat="46.371881598606706" lon="8.686173968017101">
        <ele>1431.5399170000001</ele>
        <time>2014-10-18T08:39:46Z</time>
      </trkpt>
      <trkpt lat="46.371925100684166" lon="8.686304977163672">
        <ele>1434.420044</ele>
        <time>2014-10-18T08:40:04Z</time>
      </trkpt>
      <trkpt lat="46.371881598606706" lon="8.686173968017101">
        <ele>1434.910034</ele>
        <time>2014-10-18T08:40:37Z</time>
      </trkpt>
      <trkpt lat="46.371791576966643" lon="8.686171872541308">
        <ele>1443.5600589999999</ele>
        <time>2014-10-18T08:40:50Z</time>
      </trkpt>
      <trkpt lat="46.371746733784676" lon="8.686170866712928">
        <ele>1446.919922</ele>
        <time>2014-10-18T08:41:07Z</time>
      </trkpt>
      <trkpt lat="46.371700968593359" lon="8.686234820634127">
        <ele>1449.8100589999999</ele>
        <time>2014-10-18T08:41:24Z</time>
      </trkpt>
      <trkpt lat="46.371655287221074" lon="8.686298774555326">
        <ele>1452.690063</ele>
        <time>2014-10-18T08:41:42Z</time>
      </trkpt>
      <trkpt lat="46.371610276401043" lon="8.686297684907913">
        <ele>1456.0500489999999</ele>
        <time>2014-10-18T08:42:00Z</time>
      </trkpt>
      <trkpt lat="46.371608935296535" lon="8.686427688226104">
        <ele>1458.459961</ele>
        <time>2014-10-18T08:42:27Z</time>
      </trkpt>
      <trkpt lat="46.371563924476504" lon="8.686426598578692">
        <ele>1463.73999</ele>
        <time>2014-10-18T08:42:42Z</time>
      </trkpt>
      <trkpt lat="46.371518913656473" lon="8.686425592750311">
        <ele>1463.73999</ele>
        <time>2014-10-18T08:42:57Z</time>
      </trkpt>
      <trkpt lat="46.371562499552965" lon="8.686556601896882">
        <ele>1465.669922</ele>
        <time>2014-10-18T08:42:58Z</time>
      </trkpt>
      <trkpt lat="46.371473232284188" lon="8.686489630490542">
        <ele>1468.0699460000001</ele>
        <time>2014-10-18T08:43:14Z</time>
      </trkpt>
      <trkpt lat="46.371471807360649" lon="8.686619466170669">
        <ele>1469.030029</ele>
        <time>2014-10-18T08:43:17Z</time>
      </trkpt>
      <trkpt lat="46.371382623910904" lon="8.686552494764328">
        <ele>1471.440063</ele>
        <time>2014-10-18T08:43:33Z</time>
      </trkpt>
      <trkpt lat="46.371426125988364" lon="8.686683420091867">
        <ele>1474.3199460000001</ele>
        <time>2014-10-18T08:43:51Z</time>
      </trkpt>
      <trkpt lat="46.371381198987365" lon="8.686682414263487">
        <ele>1477.1999510000001</ele>
        <time>2014-10-18T08:44:06Z</time>
      </trkpt>
      <trkpt lat="46.371290506795049" lon="8.686745278537273">
        <ele>1479.6099850000001</ele>
        <time>2014-10-18T08:44:21Z</time>
      </trkpt>
      <trkpt lat="46.371199814602733" lon="8.686808226630092">
        <ele>1482.969971</ele>
        <time>2014-10-18T08:44:37Z</time>
      </trkpt>
      <trkpt lat="46.371199060231447" lon="8.686873186379671">
        <ele>1485.849976</ele>
        <time>2014-10-18T08:44:54Z</time>
      </trkpt>
      <trkpt lat="46.371108535677195" lon="8.686936134472489">
        <ele>1488.73999</ele>
        <time>2014-10-18T08:45:13Z</time>
      </trkpt>
      <trkpt lat="46.371108535677195" lon="8.686936134472489">
        <ele>1491.6201169999999</ele>
        <time>2014-10-18T08:45:30Z</time>
      </trkpt>
      <trkpt lat="46.371107026934624" lon="8.687065970152617">
        <ele>1491.6201169999999</ele>
        <time>2014-10-18T08:45:31Z</time>
      </trkpt>
      <trkpt lat="46.371017089113593" lon="8.687063958495855">
        <ele>1494.51001</ele>
        <time>2014-10-18T08:45:47Z</time>
      </trkpt>
      <trkpt lat="46.370972078293562" lon="8.687062868848443">
        <ele>1497.3900149999999</ele>
        <time>2014-10-18T08:46:07Z</time>
      </trkpt>
      <trkpt lat="46.370927067473531" lon="8.687061863020062">
        <ele>1500.76001</ele>
        <time>2014-10-18T08:46:24Z</time>
      </trkpt>
      <trkpt lat="46.370925726369023" lon="8.687191782519221">
        <ele>1503.160034</ele>
        <time>2014-10-18T08:46:45Z</time>
      </trkpt>
      <trkpt lat="46.370969312265515" lon="8.687322791665793">
        <ele>1505.5600589999999</ele>
        <time>2014-10-18T08:47:00Z</time>
      </trkpt>
      <trkpt lat="46.370967803522944" lon="8.687452711164951">
        <ele>1507.969971</ele>
        <time>2014-10-18T08:47:14Z</time>
      </trkpt>
      <trkpt lat="46.37092212215066" lon="8.68751666508615">
        <ele>1510.849976</ele>
        <time>2014-10-18T08:47:33Z</time>
      </trkpt>
      <trkpt lat="46.370876440778375" lon="8.687580619007349">
        <ele>1513.25</ele>
        <time>2014-10-18T08:47:54Z</time>
      </trkpt>
      <trkpt lat="46.370830005034804" lon="8.687709532678127">
        <ele>1516.139893</ele>
        <time>2014-10-18T08:48:06Z</time>
      </trkpt>
      <trkpt lat="46.37078583240509" lon="8.687643483281136">
        <ele>1518.5399170000001</ele>
        <time>2014-10-18T08:48:19Z</time>
      </trkpt>
      <trkpt lat="46.370741492137313" lon="8.687577517703176">
        <ele>1521.900024</ele>
        <time>2014-10-18T08:48:36Z</time>
      </trkpt>
      <trkpt lat="46.370651638135314" lon="8.687575422227383">
        <ele>1524.3100589999999</ele>
        <time>2014-10-18T08:48:52Z</time>
      </trkpt>
      <trkpt lat="46.370606627315283" lon="8.687574416399002">
        <ele>1526.2299800000001</ele>
        <time>2014-10-18T08:49:15Z</time>
      </trkpt>
      <trkpt lat="46.370471678674221" lon="8.687571315094829">
        <ele>1531.5200199999999</ele>
        <time>2014-10-18T08:49:34Z</time>
      </trkpt>
      <trkpt lat="46.370395990088582" lon="8.687585983425379">
        <ele>1532.9600829999999</ele>
        <time>2014-10-18T08:49:47Z</time>
      </trkpt>
      <trkpt lat="46.370382495224476" lon="8.687504259869456">
        <ele>1535.839966</ele>
        <time>2014-10-18T08:50:04Z</time>
      </trkpt>
      <trkpt lat="46.370249725878239" lon="8.687306279316545">
        <ele>1538.7299800000001</ele>
        <time>2014-10-18T08:50:22Z</time>
      </trkpt>
      <trkpt lat="46.370114777237177" lon="8.687303178012371">
        <ele>1539.690063</ele>
        <time>2014-10-18T08:50:29Z</time>
      </trkpt>
      <trkpt lat="46.369981337338686" lon="8.687170073390007">
        <ele>1543.530029</ele>
        <time>2014-10-18T08:50:48Z</time>
      </trkpt>
      <trkpt lat="46.369937835261226" lon="8.687039064243436">
        <ele>1546.420044</ele>
        <time>2014-10-18T08:51:08Z</time>
      </trkpt>
      <trkpt lat="46.369804311543703" lon="8.686906127259135">
        <ele>1548.339966</ele>
        <time>2014-10-18T08:51:22Z</time>
      </trkpt>
      <trkpt lat="46.369714289903641" lon="8.686904031783342">
        <ele>1551.2200929999999</ele>
        <time>2014-10-18T08:51:45Z</time>
      </trkpt>
      <trkpt lat="46.369579425081611" lon="8.686900930479169">
        <ele>1552.1899410000001</ele>
        <time>2014-10-18T08:51:51Z</time>
      </trkpt>
      <trkpt lat="46.369490241631866" lon="8.686833875253797">
        <ele>1555.0699460000001</ele>
        <time>2014-10-18T08:52:14Z</time>
      </trkpt>
      <trkpt lat="46.369445230811834" lon="8.686832869425416">
        <ele>1557.9499510000001</ele>
        <time>2014-10-18T08:52:32Z</time>
      </trkpt>
      <trkpt lat="46.369400974363089" lon="8.686766903847456">
        <ele>1559.8798830000001</ele>
        <time>2014-10-18T08:52:49Z</time>
      </trkpt>
      <trkpt lat="46.369311036542058" lon="8.686764808371663">
        <ele>1560.360107</ele>
        <time>2014-10-18T08:53:01Z</time>
      </trkpt>
      <trkpt lat="46.369310282170773" lon="8.686829768121243">
        <ele>1560.839966</ele>
        <time>2014-10-18T08:53:02Z</time>
      </trkpt>
      <trkpt lat="46.369221098721027" lon="8.68676271289587">
        <ele>1562.2799070000001</ele>
        <time>2014-10-18T08:53:22Z</time>
      </trkpt>
      <trkpt lat="46.36895053088665" lon="8.686821470037103">
        <ele>1565.160034</ele>
        <time>2014-10-18T08:53:38Z</time>
      </trkpt>
      <trkpt lat="46.368860593065619" lon="8.68681937456131">
        <ele>1567.570068</ele>
        <time>2014-10-18T08:53:58Z</time>
      </trkpt>
      <trkpt lat="46.368770571425557" lon="8.686817362904549">
        <ele>1569.009888</ele>
        <time>2014-10-18T08:54:20Z</time>
      </trkpt>
      <trkpt lat="46.368681387975812" lon="8.686750307679176">
        <ele>1573.820068</ele>
        <time>2014-10-18T08:55:07Z</time>
      </trkpt>
      <trkpt lat="46.368412328884006" lon="8.686679229140282">
        <ele>1576.700073</ele>
        <time>2014-10-18T08:55:28Z</time>
      </trkpt>
      <trkpt lat="46.368320882320404" lon="8.686806969344616">
        <ele>1577.1800539999999</ele>
        <time>2014-10-18T08:55:50Z</time>
      </trkpt>
      <trkpt lat="46.368229519575834" lon="8.686934877187014">
        <ele>1582.9499510000001</ele>
        <time>2014-10-18T08:56:07Z</time>
      </trkpt>
      <trkpt lat="46.368049560114741" lon="8.68693077005446">
        <ele>1584.3900149999999</ele>
        <time>2014-10-18T08:56:20Z</time>
      </trkpt>
      <trkpt lat="46.367959035560489" lon="8.686993718147278">
        <ele>1587.7498780000001</ele>
        <time>2014-10-18T08:56:40Z</time>
      </trkpt>
      <trkpt lat="46.367869013920426" lon="8.686991622671485">
        <ele>1590.6400149999999</ele>
        <time>2014-10-18T08:57:08Z</time>
      </trkpt>
      <trkpt lat="46.367823332548141" lon="8.687055492773652">
        <ele>1593.040039</ele>
        <time>2014-10-18T08:57:10Z</time>
      </trkpt>
      <trkpt lat="46.367776226252317" lon="8.68724936619401">
        <ele>1595.929932</ele>
        <time>2014-10-18T08:57:27Z</time>
      </trkpt>
      <trkpt lat="46.367912013083696" lon="8.687447011470795">
        <ele>1598.809937</ele>
        <time>2014-10-18T08:57:43Z</time>
      </trkpt>
      <trkpt lat="46.367824003100395" lon="8.687404012307525">
        <ele>1600.25</ele>
        <time>2014-10-18T08:58:23Z</time>
      </trkpt>
      <trkpt lat="46.36781201697886" lon="8.687389008700848">
        <ele>1602.170044</ele>
        <time>2014-10-18T08:58:25Z</time>
      </trkpt>
      <trkpt lat="46.367831965908408" lon="8.687331005930901">
        <ele>1605.5399170000001</ele>
        <time>2014-10-18T08:58:44Z</time>
      </trkpt>
      <trkpt lat="46.367913018912077" lon="8.687569973990321">
        <ele>1606.5</ele>
        <time>2014-10-18T08:59:14Z</time>
      </trkpt>
      <trkpt lat="46.367913018912077" lon="8.687575003132224">
        <ele>1610.349976</ele>
        <time>2014-10-18T08:59:15Z</time>
      </trkpt>
      <trkpt lat="46.367914024740458" lon="8.687581960111857">
        <ele>1610.830078</ele>
        <time>2014-10-18T08:59:16Z</time>
      </trkpt>
      <trkpt lat="46.367903966456652" lon="8.68760802783072">
        <ele>1613.709961</ele>
        <time>2014-10-18T08:59:42Z</time>
      </trkpt>
      <trkpt lat="46.367995999753475" lon="8.68763099424541">
        <ele>1615.1499020000001</ele>
        <time>2014-10-18T08:59:57Z</time>
      </trkpt>
      <trkpt lat="46.368029024451971" lon="8.687593024224043">
        <ele>1617.5600589999999</ele>
        <time>2014-10-18T09:00:21Z</time>
      </trkpt>
      <trkpt lat="46.367978984490037" lon="8.687581038102508">
        <ele>1620.440063</ele>
        <time>2014-10-18T09:03:50Z</time>
      </trkpt>
      <trkpt lat="46.36820001527667" lon="8.687593024224043">
        <ele>1623.799927</ele>
        <time>2014-10-18T09:05:52Z</time>
      </trkpt>
      <trkpt lat="46.368320966139436" lon="8.687682962045074">
        <ele>1626.690063</ele>
        <time>2014-10-18T09:06:06Z</time>
      </trkpt>
      <trkpt lat="46.36837201192975" lon="8.687811959534884">
        <ele>1628.6099850000001</ele>
        <time>2014-10-18T09:06:21Z</time>
      </trkpt>
      <trkpt lat="46.368204038590193" lon="8.687809025868774">
        <ele>1631.9799800000001</ele>
        <time>2014-10-18T09:06:40Z</time>
      </trkpt>
      <trkpt lat="46.36817998252809" lon="8.687841966748238">
        <ele>1635.339966</ele>
        <time>2014-10-18T09:06:54Z</time>
      </trkpt>
      <trkpt lat="46.368094990029931" lon="8.687898963689804">
        <ele>1638.219971</ele>
        <time>2014-10-18T09:07:09Z</time>
      </trkpt>
      <trkpt lat="46.368169002234936" lon="8.688142960891128">
        <ele>1641.589966</ele>
        <time>2014-10-18T09:07:25Z</time>
      </trkpt>
      <trkpt lat="46.36809398420155" lon="8.688156036660075">
        <ele>1644.469971</ele>
        <time>2014-10-18T09:07:42Z</time>
      </trkpt>
      <trkpt lat="46.368107981979847" lon="8.688257038593292">
        <ele>1646.8798830000001</ele>
        <time>2014-10-18T09:07:55Z</time>
      </trkpt>
      <trkpt lat="46.368103958666325" lon="8.688324009999633">
        <ele>1650.23999</ele>
        <time>2014-10-18T09:08:11Z</time>
      </trkpt>
      <trkpt lat="46.368244020268321" lon="8.688473040238023">
        <ele>1653.599976</ele>
        <time>2014-10-18T09:08:29Z</time>
      </trkpt>
      <trkpt lat="46.368089038878679" lon="8.688424006104469">
        <ele>1656.490112</ele>
        <time>2014-10-18T09:08:45Z</time>
      </trkpt>
      <trkpt lat="46.368017038330436" lon="8.688504975289106">
        <ele>1659.369995</ele>
        <time>2014-10-18T09:09:01Z</time>
      </trkpt>
      <trkpt lat="46.367883011698723" lon="8.68857697583735">
        <ele>1662.73999</ele>
        <time>2014-10-18T09:09:17Z</time>
      </trkpt>
      <trkpt lat="46.36785602197051" lon="8.688615029677749">
        <ele>1664.660034</ele>
        <time>2014-10-18T09:09:29Z</time>
      </trkpt>
      <trkpt lat="46.367767006158829" lon="8.688661968335509">
        <ele>1667.059937</ele>
        <time>2014-10-18T09:09:45Z</time>
      </trkpt>
      <trkpt lat="46.367771029472351" lon="8.688688036054373">
        <ele>1670.4300539999999</ele>
        <time>2014-10-18T09:10:00Z</time>
      </trkpt>
      <trkpt lat="46.367731969803572" lon="8.68872600607574">
        <ele>1673.3100589999999</ele>
        <time>2014-10-18T09:10:15Z</time>
      </trkpt>
      <trkpt lat="46.367758037522435" lon="8.68887503631413">
        <ele>1675.719971</ele>
        <time>2014-10-18T09:10:28Z</time>
      </trkpt>
      <trkpt lat="46.367673967033625" lon="8.688863972201943">
        <ele>1678.599976</ele>
        <time>2014-10-18T09:10:45Z</time>
      </trkpt>
      <trkpt lat="46.367599032819271" lon="8.688893979415298">
        <ele>1681.4799800000001</ele>
        <time>2014-10-18T09:11:01Z</time>
      </trkpt>
      <trkpt lat="46.367596015334129" lon="8.688893979415298">
        <ele>1681.4799800000001</ele>
        <time>2014-10-18T09:11:02Z</time>
      </trkpt>
      <trkpt lat="46.367544969543815" lon="8.68894100189209">
        <ele>1682.929932</ele>
        <time>2014-10-18T09:11:13Z</time>
      </trkpt>
      <trkpt lat="46.367509011179209" lon="8.689018031582236">
        <ele>1686.2899170000001</ele>
        <time>2014-10-18T09:11:27Z</time>
      </trkpt>
      <trkpt lat="46.367423012852669" lon="8.689048960804939">
        <ele>1689.170044</ele>
        <time>2014-10-18T09:11:45Z</time>
      </trkpt>
      <trkpt lat="46.36738495901227" lon="8.689059019088745">
        <ele>1691.580078</ele>
        <time>2014-10-18T09:11:59Z</time>
      </trkpt>
      <trkpt lat="46.367354029789567" lon="8.68900696747005">
        <ele>1693.0198969999999</ele>
        <time>2014-10-18T09:12:09Z</time>
      </trkpt>
      <trkpt lat="46.367329973727465" lon="8.688958017155528">
        <ele>1694.459961</ele>
        <time>2014-10-18T09:12:20Z</time>
      </trkpt>
      <trkpt lat="46.367322010919452" lon="8.68894200772047">
        <ele>1696.380005</ele>
        <time>2014-10-18T09:12:29Z</time>
      </trkpt>
      <trkpt lat="46.367243975400925" lon="8.688878975808621">
        <ele>1697.830078</ele>
        <time>2014-10-18T09:12:44Z</time>
      </trkpt>
      <trkpt lat="46.367188990116119" lon="8.688804963603616">
        <ele>1699.2700199999999</ele>
        <time>2014-10-18T09:12:56Z</time>
      </trkpt>
      <trkpt lat="46.367145990952849" lon="8.688732963055372">
        <ele>1701.190063</ele>
        <time>2014-10-18T09:13:10Z</time>
      </trkpt>
      <trkpt lat="46.367085976526141" lon="8.688694993034005">
        <ele>1703.1099850000001</ele>
        <time>2014-10-18T09:13:21Z</time>
      </trkpt>
      <trkpt lat="46.366986986249685" lon="8.688692981377244">
        <ele>1706</ele>
        <time>2014-10-18T09:13:36Z</time>
      </trkpt>
      <trkpt lat="46.366885984316468" lon="8.688682001084089">
        <ele>1707.440063</ele>
        <time>2014-10-18T09:13:48Z</time>
      </trkpt>
      <trkpt lat="46.366823958232999" lon="8.688675966113806">
        <ele>1708.880005</ele>
        <time>2014-10-18T09:13:58Z</time>
      </trkpt>
      <trkpt lat="46.366756986826658" lon="8.688664985820651">
        <ele>1709.8400879999999</ele>
        <time>2014-10-18T09:14:10Z</time>
      </trkpt>
      <trkpt lat="46.366690015420318" lon="8.688631961122155">
        <ele>1711.2799070000001</ele>
        <time>2014-10-18T09:14:24Z</time>
      </trkpt>
      <trkpt lat="46.366617009043694" lon="8.688657023012638">
        <ele>1712.7299800000001</ele>
        <time>2014-10-18T09:14:38Z</time>
      </trkpt>
      <trkpt lat="46.366512989625335" lon="8.688754001632333">
        <ele>1715.6099850000001</ele>
        <time>2014-10-18T09:14:59Z</time>
      </trkpt>
      <trkpt lat="46.366474013775587" lon="8.688759030774236">
        <ele>1716.570068</ele>
        <time>2014-10-18T09:15:04Z</time>
      </trkpt>
      <trkpt lat="46.366447024047375" lon="8.688779985532165">
        <ele>1716.570068</ele>
        <time>2014-10-18T09:15:09Z</time>
      </trkpt>
      <trkpt lat="46.366355996578932" lon="8.688816027715802">
        <ele>1717.0500489999999</ele>
        <time>2014-10-18T09:15:21Z</time>
      </trkpt>
      <trkpt lat="46.366261029615998" lon="8.688784008845687">
        <ele>1717.530029</ele>
        <time>2014-10-18T09:15:39Z</time>
      </trkpt>
      <trkpt lat="46.366226999089122" lon="8.688742015510798">
        <ele>1718.01001</ele>
        <time>2014-10-18T09:16:58Z</time>
      </trkpt>
      <trkpt lat="46.366129014641047" lon="8.688743021339178">
        <ele>1718.9700929999999</ele>
        <time>2014-10-18T09:17:15Z</time>
      </trkpt>
      <trkpt lat="46.366109987720847" lon="8.688722988590598">
        <ele>1718.9700929999999</ele>
        <time>2014-10-18T09:17:30Z</time>
      </trkpt>
      <trkpt lat="46.366160027682781" lon="8.688760036602616">
        <ele>1719.459961</ele>
        <time>2014-10-18T09:18:01Z</time>
      </trkpt>
      <trkpt lat="46.366133037954569" lon="8.68870303966105">
        <ele>1719.9399410000001</ele>
        <time>2014-10-18T09:18:29Z</time>
      </trkpt>
      <trkpt lat="46.366216018795967" lon="8.688958017155528">
        <ele>1719.459961</ele>
        <time>2014-10-18T09:19:29Z</time>
      </trkpt>
      <trkpt lat="46.366117028519511" lon="8.688867995515466">
        <ele>1719.459961</ele>
        <time>2014-10-18T09:20:36Z</time>
      </trkpt>
      <trkpt lat="46.366078974679112" lon="8.688804041594267">
        <ele>1719.459961</ele>
        <time>2014-10-18T09:21:29Z</time>
      </trkpt>
      <trkpt lat="46.365932039916515" lon="8.688617963343859">
        <ele>1719.9399410000001</ele>
        <time>2014-10-18T09:21:45Z</time>
      </trkpt>
      <trkpt lat="46.366141503676772" lon="8.688641432672739">
        <ele>1719.9399410000001</ele>
        <time>2014-10-18T09:22:08Z</time>
      </trkpt>
      <trkpt lat="46.365962298586965" lon="8.688572281971574">
        <ele>1721.380005</ele>
        <time>2014-10-18T09:22:20Z</time>
      </trkpt>
      <trkpt lat="46.365871606394649" lon="8.688635230064392">
        <ele>1722.339966</ele>
        <time>2014-10-18T09:22:49Z</time>
      </trkpt>
      <trkpt lat="46.366052990779281" lon="8.688608994707465">
        <ele>1719.459961</ele>
        <time>2014-10-18T09:24:32Z</time>
      </trkpt>
      <trkpt lat="46.366142928600311" lon="8.68851151317358">
        <ele>1719.459961</ele>
        <time>2014-10-18T09:24:53Z</time>
      </trkpt>
      <trkpt lat="46.366052320227027" lon="8.688574293628335">
        <ele>1719.9399410000001</ele>
        <time>2014-10-18T09:24:54Z</time>
      </trkpt>
      <trkpt lat="46.366007979959249" lon="8.688508328050375">
        <ele>1719.459961</ele>
        <time>2014-10-18T09:25:12Z</time>
      </trkpt>
      <trkpt lat="46.365873115137219" lon="8.688505226746202">
        <ele>1719.459961</ele>
        <time>2014-10-18T09:25:18Z</time>
      </trkpt>
      <trkpt lat="46.365872360765934" lon="8.688570186495781">
        <ele>1719.459961</ele>
        <time>2014-10-18T09:25:33Z</time>
      </trkpt>
      <trkpt lat="46.366047207266092" lon="8.689029095694423">
        <ele>1718.9700929999999</ele>
        <time>2014-10-18T09:28:03Z</time>
      </trkpt>
      <trkpt lat="46.366260023787618" lon="8.688756013289094">
        <ele>1718.01001</ele>
        <time>2014-10-18T09:28:26Z</time>
      </trkpt>
      <trkpt lat="46.366258012130857" lon="8.688801024109125">
        <ele>1717.530029</ele>
        <time>2014-10-18T09:28:38Z</time>
      </trkpt>
      <trkpt lat="46.366291958838701" lon="8.688818039372563">
        <ele>1717.530029</ele>
        <time>2014-10-18T09:28:51Z</time>
      </trkpt>
      <trkpt lat="46.366307968273759" lon="8.68883497081697">
        <ele>1720.900024</ele>
        <time>2014-10-18T09:33:41Z</time>
      </trkpt>
      <trkpt lat="46.366303022950888" lon="8.688820973038673">
        <ele>1722.8199460000001</ele>
        <time>2014-10-18T09:37:15Z</time>
      </trkpt>
      <trkpt lat="46.366296987980604" lon="8.688805969431996">
        <ele>1722.8199460000001</ele>
        <time>2014-10-18T09:37:19Z</time>
      </trkpt>
      <trkpt lat="46.366195986047387" lon="8.688718965277076">
        <ele>1723.3000489999999</ele>
        <time>2014-10-18T09:37:37Z</time>
      </trkpt>
      <trkpt lat="46.366079980507493" lon="8.688738998025656">
        <ele>1724.26001</ele>
        <time>2014-10-18T09:37:50Z</time>
      </trkpt>
      <trkpt lat="46.366016026586294" lon="8.688775040209293">
        <ele>1724.73999</ele>
        <time>2014-10-18T09:38:10Z</time>
      </trkpt>
      <trkpt lat="46.365989958867431" lon="8.688773028552532">
        <ele>1724.26001</ele>
        <time>2014-10-18T09:38:27Z</time>
      </trkpt>
      <trkpt lat="46.365907983854413" lon="8.688756013289094">
        <ele>1724.26001</ele>
        <time>2014-10-18T09:39:08Z</time>
      </trkpt>
      <trkpt lat="46.365898009389639" lon="8.688746960833669">
        <ele>1723.780029</ele>
        <time>2014-10-18T09:39:37Z</time>
      </trkpt>
      <trkpt lat="46.365777980536222" lon="8.688697004690766">
        <ele>1722.8199460000001</ele>
        <time>2014-10-18T09:39:52Z</time>
      </trkpt>
      <trkpt lat="46.365692988038063" lon="8.688680995255709">
        <ele>1723.3000489999999</ele>
        <time>2014-10-18T09:40:01Z</time>
      </trkpt>
      <trkpt lat="46.365660969167948" lon="8.688713014125824">
        <ele>1723.780029</ele>
        <time>2014-10-18T09:40:18Z</time>
      </trkpt>
      <trkpt lat="46.365625010803342" lon="8.688703961670399">
        <ele>1723.3000489999999</ele>
        <time>2014-10-18T09:40:33Z</time>
      </trkpt>
      <trkpt lat="46.365530965849757" lon="8.68868401274085">
        <ele>1721.380005</ele>
        <time>2014-10-18T09:41:13Z</time>
      </trkpt>
      <trkpt lat="46.365475980564952" lon="8.688668003305793">
        <ele>1718.9700929999999</ele>
        <time>2014-10-18T09:41:32Z</time>
      </trkpt>
      <trkpt lat="46.365411020815372" lon="8.68872701190412">
        <ele>1717.530029</ele>
        <time>2014-10-18T09:41:51Z</time>
      </trkpt>
      <trkpt lat="46.365342037752271" lon="8.688805969431996">
        <ele>1716.089966</ele>
        <time>2014-10-18T09:42:12Z</time>
      </trkpt>
      <trkpt lat="46.365315970033407" lon="8.688827008008957">
        <ele>1715.6099850000001</ele>
        <time>2014-10-18T09:42:16Z</time>
      </trkpt>
      <trkpt lat="46.365197030827403" lon="8.688900014385581">
        <ele>1713.6899410000001</ele>
        <time>2014-10-18T09:42:35Z</time>
      </trkpt>
      <trkpt lat="46.365115977823734" lon="8.688974026590586">
        <ele>1711.7601320000001</ele>
        <time>2014-10-18T09:42:53Z</time>
      </trkpt>
      <trkpt lat="46.365079013630748" lon="8.689003027975559">
        <ele>1710.799927</ele>
        <time>2014-10-18T09:43:05Z</time>
      </trkpt>
      <trkpt lat="46.365057975053787" lon="8.689034963026643">
        <ele>1709.360107</ele>
        <time>2014-10-18T09:43:18Z</time>
      </trkpt>
      <trkpt lat="46.365009024739265" lon="8.689076034352183">
        <ele>1707.440063</ele>
        <time>2014-10-18T09:43:32Z</time>
      </trkpt>
      <trkpt lat="46.364983040839434" lon="8.689096989110112">
        <ele>1706.4799800000001</ele>
        <time>2014-10-18T09:43:42Z</time>
      </trkpt>
      <trkpt lat="46.364962002262473" lon="8.68913403712213">
        <ele>1706</ele>
        <time>2014-10-18T09:44:09Z</time>
      </trkpt>
      <trkpt lat="46.36491104029119" lon="8.6891770362854">
        <ele>1704.549927</ele>
        <time>2014-10-18T09:44:25Z</time>
      </trkpt>
      <trkpt lat="46.364866029471159" lon="8.689247025176883">
        <ele>1702.630005</ele>
        <time>2014-10-18T09:44:37Z</time>
      </trkpt>
      <trkpt lat="46.36480500921607" lon="8.689338974654675">
        <ele>1701.669922</ele>
        <time>2014-10-18T09:44:50Z</time>
      </trkpt>
      <trkpt lat="46.364795034751296" lon="8.689395971596241">
        <ele>1701.190063</ele>
        <time>2014-10-18T09:44:55Z</time>
      </trkpt>
      <trkpt lat="46.364756980910897" lon="8.689545001834631">
        <ele>1700.7100829999999</ele>
        <time>2014-10-18T09:45:11Z</time>
      </trkpt>
      <trkpt lat="46.364724962040782" lon="8.689638040959835">
        <ele>1700.7100829999999</ele>
        <time>2014-10-18T09:45:42Z</time>
      </trkpt>
      <trkpt lat="46.364682968705893" lon="8.689710963517427">
        <ele>1698.3100589999999</ele>
        <time>2014-10-18T09:45:56Z</time>
      </trkpt>
      <trkpt lat="46.364678023383021" lon="8.689730996266007">
        <ele>1697.339966</ele>
        <time>2014-10-18T09:46:22Z</time>
      </trkpt>
      <trkpt lat="46.364621026441455" lon="8.689786987379193">
        <ele>1695.900024</ele>
        <time>2014-10-18T09:46:46Z</time>
      </trkpt>
      <trkpt lat="46.36456604115665" lon="8.689823029562831">
        <ele>1694.9399410000001</ele>
        <time>2014-10-18T09:46:58Z</time>
      </trkpt>
      <trkpt lat="46.364511977881193" lon="8.689837027341127">
        <ele>1692.5399170000001</ele>
        <time>2014-10-18T09:47:14Z</time>
      </trkpt>
      <trkpt lat="46.364450035616755" lon="8.689888995140791">
        <ele>1690.1400149999999</ele>
        <time>2014-10-18T09:47:30Z</time>
      </trkpt>
      <trkpt lat="46.364385997876525" lon="8.690003994852305">
        <ele>1690.1400149999999</ele>
        <time>2014-10-18T09:47:43Z</time>
      </trkpt>
      <trkpt lat="46.364368982613087" lon="8.690090999007225">
        <ele>1689.170044</ele>
        <time>2014-10-18T09:47:57Z</time>
      </trkpt>
      <trkpt lat="46.364333024248481" lon="8.690155958756805">
        <ele>1687.7299800000001</ele>
        <time>2014-10-18T09:48:07Z</time>
      </trkpt>
      <trkpt lat="46.364292958751321" lon="8.69023097679019">
        <ele>1686.7700199999999</ele>
        <time>2014-10-18T09:48:16Z</time>
      </trkpt>
      <trkpt lat="46.364233028143644" lon="8.690351005643606">
        <ele>1685.329956</ele>
        <time>2014-10-18T09:48:30Z</time>
      </trkpt>
      <trkpt lat="46.364217018708587" lon="8.690385958179832">
        <ele>1684.849976</ele>
        <time>2014-10-18T09:48:33Z</time>
      </trkpt>
      <trkpt lat="46.36413998901844" lon="8.690503975376487">
        <ele>1686.2899170000001</ele>
        <time>2014-10-18T09:48:50Z</time>
      </trkpt>
      <trkpt lat="46.364109981805086" lon="8.690600031986833">
        <ele>1688.209961</ele>
        <time>2014-10-18T09:49:03Z</time>
      </trkpt>
      <trkpt lat="46.3640539906919" lon="8.690671026706696">
        <ele>1688.6899410000001</ele>
        <time>2014-10-18T09:49:14Z</time>
      </trkpt>
      <trkpt lat="46.363999005407095" lon="8.690772028639913">
        <ele>1689.650024</ele>
        <time>2014-10-18T09:49:29Z</time>
      </trkpt>
      <trkpt lat="46.363961035385728" lon="8.690856015309691">
        <ele>1690.1400149999999</ele>
        <time>2014-10-18T09:49:43Z</time>
      </trkpt>
      <trkpt lat="46.363904038444161" lon="8.690971015021205">
        <ele>1691.1000979999999</ele>
        <time>2014-10-18T09:49:59Z</time>
      </trkpt>
      <trkpt lat="46.363856010138988" lon="8.691030023619533">
        <ele>1692.059937</ele>
        <time>2014-10-18T09:50:10Z</time>
      </trkpt>
      <trkpt lat="46.363785015419126" lon="8.691077968105674">
        <ele>1693.0198969999999</ele>
        <time>2014-10-18T09:50:22Z</time>
      </trkpt>
      <trkpt lat="46.36373296380043" lon="8.691087020561099">
        <ele>1693.5</ele>
        <time>2014-10-18T09:50:35Z</time>
      </trkpt>
      <trkpt lat="46.363650988787413" lon="8.691162960603833">
        <ele>1694.9399410000001</ele>
        <time>2014-10-18T09:51:09Z</time>
      </trkpt>
      <trkpt lat="46.363584017381072" lon="8.691250970587134">
        <ele>1695.419922</ele>
        <time>2014-10-18T09:51:22Z</time>
      </trkpt>
      <trkpt lat="46.363520985469222" lon="8.691308973357081">
        <ele>1694.459961</ele>
        <time>2014-10-18T09:51:35Z</time>
      </trkpt>
      <trkpt lat="46.363497013226151" lon="8.691362030804157">
        <ele>1694.459961</ele>
        <time>2014-10-18T09:51:39Z</time>
      </trkpt>
      <trkpt lat="46.363441022112966" lon="8.691546013578773">
        <ele>1696.380005</ele>
        <time>2014-10-18T09:51:57Z</time>
      </trkpt>
      <trkpt lat="46.363347982987761" lon="8.691611979156733">
        <ele>1696.380005</ele>
        <time>2014-10-18T09:52:13Z</time>
      </trkpt>
      <trkpt lat="46.36330297216773" lon="8.691594041883946">
        <ele>1696.380005</ele>
        <time>2014-10-18T09:52:17Z</time>
      </trkpt>
      <trkpt lat="46.363211022689939" lon="8.691565040498972">
        <ele>1695.419922</ele>
        <time>2014-10-18T09:52:35Z</time>
      </trkpt>
      <trkpt lat="46.36315100826323" lon="8.691593036055565">
        <ele>1694.9399410000001</ele>
        <time>2014-10-18T09:52:49Z</time>
      </trkpt>
      <trkpt lat="46.363061992451549" lon="8.69158498942852">
        <ele>1696.380005</ele>
        <time>2014-10-18T09:53:02Z</time>
      </trkpt>
      <trkpt lat="46.362992003560066" lon="8.691646009683609">
        <ele>1697.830078</ele>
        <time>2014-10-18T09:53:17Z</time>
      </trkpt>
      <trkpt lat="46.362922014668584" lon="8.691635029390454">
        <ele>1696.8599850000001</ele>
        <time>2014-10-18T09:53:30Z</time>
      </trkpt>
      <trkpt lat="46.362878009676933" lon="8.691630000248551">
        <ele>1696.8599850000001</ele>
        <time>2014-10-18T09:53:37Z</time>
      </trkpt>
      <trkpt lat="46.362784970551729" lon="8.691674005240202">
        <ele>1694.459961</ele>
        <time>2014-10-18T09:53:52Z</time>
      </trkpt>
      <trkpt lat="46.362766027450562" lon="8.691692026332021">
        <ele>1693.9799800000001</ele>
        <time>2014-10-18T09:54:07Z</time>
      </trkpt>
      <trkpt lat="46.362722022458911" lon="8.691694037988782">
        <ele>1693.5</ele>
        <time>2014-10-18T09:54:29Z</time>
      </trkpt>
      <trkpt lat="46.362687991932034" lon="8.691717004403472">
        <ele>1691.580078</ele>
        <time>2014-10-18T09:54:47Z</time>
      </trkpt>
      <trkpt lat="46.362640969455242" lon="8.691697977483273">
        <ele>1689.170044</ele>
        <time>2014-10-18T09:55:05Z</time>
      </trkpt>
      <trkpt lat="46.362611968070269" lon="8.691710969433188">
        <ele>1688.6899410000001</ele>
        <time>2014-10-18T09:55:25Z</time>
      </trkpt>
      <trkpt lat="46.362551031634212" lon="8.691743994131684">
        <ele>1688.6899410000001</ele>
        <time>2014-10-18T09:55:51Z</time>
      </trkpt>
      <trkpt lat="46.362471990287304" lon="8.69171298108995">
        <ele>1689.170044</ele>
        <time>2014-10-18T09:56:05Z</time>
      </trkpt>
      <trkpt lat="46.36237702332437" lon="8.69166998192668">
        <ele>1689.170044</ele>
        <time>2014-10-18T09:56:18Z</time>
      </trkpt>
      <trkpt lat="46.362302005290985" lon="8.691665036603808">
        <ele>1688.209961</ele>
        <time>2014-10-18T09:56:26Z</time>
      </trkpt>
      <trkpt lat="46.362223969772458" lon="8.691686997190118">
        <ele>1688.6899410000001</ele>
        <time>2014-10-18T09:56:37Z</time>
      </trkpt>
      <trkpt lat="46.362136965617537" lon="8.69171298108995">
        <ele>1686.7700199999999</ele>
        <time>2014-10-18T09:56:53Z</time>
      </trkpt>
      <trkpt lat="46.362103018909693" lon="8.691723961383104">
        <ele>1686.2899170000001</ele>
        <time>2014-10-18T09:57:12Z</time>
      </trkpt>
      <trkpt lat="46.362041998654604" lon="8.691641986370087">
        <ele>1687.7299800000001</ele>
        <time>2014-10-18T09:57:28Z</time>
      </trkpt>
      <trkpt lat="46.362010985612869" lon="8.691473007202148">
        <ele>1688.209961</ele>
        <time>2014-10-18T09:57:45Z</time>
      </trkpt>
      <trkpt lat="46.36194996535778" lon="8.691417016088963">
        <ele>1688.209961</ele>
        <time>2014-10-18T09:58:01Z</time>
      </trkpt>
      <trkpt lat="46.361977960914373" lon="8.691302016377449">
        <ele>1687.7299800000001</ele>
        <time>2014-10-18T09:58:17Z</time>
      </trkpt>
      <trkpt lat="46.361972009763122" lon="8.691226998344064">
        <ele>1687.25</ele>
        <time>2014-10-18T09:58:47Z</time>
      </trkpt>
      <trkpt lat="46.361974021419883" lon="8.691188022494316">
        <ele>1687.25</ele>
        <time>2014-10-18T09:59:01Z</time>
      </trkpt>
      <trkpt lat="46.361918030306697" lon="8.69119799695909">
        <ele>1686.7700199999999</ele>
        <time>2014-10-18T09:59:14Z</time>
      </trkpt>
      <trkpt lat="46.361960023641586" lon="8.691208977252245">
        <ele>1687.25</ele>
        <time>2014-10-18T09:59:54Z</time>
      </trkpt>
      <trkpt lat="46.362005034461617" lon="8.691281983628869">
        <ele>1687.25</ele>
        <time>2014-10-18T10:00:07Z</time>
      </trkpt>
      <trkpt lat="46.362049961462617" lon="8.691272009164095">
        <ele>1687.25</ele>
        <time>2014-10-18T10:00:19Z</time>
      </trkpt>
      <trkpt lat="46.362051973119378" lon="8.691277960315347">
        <ele>1687.7299800000001</ele>
        <time>2014-10-18T10:01:26Z</time>
      </trkpt>
      <trkpt lat="46.362061025574803" lon="8.691332023590803">
        <ele>1687.7299800000001</ele>
        <time>2014-10-18T10:03:15Z</time>
      </trkpt>
      <trkpt lat="46.362082986161113" lon="8.691462026908994">
        <ele>1688.209961</ele>
        <time>2014-10-18T10:03:31Z</time>
      </trkpt>
      <trkpt lat="46.36209798976779" lon="8.691580966114998">
        <ele>1687.7299800000001</ele>
        <time>2014-10-18T10:03:49Z</time>
      </trkpt>
      <trkpt lat="46.362130008637905" lon="8.691651960834861">
        <ele>1687.25</ele>
        <time>2014-10-18T10:04:04Z</time>
      </trkpt>
      <trkpt lat="46.362233022227883" lon="8.691731002181768">
        <ele>1689.650024</ele>
        <time>2014-10-18T10:04:23Z</time>
      </trkpt>
      <trkpt lat="46.362277027219534" lon="8.691744999960065">
        <ele>1689.650024</ele>
        <time>2014-10-18T10:04:31Z</time>
      </trkpt>
      <trkpt lat="46.362404013052583" lon="8.691682973876596">
        <ele>1690.1400149999999</ele>
        <time>2014-10-18T10:04:49Z</time>
      </trkpt>
      <trkpt lat="46.362440977245569" lon="8.691706024110317">
        <ele>1690.6198730000001</ele>
        <time>2014-10-18T10:05:04Z</time>
      </trkpt>
      <trkpt lat="46.362487999722362" lon="8.691746005788446">
        <ele>1690.6198730000001</ele>
        <time>2014-10-18T10:05:19Z</time>
      </trkpt>
      <trkpt lat="46.362579027190804" lon="8.691706024110317">
        <ele>1690.1400149999999</ele>
        <time>2014-10-18T10:05:33Z</time>
      </trkpt>
      <trkpt lat="46.362653961405158" lon="8.691689008846879">
        <ele>1692.5399170000001</ele>
        <time>2014-10-18T10:05:49Z</time>
      </trkpt>
      <trkpt lat="46.362683968618512" lon="8.691715998575091">
        <ele>1693.9799800000001</ele>
        <time>2014-10-18T10:06:11Z</time>
      </trkpt>
      <trkpt lat="46.362741971388459" lon="8.691708035767078">
        <ele>1695.419922</ele>
        <time>2014-10-18T10:06:28Z</time>
      </trkpt>
      <trkpt lat="46.362769966945052" lon="8.691694959998131">
        <ele>1696.8599850000001</ele>
        <time>2014-10-18T10:06:42Z</time>
      </trkpt>
      <trkpt lat="46.362858982756734" lon="8.691666964441538">
        <ele>1698.3100589999999</ele>
        <time>2014-10-18T10:06:56Z</time>
      </trkpt>
      <trkpt lat="46.36291204020381" lon="8.691692026332021">
        <ele>1699.2700199999999</ele>
        <time>2014-10-18T10:07:10Z</time>
      </trkpt>
      <trkpt lat="46.363019999116659" lon="8.691704012453556">
        <ele>1699.75</ele>
        <time>2014-10-18T10:07:45Z</time>
      </trkpt>
      <trkpt lat="46.363111026585102" lon="8.691633017733693">
        <ele>1698.3100589999999</ele>
        <time>2014-10-18T10:08:00Z</time>
      </trkpt>
      <trkpt lat="46.363171963021159" lon="8.691628994420171">
        <ele>1696.8599850000001</ele>
        <time>2014-10-18T10:08:21Z</time>
      </trkpt>
      <trkpt lat="46.363228037953377" lon="8.691667970269918">
        <ele>1697.339966</ele>
        <time>2014-10-18T10:08:38Z</time>
      </trkpt>
      <trkpt lat="46.36325603350997" lon="8.691682973876596">
        <ele>1697.830078</ele>
        <time>2014-10-18T10:08:47Z</time>
      </trkpt>
      <trkpt lat="46.363338008522987" lon="8.691720021888614">
        <ele>1698.790039</ele>
        <time>2014-10-18T10:09:01Z</time>
      </trkpt>
      <trkpt lat="46.363372039049864" lon="8.69166998192668">
        <ele>1698.3100589999999</ele>
        <time>2014-10-18T10:09:11Z</time>
      </trkpt>
      <trkpt lat="46.36338897049427" lon="8.691656989976764">
        <ele>1698.3100589999999</ele>
        <time>2014-10-18T10:09:13Z</time>
      </trkpt>
      <trkpt lat="46.363434987142682" lon="8.691559005528688">
        <ele>1698.790039</ele>
        <time>2014-10-18T10:09:25Z</time>
      </trkpt>
      <trkpt lat="46.36347102932632" lon="8.69141198694706">
        <ele>1696.8599850000001</ele>
        <time>2014-10-18T10:09:40Z</time>
      </trkpt>
      <trkpt lat="46.363539006561041" lon="8.691316014155746">
        <ele>1696.380005</ele>
        <time>2014-10-18T10:09:53Z</time>
      </trkpt>
      <trkpt lat="46.363639002665877" lon="8.691262034699321">
        <ele>1697.339966</ele>
        <time>2014-10-18T10:10:09Z</time>
      </trkpt>
      <trkpt lat="46.363671021535993" lon="8.691179975867271">
        <ele>1697.339966</ele>
        <time>2014-10-18T10:10:20Z</time>
      </trkpt>
      <trkpt lat="46.363723995164037" lon="8.691129013895989">
        <ele>1696.380005</ele>
        <time>2014-10-18T10:10:32Z</time>
      </trkpt>
      <trkpt lat="46.363806976005435" lon="8.691076962277293">
        <ele>1695.419922</ele>
        <time>2014-10-18T10:10:44Z</time>
      </trkpt>
      <trkpt lat="46.363890962675214" lon="8.691035974770784">
        <ele>1694.459961</ele>
        <time>2014-10-18T10:11:00Z</time>
      </trkpt>
      <trkpt lat="46.363957012072206" lon="8.690971015021205">
        <ele>1693.5</ele>
        <time>2014-10-18T10:11:13Z</time>
      </trkpt>
      <trkpt lat="46.363996993750334" lon="8.69087303057313">
        <ele>1693.0198969999999</ele>
        <time>2014-10-18T10:11:26Z</time>
      </trkpt>
      <trkpt lat="46.364062037318945" lon="8.690837994217873">
        <ele>1693.0198969999999</ele>
        <time>2014-10-18T10:11:32Z</time>
      </trkpt>
      <trkpt lat="46.364082992076874" lon="8.690761970356107">
        <ele>1691.580078</ele>
        <time>2014-10-18T10:11:42Z</time>
      </trkpt>
      <trkpt lat="46.364043010398746" lon="8.690751995891333">
        <ele>1691.580078</ele>
        <time>2014-10-18T10:11:50Z</time>
      </trkpt>
      <trkpt lat="46.364004034548998" lon="8.690737998113036">
        <ele>1691.580078</ele>
        <time>2014-10-18T10:11:54Z</time>
      </trkpt>
      <trkpt lat="46.364038987085223" lon="8.690756019204855">
        <ele>1691.1000979999999</ele>
        <time>2014-10-18T10:12:09Z</time>
      </trkpt>
      <trkpt lat="46.364054996520281" lon="8.690750990062952">
        <ele>1691.1000979999999</ele>
        <time>2014-10-18T10:12:12Z</time>
      </trkpt>
      <trkpt lat="46.364153986796737" lon="8.690707990899682">
        <ele>1691.1000979999999</ele>
        <time>2014-10-18T10:12:18Z</time>
      </trkpt>
      <trkpt lat="46.364177959039807" lon="8.690662980079651">
        <ele>1691.1000979999999</ele>
        <time>2014-10-18T10:12:22Z</time>
      </trkpt>
      <trkpt lat="46.364206960424781" lon="8.690644958987832">
        <ele>1691.1000979999999</ele>
        <time>2014-10-18T10:12:25Z</time>
      </trkpt>
      <trkpt lat="46.364200003445148" lon="8.690513027831912">
        <ele>1688.6899410000001</ele>
        <time>2014-10-18T10:12:40Z</time>
      </trkpt>
      <trkpt lat="46.364230010658503" lon="8.690417977049947">
        <ele>1687.25</ele>
        <time>2014-10-18T10:12:50Z</time>
      </trkpt>
      <trkpt lat="46.364301005378366" lon="8.690303983166814">
        <ele>1688.6899410000001</ele>
        <time>2014-10-18T10:13:02Z</time>
      </trkpt>
      <trkpt lat="46.364347022026777" lon="8.690224019810557">
        <ele>1689.650024</ele>
        <time>2014-10-18T10:13:13Z</time>
      </trkpt>
      <trkpt lat="46.364365965127945" lon="8.690150007605553">
        <ele>1690.6198730000001</ele>
        <time>2014-10-18T10:13:20Z</time>
      </trkpt>
      <trkpt lat="46.364433020353317" lon="8.690072977915406">
        <ele>1692.5399170000001</ele>
        <time>2014-10-18T10:13:36Z</time>
      </trkpt>
      <trkpt lat="46.364435032010078" lon="8.689991002902389">
        <ele>1693.5</ele>
        <time>2014-10-18T10:13:45Z</time>
      </trkpt>
      <trkpt lat="46.364344004541636" lon="8.689836021512747">
        <ele>1693.0198969999999</ele>
        <time>2014-10-18T10:13:57Z</time>
      </trkpt>
      <trkpt lat="46.364421034231782" lon="8.689845995977521">
        <ele>1693.5</ele>
        <time>2014-10-18T10:14:09Z</time>
      </trkpt>
      <trkpt lat="46.364542990922928" lon="8.689854964613915">
        <ele>1695.419922</ele>
        <time>2014-10-18T10:14:22Z</time>
      </trkpt>
      <trkpt lat="46.364623960107565" lon="8.689824035391212">
        <ele>1698.3100589999999</ele>
        <time>2014-10-18T10:14:39Z</time>
      </trkpt>
      <trkpt lat="46.364637035876513" lon="8.689819006249309">
        <ele>1698.790039</ele>
        <time>2014-10-18T10:14:41Z</time>
      </trkpt>
      <trkpt lat="46.364705013111234" lon="8.689818000420928">
        <ele>1699.75</ele>
        <time>2014-10-18T10:14:53Z</time>
      </trkpt>
      <trkpt lat="46.364720016717911" lon="8.689743988215923">
        <ele>1700.7100829999999</ele>
        <time>2014-10-18T10:15:03Z</time>
      </trkpt>
      <trkpt lat="46.364735020324588" lon="8.689724961295724">
        <ele>1700.7100829999999</ele>
        <time>2014-10-18T10:15:12Z</time>
      </trkpt>
      <trkpt lat="46.364735020324588" lon="8.689727978780866">
        <ele>1702.630005</ele>
        <time>2014-10-18T10:15:22Z</time>
      </trkpt>
      <trkpt lat="46.364808026701212" lon="8.689661007374525">
        <ele>1704.0699460000001</ele>
        <time>2014-10-18T10:15:35Z</time>
      </trkpt>
      <trkpt lat="46.364806015044451" lon="8.689642986282706">
        <ele>1704.0699460000001</ele>
        <time>2014-10-18T10:15:48Z</time>
      </trkpt>
      <trkpt lat="46.364868963137269" lon="8.689545001834631">
        <ele>1705.5200199999999</ele>
        <time>2014-10-18T10:15:59Z</time>
      </trkpt>
      <trkpt lat="46.364879021421075" lon="8.689528992399573">
        <ele>1705.5200199999999</ele>
        <time>2014-10-18T10:16:01Z</time>
      </trkpt>
      <trkpt lat="46.36489100754261" lon="8.689451040700078">
        <ele>1706</ele>
        <time>2014-10-18T10:16:08Z</time>
      </trkpt>
      <trkpt lat="46.36495403945446" lon="8.689368981868029">
        <ele>1706.4799800000001</ele>
        <time>2014-10-18T10:16:20Z</time>
      </trkpt>
      <trkpt lat="46.364997960627079" lon="8.689316008239985">
        <ele>1707.440063</ele>
        <time>2014-10-18T10:16:36Z</time>
      </trkpt>
      <trkpt lat="46.365054035559297" lon="8.689195979386568">
        <ele>1709.8400879999999</ele>
        <time>2014-10-18T10:16:54Z</time>
      </trkpt>
      <trkpt lat="46.36504196561873" lon="8.689147029072046">
        <ele>1711.2799070000001</ele>
        <time>2014-10-18T10:17:05Z</time>
      </trkpt>
      <trkpt lat="46.365084964782" lon="8.68909296579659">
        <ele>1714.170044</ele>
        <time>2014-10-18T10:17:31Z</time>
      </trkpt>
      <trkpt lat="46.365137016400695" lon="8.68904996663332">
        <ele>1716.089966</ele>
        <time>2014-10-18T10:17:42Z</time>
      </trkpt>
      <trkpt lat="46.365180015563965" lon="8.68900696747005">
        <ele>1717.530029</ele>
        <time>2014-10-18T10:17:53Z</time>
      </trkpt>
      <trkpt lat="46.36521203443408" lon="8.688953993842006">
        <ele>1718.9700929999999</ele>
        <time>2014-10-18T10:18:07Z</time>
      </trkpt>
      <trkpt lat="46.365279005840421" lon="8.688908983021975">
        <ele>1720.419922</ele>
        <time>2014-10-18T10:18:19Z</time>
      </trkpt>
      <trkpt lat="46.365337008610368" lon="8.68883497081697">
        <ele>1720.900024</ele>
        <time>2014-10-18T10:18:27Z</time>
      </trkpt>
      <trkpt lat="46.365379001945257" lon="8.688778979703784">
        <ele>1721.380005</ele>
        <time>2014-10-18T10:18:39Z</time>
      </trkpt>
      <trkpt lat="46.365452008321881" lon="8.688695998862386">
        <ele>1723.3000489999999</ele>
        <time>2014-10-18T10:18:53Z</time>
      </trkpt>
      <trkpt lat="46.365504981949925" lon="8.688732963055372">
        <ele>1725.700073</ele>
        <time>2014-10-18T10:19:08Z</time>
      </trkpt>
      <trkpt lat="46.365590980276465" lon="8.688715025782585">
        <ele>1728.1099850000001</ele>
        <time>2014-10-18T10:19:24Z</time>
      </trkpt>
      <trkpt lat="46.365703968331218" lon="8.688702033832669">
        <ele>1729.549927</ele>
        <time>2014-10-18T10:19:42Z</time>
      </trkpt>
      <trkpt lat="46.365827014669776" lon="8.688751989975572">
        <ele>1730.030029</ele>
        <time>2014-10-18T10:19:59Z</time>
      </trkpt>
      <trkpt lat="46.365919969975948" lon="8.688801024109125">
        <ele>1730.51001</ele>
        <time>2014-10-18T10:20:15Z</time>
      </trkpt>
      <trkpt lat="46.366043016314507" lon="8.688795994967222">
        <ele>1732.4300539999999</ele>
        <time>2014-10-18T10:20:32Z</time>
      </trkpt>
      <trkpt lat="46.366082997992635" lon="8.688693987205625">
        <ele>1732.910034</ele>
        <time>2014-10-18T10:20:44Z</time>
      </trkpt>
      <trkpt lat="46.366076041013002" lon="8.68870303966105">
        <ele>1732.910034</ele>
        <time>2014-10-18T10:21:00Z</time>
      </trkpt>
      <trkpt lat="46.366067994385958" lon="8.688762970268726">
        <ele>1732.910034</ele>
        <time>2014-10-18T10:21:14Z</time>
      </trkpt>
      <trkpt lat="46.366055002436042" lon="8.688733968883753">
        <ele>1731.9499510000001</ele>
        <time>2014-10-18T10:21:34Z</time>
      </trkpt>
      <trkpt lat="46.366055002436042" lon="8.688732041046023">
        <ele>1731.9499510000001</ele>
        <time>2014-10-18T10:21:50Z</time>
      </trkpt>
      <trkpt lat="46.366077968850732" lon="8.688862966373563">
        <ele>1731.9499510000001</ele>
        <time>2014-10-18T10:21:59Z</time>
      </trkpt>
      <trkpt lat="46.366061959415674" lon="8.688874030485749">
        <ele>1731.9499510000001</ele>
        <time>2014-10-18T10:22:16Z</time>
      </trkpt>
      <trkpt lat="46.366091966629028" lon="8.688863972201943">
        <ele>1731.9499510000001</ele>
        <time>2014-10-18T10:23:06Z</time>
      </trkpt>
      <trkpt lat="46.36611501686275" lon="8.688912000507116">
        <ele>1732.4300539999999</ele>
        <time>2014-10-18T10:23:20Z</time>
      </trkpt>
      <trkpt lat="46.366042010486126" lon="8.688896996900439">
        <ele>1731.9499510000001</ele>
        <time>2014-10-18T10:23:48Z</time>
      </trkpt>
      <trkpt lat="46.366032036021352" lon="8.688859026879072">
        <ele>1731.9499510000001</ele>
        <time>2014-10-18T10:24:16Z</time>
      </trkpt>
      <trkpt lat="46.366046033799648" lon="8.688865983858705">
        <ele>1731.9499510000001</ele>
        <time>2014-10-18T10:24:52Z</time>
      </trkpt>
      <trkpt lat="46.366056008264422" lon="8.688900014385581">
        <ele>1731.9499510000001</ele>
        <time>2014-10-18T10:25:28Z</time>
      </trkpt>
      <trkpt lat="46.366046033799648" lon="8.688781997188926">
        <ele>1731.9499510000001</ele>
        <time>2014-10-18T10:28:11Z</time>
      </trkpt>
      <trkpt lat="46.366021977737546" lon="8.688707984983921">
        <ele>1731.9499510000001</ele>
        <time>2014-10-18T10:33:00Z</time>
      </trkpt>
      <trkpt lat="46.366020971909165" lon="8.688716031610966">
        <ele>1731.9499510000001</ele>
        <time>2014-10-18T10:34:32Z</time>
      </trkpt>
      <trkpt lat="46.366001022979617" lon="8.688691975548863">
        <ele>1731.9499510000001</ele>
        <time>2014-10-18T10:35:34Z</time>
      </trkpt>
      <trkpt lat="46.365956012159586" lon="8.688755007460713">
        <ele>1731.9499510000001</ele>
        <time>2014-10-18T10:36:28Z</time>
      </trkpt>
      <trkpt lat="46.365927010774612" lon="8.688814016059041">
        <ele>1732.4300539999999</ele>
        <time>2014-10-18T10:37:08Z</time>
      </trkpt>
      <trkpt lat="46.36600898578763" lon="8.6888990085572">
        <ele>1732.4300539999999</ele>
        <time>2014-10-18T10:40:53Z</time>
      </trkpt>
      <trkpt lat="46.366032036021352" lon="8.688830025494099">
        <ele>1731.9499510000001</ele>
        <time>2014-10-18T10:41:49Z</time>
      </trkpt>
      <trkpt lat="46.365952994674444" lon="8.688743021339178">
        <ele>1731.9499510000001</ele>
        <time>2014-10-18T10:42:17Z</time>
      </trkpt>
      <trkpt lat="46.365962969139218" lon="8.688731035217643">
        <ele>1732.4300539999999</ele>
        <time>2014-10-18T10:43:11Z</time>
      </trkpt>
      <trkpt lat="46.365928016602993" lon="8.688686024397612">
        <ele>1731.9499510000001</ele>
        <time>2014-10-18T10:44:01Z</time>
      </trkpt>
      <trkpt lat="46.365981996059418" lon="8.688655011355877">
        <ele>1732.4300539999999</ele>
        <time>2014-10-18T10:46:31Z</time>
      </trkpt>
      <trkpt lat="46.365984007716179" lon="8.68866004049778">
        <ele>1732.910034</ele>
        <time>2014-10-18T10:46:55Z</time>
      </trkpt>
      <trkpt lat="46.36611501686275" lon="8.688900014385581">
        <ele>1734.8400879999999</ele>
        <time>2014-10-18T10:51:58Z</time>
      </trkpt>
      <trkpt lat="46.366058019921184" lon="8.688864978030324">
        <ele>1734.8400879999999</ele>
        <time>2014-10-18T10:52:18Z</time>
      </trkpt>
      <trkpt lat="46.365976966917515" lon="8.688843017444015">
        <ele>1735.320068</ele>
        <time>2014-10-18T10:54:25Z</time>
      </trkpt>
      <trkpt lat="46.365961041301489" lon="8.688841005787253">
        <ele>1735.320068</ele>
        <time>2014-10-18T10:54:42Z</time>
      </trkpt>
      <trkpt lat="46.366047039628029" lon="8.688915017992258">
        <ele>1734.8400879999999</ele>
        <time>2014-10-18T10:55:02Z</time>
      </trkpt>
      <trkpt lat="46.365999011322856" lon="8.688818961381912">
        <ele>1735.320068</ele>
        <time>2014-10-18T10:58:07Z</time>
      </trkpt>
      <trkpt lat="46.366023989394307" lon="8.688831031322479">
        <ele>1735.320068</ele>
        <time>2014-10-18T10:58:30Z</time>
      </trkpt>
      <trkpt lat="46.366036981344223" lon="8.68885600939393">
        <ele>1735.320068</ele>
        <time>2014-10-18T10:58:42Z</time>
      </trkpt>
      <trkpt lat="46.366088027134538" lon="8.688907977193594">
        <ele>1735.320068</ele>
        <time>2014-10-18T10:58:55Z</time>
      </trkpt>
      <trkpt lat="46.366024995222688" lon="8.688949970528483">
        <ele>1735.799927</ele>
        <time>2014-10-18T11:01:30Z</time>
      </trkpt>
      <trkpt lat="46.36602901853621" lon="8.688933039084077">
        <ele>1735.320068</ele>
        <time>2014-10-18T11:01:54Z</time>
      </trkpt>
      <trkpt lat="46.366026001051068" lon="8.688932033255696">
        <ele>1735.320068</ele>
        <time>2014-10-18T11:02:38Z</time>
      </trkpt>
      <trkpt lat="46.366018038243055" lon="8.688890961930156">
        <ele>1735.799927</ele>
        <time>2014-10-18T11:03:06Z</time>
      </trkpt>
      <trkpt lat="46.366227082908154" lon="8.689033202826977">
        <ele>1735.799927</ele>
        <time>2014-10-18T11:13:03Z</time>
      </trkpt>
      <trkpt lat="46.366148041561246" lon="8.688990036025643">
        <ele>1736.2799070000001</ele>
        <time>2014-10-18T11:13:56Z</time>
      </trkpt>
      <trkpt lat="46.366015020757914" lon="8.688774034380913">
        <ele>1736.2799070000001</ele>
        <time>2014-10-18T11:14:22Z</time>
      </trkpt>
      <trkpt lat="46.366133959963918" lon="8.688903031870723">
        <ele>1737.719971</ele>
        <time>2014-10-18T11:21:36Z</time>
      </trkpt>
      <trkpt lat="46.366060031577945" lon="8.688973020762205">
        <ele>1738.1999510000001</ele>
        <time>2014-10-18T11:23:03Z</time>
      </trkpt>
      <trkpt lat="46.365972021594644" lon="8.688951982185245">
        <ele>1737.719971</ele>
        <time>2014-10-18T11:23:39Z</time>
      </trkpt>
      <trkpt lat="46.365912007167935" lon="8.688938990235329">
        <ele>1737.719971</ele>
        <time>2014-10-18T11:24:42Z</time>
      </trkpt>
      <trkpt lat="46.365927010774612" lon="8.688881993293762">
        <ele>1741.079956</ele>
        <time>2014-10-18T11:28:23Z</time>
      </trkpt>
      <trkpt lat="46.366049973294139" lon="8.68887796998024">
        <ele>1743.9700929999999</ele>
        <time>2014-10-18T11:32:36Z</time>
      </trkpt>
      <trkpt lat="46.366088027134538" lon="8.688816027715802">
        <ele>1743.01001</ele>
        <time>2014-10-18T11:36:00Z</time>
      </trkpt>
      <trkpt lat="46.366098001599312" lon="8.688827008008957">
        <ele>1740.119995</ele>
        <time>2014-10-18T11:42:53Z</time>
      </trkpt>
      <trkpt lat="46.365988031029701" lon="8.688670014962554">
        <ele>1738.679932</ele>
        <time>2014-10-18T11:55:42Z</time>
      </trkpt>
      <trkpt lat="46.36607201769948" lon="8.688758024945855">
        <ele>1739.6400149999999</ele>
        <time>2014-10-18T11:57:49Z</time>
      </trkpt>
      <trkpt lat="46.366071011871099" lon="8.688686024397612">
        <ele>1739.6400149999999</ele>
        <time>2014-10-18T11:57:58Z</time>
      </trkpt>
      <trkpt lat="46.366098001599312" lon="8.688738998025656">
        <ele>1739.6400149999999</ele>
        <time>2014-10-18T11:58:21Z</time>
      </trkpt>
      <trkpt lat="46.366113005205989" lon="8.688732041046023">
        <ele>1739.6400149999999</ele>
        <time>2014-10-18T11:58:50Z</time>
      </trkpt>
      <trkpt lat="46.366145024076104" lon="8.688752995803952">
        <ele>1739.6400149999999</ele>
        <time>2014-10-18T11:59:48Z</time>
      </trkpt>
      <trkpt lat="46.366175031289458" lon="8.688722988590598">
        <ele>1739.6400149999999</ele>
        <time>2014-10-18T11:59:55Z</time>
      </trkpt>
      <trkpt lat="46.366210989654064" lon="8.688745032995939">
        <ele>1739.1599120000001</ele>
        <time>2014-10-18T11:59:58Z</time>
      </trkpt>
      <trkpt lat="46.366291036829352" lon="8.688788032159209">
        <ele>1738.679932</ele>
        <time>2014-10-18T12:00:08Z</time>
      </trkpt>
      <trkpt lat="46.366271004080772" lon="8.688903031870723">
        <ele>1739.1599120000001</ele>
        <time>2014-10-18T12:00:22Z</time>
      </trkpt>
      <trkpt lat="46.366278966888785" lon="8.688948964700103">
        <ele>1740.119995</ele>
        <time>2014-10-18T12:00:36Z</time>
      </trkpt>
      <trkpt lat="46.366282990202308" lon="8.688890961930156">
        <ele>1738.679932</ele>
        <time>2014-10-18T12:01:56Z</time>
      </trkpt>
      <trkpt lat="46.366296987980604" lon="8.688879981637001">
        <ele>1738.679932</ele>
        <time>2014-10-18T12:01:59Z</time>
      </trkpt>
      <trkpt lat="46.366319032385945" lon="8.688827008008957">
        <ele>1738.679932</ele>
        <time>2014-10-18T12:02:03Z</time>
      </trkpt>
      <trkpt lat="46.366355996578932" lon="8.688808986917138">
        <ele>1738.1999510000001</ele>
        <time>2014-10-18T12:02:09Z</time>
      </trkpt>
      <trkpt lat="46.366477031260729" lon="8.688858021050692">
        <ele>1738.1999510000001</ele>
        <time>2014-10-18T12:02:23Z</time>
      </trkpt>
      <trkpt lat="46.366562023758888" lon="8.688861960545182">
        <ele>1737.719971</ele>
        <time>2014-10-18T12:02:39Z</time>
      </trkpt>
      <trkpt lat="46.366620026528835" lon="8.6887919716537">
        <ele>1736.7601320000001</ele>
        <time>2014-10-18T12:03:12Z</time>
      </trkpt>
      <trkpt lat="46.366654979065061" lon="8.68866004049778">
        <ele>1734.360107</ele>
        <time>2014-10-18T12:03:26Z</time>
      </trkpt>
      <trkpt lat="46.366774002090096" lon="8.688691975548863">
        <ele>1732.4300539999999</ele>
        <time>2014-10-18T12:03:42Z</time>
      </trkpt>
      <trkpt lat="46.366895036771894" lon="8.68872701190412">
        <ele>1730.98999</ele>
        <time>2014-10-18T12:03:56Z</time>
      </trkpt>
      <trkpt lat="46.367015987634659" lon="8.688746960833669">
        <ele>1728.589966</ele>
        <time>2014-10-18T12:04:11Z</time>
      </trkpt>
      <trkpt lat="46.36710399761796" lon="8.688732963055372">
        <ele>1726.1800539999999</ele>
        <time>2014-10-18T12:04:24Z</time>
      </trkpt>
      <trkpt lat="46.367172980681062" lon="8.688773028552532">
        <ele>1724.26001</ele>
        <time>2014-10-18T12:04:36Z</time>
      </trkpt>
      <trkpt lat="46.367241041734815" lon="8.688836982473731">
        <ele>1722.339966</ele>
        <time>2014-10-18T12:04:47Z</time>
      </trkpt>
      <trkpt lat="46.367319999262691" lon="8.688931027427316">
        <ele>1720.419922</ele>
        <time>2014-10-18T12:05:01Z</time>
      </trkpt>
      <trkpt lat="46.367336008697748" lon="8.688948964700103">
        <ele>1719.9399410000001</ele>
        <time>2014-10-18T12:05:04Z</time>
      </trkpt>
      <trkpt lat="46.367407003417611" lon="8.689000010490418">
        <ele>1718.01001</ele>
        <time>2014-10-18T12:05:18Z</time>
      </trkpt>
      <trkpt lat="46.367440028116107" lon="8.68909397162497">
        <ele>1717.530029</ele>
        <time>2014-10-18T12:06:00Z</time>
      </trkpt>
      <trkpt lat="46.367445979267359" lon="8.689105035737157">
        <ele>1716.089966</ele>
        <time>2014-10-18T12:06:02Z</time>
      </trkpt>
      <trkpt lat="46.367501970380545" lon="8.689117021858692">
        <ele>1713.209961</ele>
        <time>2014-10-18T12:06:15Z</time>
      </trkpt>
      <trkpt lat="46.367546981200576" lon="8.689077040180564">
        <ele>1711.7601320000001</ele>
        <time>2014-10-18T12:06:28Z</time>
      </trkpt>
      <trkpt lat="46.367585035040975" lon="8.68900696747005">
        <ele>1709.360107</ele>
        <time>2014-10-18T12:06:42Z</time>
      </trkpt>
      <trkpt lat="46.367672961205244" lon="8.688975032418966">
        <ele>1707.440063</ele>
        <time>2014-10-18T12:06:53Z</time>
      </trkpt>
      <trkpt lat="46.367786033079028" lon="8.688927004113793">
        <ele>1704.549927</ele>
        <time>2014-10-18T12:07:10Z</time>
      </trkpt>
      <trkpt lat="46.367860967293382" lon="8.688870007172227">
        <ele>1701.669922</ele>
        <time>2014-10-18T12:07:24Z</time>
      </trkpt>
      <trkpt lat="46.36787798255682" lon="8.688788032159209">
        <ele>1698.790039</ele>
        <time>2014-10-18T12:07:41Z</time>
      </trkpt>
      <trkpt lat="46.367876976728439" lon="8.688694993034005">
        <ele>1695.900024</ele>
        <time>2014-10-18T12:07:55Z</time>
      </trkpt>
      <trkpt lat="46.36789902113378" lon="8.688650988042355">
        <ele>1693.5</ele>
        <time>2014-10-18T12:08:12Z</time>
      </trkpt>
      <trkpt lat="46.367913018912077" lon="8.688572030514479">
        <ele>1691.580078</ele>
        <time>2014-10-18T12:08:25Z</time>
      </trkpt>
      <trkpt lat="46.368033969774842" lon="8.688565995544195">
        <ele>1689.170044</ele>
        <time>2014-10-18T12:08:38Z</time>
      </trkpt>
      <trkpt lat="46.368077974766493" lon="8.688532970845699">
        <ele>1688.209961</ele>
        <time>2014-10-18T12:08:51Z</time>
      </trkpt>
      <trkpt lat="46.368091972544789" lon="8.688514027744532">
        <ele>1686.7700199999999</ele>
        <time>2014-10-18T12:08:53Z</time>
      </trkpt>
      <trkpt lat="46.368147963657975" lon="8.688453007489443">
        <ele>1683.8900149999999</ele>
        <time>2014-10-18T12:09:04Z</time>
      </trkpt>
      <trkpt lat="46.368213091045618" lon="8.688429119065404">
        <ele>1681.9600829999999</ele>
        <time>2014-10-18T12:09:16Z</time>
      </trkpt>
      <trkpt lat="46.368214515969157" lon="8.688299199566245">
        <ele>1678.599976</ele>
        <time>2014-10-18T12:09:36Z</time>
      </trkpt>
      <trkpt lat="46.3683089800179" lon="8.688247986137867">
        <ele>1675.719971</ele>
        <time>2014-10-18T12:09:54Z</time>
      </trkpt>
      <trkpt lat="46.36830504052341" lon="8.688204986974597">
        <ele>1673.790039</ele>
        <time>2014-10-18T12:10:10Z</time>
      </trkpt>
      <trkpt lat="46.3683280069381" lon="8.688172968104482">
        <ele>1672.830078</ele>
        <time>2014-10-18T12:10:27Z</time>
      </trkpt>
      <trkpt lat="46.3683089800179" lon="8.688213033601642">
        <ele>1672.830078</ele>
        <time>2014-10-18T12:11:23Z</time>
      </trkpt>
      <trkpt lat="46.368218790739775" lon="8.687909441068769">
        <ele>1670.910034</ele>
        <time>2014-10-18T12:12:06Z</time>
      </trkpt>
      <trkpt lat="46.368308728560805" lon="8.687911536544561">
        <ele>1668.0198969999999</ele>
        <time>2014-10-18T12:12:22Z</time>
      </trkpt>
      <trkpt lat="46.36835440993309" lon="8.687847498804331">
        <ele>1665.6198730000001</ele>
        <time>2014-10-18T12:12:42Z</time>
      </trkpt>
      <trkpt lat="46.36841400526464" lon="8.687867028638721">
        <ele>1662.73999</ele>
        <time>2014-10-18T12:12:58Z</time>
      </trkpt>
      <trkpt lat="46.368417022749782" lon="8.687796033918858">
        <ele>1659.369995</ele>
        <time>2014-10-18T12:13:15Z</time>
      </trkpt>
      <trkpt lat="46.368421968072653" lon="8.687811959534884">
        <ele>1656.490112</ele>
        <time>2014-10-18T12:13:30Z</time>
      </trkpt>
      <trkpt lat="46.368390033021569" lon="8.687763009220362">
        <ele>1655.0500489999999</ele>
        <time>2014-10-18T12:13:43Z</time>
      </trkpt>
      <trkpt lat="46.368396990001202" lon="8.687722021713853">
        <ele>1655.0500489999999</ele>
        <time>2014-10-18T12:14:13Z</time>
      </trkpt>
      <trkpt lat="46.368380980566144" lon="8.687602998688817">
        <ele>1653.599976</ele>
        <time>2014-10-18T12:14:36Z</time>
      </trkpt>
      <trkpt lat="46.368315014988184" lon="8.687556982040405">
        <ele>1651.679932</ele>
        <time>2014-10-18T12:14:55Z</time>
      </trkpt>
      <trkpt lat="46.368294982239604" lon="8.687552036717534">
        <ele>1651.679932</ele>
        <time>2014-10-18T12:14:57Z</time>
      </trkpt>
      <trkpt lat="46.368219964206219" lon="8.687542984262109">
        <ele>1650.23999</ele>
        <time>2014-10-18T12:15:07Z</time>
      </trkpt>
      <trkpt lat="46.368078980594873" lon="8.687546001747251">
        <ele>1647.8400879999999</ele>
        <time>2014-10-18T12:15:25Z</time>
      </trkpt>
      <trkpt lat="46.367988036945462" lon="8.687541978433728">
        <ele>1645.910034</ele>
        <time>2014-10-18T12:15:42Z</time>
      </trkpt>
      <trkpt lat="46.367923999205232" lon="8.687525968998671">
        <ele>1644.9499510000001</ele>
        <time>2014-10-18T12:15:57Z</time>
      </trkpt>
      <trkpt lat="46.367902960628271" lon="8.687448017299175">
        <ele>1642.549927</ele>
        <time>2014-10-18T12:16:18Z</time>
      </trkpt>
      <trkpt lat="46.367817968130112" lon="8.687396971508861">
        <ele>1641.589966</ele>
        <time>2014-10-18T12:17:46Z</time>
      </trkpt>
      <trkpt lat="46.36781201697886" lon="8.687391020357609">
        <ele>1639.1899410000001</ele>
        <time>2014-10-18T12:17:48Z</time>
      </trkpt>
      <trkpt lat="46.367743033915758" lon="8.687341986224055">
        <ele>1636.3000489999999</ele>
        <time>2014-10-18T12:18:03Z</time>
      </trkpt>
      <trkpt lat="46.367658963426948" lon="8.68730703368783">
        <ele>1633.419922</ele>
        <time>2014-10-18T12:18:19Z</time>
      </trkpt>
      <trkpt lat="46.367592997848988" lon="8.687215000391007">
        <ele>1631.490112</ele>
        <time>2014-10-18T12:18:33Z</time>
      </trkpt>
      <trkpt lat="46.367661980912089" lon="8.687204020097852">
        <ele>1628.130005</ele>
        <time>2014-10-18T12:18:49Z</time>
      </trkpt>
      <trkpt lat="46.3677270244807" lon="8.687195973470807">
        <ele>1625.25</ele>
        <time>2014-10-18T12:19:05Z</time>
      </trkpt>
      <trkpt lat="46.367732975631952" lon="8.687185999006033">
        <ele>1624.7700199999999</ele>
        <time>2014-10-18T12:19:26Z</time>
      </trkpt>
      <trkpt lat="46.367724006995559" lon="8.687209971249104">
        <ele>1624.7700199999999</ele>
        <time>2014-10-18T12:19:52Z</time>
      </trkpt>
      <trkpt lat="46.367801036685705" lon="8.687130007892847">
        <ele>1621.8798830000001</ele>
        <time>2014-10-18T12:20:08Z</time>
      </trkpt>
      <trkpt lat="46.367757031694055" lon="8.687065970152617">
        <ele>1619.9600829999999</ele>
        <time>2014-10-18T12:20:21Z</time>
      </trkpt>
      <trkpt lat="46.367686958983541" lon="8.687009979039431">
        <ele>1618.5200199999999</ele>
        <time>2014-10-18T12:20:37Z</time>
      </trkpt>
      <trkpt lat="46.367680002003908" lon="8.686971003189683">
        <ele>1618.040039</ele>
        <time>2014-10-18T12:20:58Z</time>
      </trkpt>
      <trkpt lat="46.367669021710753" lon="8.686959017068148">
        <ele>1618.040039</ele>
        <time>2014-10-18T12:22:08Z</time>
      </trkpt>
      <trkpt lat="46.367672961205244" lon="8.686928004026413">
        <ele>1616.1099850000001</ele>
        <time>2014-10-18T12:22:29Z</time>
      </trkpt>
      <trkpt lat="46.367728030309081" lon="8.686926998198032">
        <ele>1612.7498780000001</ele>
        <time>2014-10-18T12:22:45Z</time>
      </trkpt>
      <trkpt lat="46.367792990058661" lon="8.68694300763309">
        <ele>1612.2700199999999</ele>
        <time>2014-10-18T12:23:06Z</time>
      </trkpt>
      <trkpt lat="46.36779198423028" lon="8.686944013461471">
        <ele>1610.349976</ele>
        <time>2014-10-18T12:23:08Z</time>
      </trkpt>
      <trkpt lat="46.367840012535453" lon="8.686951976269484">
        <ele>1608.419922</ele>
        <time>2014-10-18T12:23:27Z</time>
      </trkpt>
      <trkpt lat="46.36794202029705" lon="8.68694300763309">
        <ele>1606.5</ele>
        <time>2014-10-18T12:23:42Z</time>
      </trkpt>
      <trkpt lat="46.367940008640289" lon="8.686934038996697">
        <ele>1605.5399170000001</ele>
        <time>2014-10-18T12:23:44Z</time>
      </trkpt>
      <trkpt lat="46.367989964783192" lon="8.686870001256466">
        <ele>1603.139893</ele>
        <time>2014-10-18T12:23:56Z</time>
      </trkpt>
      <trkpt lat="46.368017038330436" lon="8.686839994043112">
        <ele>1600.7299800000001</ele>
        <time>2014-10-18T12:24:12Z</time>
      </trkpt>
      <trkpt lat="46.368046039715409" lon="8.686866983771324">
        <ele>1599.290039</ele>
        <time>2014-10-18T12:24:28Z</time>
      </trkpt>
      <trkpt lat="46.368140000849962" lon="8.686839994043112">
        <ele>1597.369995</ele>
        <time>2014-10-18T12:24:42Z</time>
      </trkpt>
      <trkpt lat="46.368251983076334" lon="8.686773022636771">
        <ele>1595.4499510000001</ele>
        <time>2014-10-18T12:24:58Z</time>
      </trkpt>
      <trkpt lat="46.368386009708047" lon="8.686653999611735">
        <ele>1593.040039</ele>
        <time>2014-10-18T12:25:17Z</time>
      </trkpt>
      <trkpt lat="46.368468990549445" lon="8.686644025146961">
        <ele>1591.599976</ele>
        <time>2014-10-18T12:25:34Z</time>
      </trkpt>
      <trkpt lat="46.368493968620896" lon="8.686634972691536">
        <ele>1589.1999510000001</ele>
        <time>2014-10-18T12:25:49Z</time>
      </trkpt>
      <trkpt lat="46.368588013574481" lon="8.686674032360315">
        <ele>1587.7498780000001</ele>
        <time>2014-10-18T12:26:03Z</time>
      </trkpt>
      <trkpt lat="46.368702007457614" lon="8.686669003218412">
        <ele>1585.349976</ele>
        <time>2014-10-18T12:26:22Z</time>
      </trkpt>
      <trkpt lat="46.368761016055942" lon="8.686724994331598">
        <ele>1583.910034</ele>
        <time>2014-10-18T12:26:39Z</time>
      </trkpt>
      <trkpt lat="46.368828993290663" lon="8.686693981289864">
        <ele>1582.9499510000001</ele>
        <time>2014-10-18T12:26:57Z</time>
      </trkpt>
      <trkpt lat="46.368891019374132" lon="8.68670697323978">
        <ele>1581.030029</ele>
        <time>2014-10-18T12:27:15Z</time>
      </trkpt>
      <trkpt lat="46.368998978286982" lon="8.686703033745289">
        <ele>1580.059937</ele>
        <time>2014-10-18T12:27:57Z</time>
      </trkpt>
      <trkpt lat="46.369008030742407" lon="8.68670797906816">
        <ele>1576.2200929999999</ele>
        <time>2014-10-18T12:27:58Z</time>
      </trkpt>
      <trkpt lat="46.369008030742407" lon="8.686708984896541">
        <ele>1576.2200929999999</ele>
        <time>2014-10-18T12:27:59Z</time>
      </trkpt>
      <trkpt lat="46.369062010198832" lon="8.686699010431767">
        <ele>1574.3000489999999</ele>
        <time>2014-10-18T12:28:17Z</time>
      </trkpt>
      <trkpt lat="46.369099980220199" lon="8.686657017096877">
        <ele>1571.8900149999999</ele>
        <time>2014-10-18T12:28:33Z</time>
      </trkpt>
      <trkpt lat="46.36912202462554" lon="8.686656011268497">
        <ele>1570.929932</ele>
        <time>2014-10-18T12:28:37Z</time>
      </trkpt>
      <trkpt lat="46.369177009910345" lon="8.686632039025426">
        <ele>1569.490112</ele>
        <time>2014-10-18T12:28:50Z</time>
      </trkpt>
      <trkpt lat="46.369234006851912" lon="8.68666497990489">
        <ele>1566.6099850000001</ele>
        <time>2014-10-18T12:29:06Z</time>
      </trkpt>
      <trkpt lat="46.369310030713677" lon="8.686671014875174">
        <ele>1564.679932</ele>
        <time>2014-10-18T12:29:20Z</time>
      </trkpt>
      <trkpt lat="46.369394017383456" lon="8.686692975461483">
        <ele>1561.799927</ele>
        <time>2014-10-18T12:29:36Z</time>
      </trkpt>
      <trkpt lat="46.369428969919682" lon="8.686715019866824">
        <ele>1560.839966</ele>
        <time>2014-10-18T12:29:48Z</time>
      </trkpt>
      <trkpt lat="46.369453025981784" lon="8.686735974624753">
        <ele>1559.3999020000001</ele>
        <time>2014-10-18T12:30:02Z</time>
      </trkpt>
      <trkpt lat="46.369524020701647" lon="8.686764976009727">
        <ele>1556.030029</ele>
        <time>2014-10-18T12:30:20Z</time>
      </trkpt>
      <trkpt lat="46.369619993492961" lon="8.686802024021745">
        <ele>1553.150024</ele>
        <time>2014-10-18T12:30:35Z</time>
      </trkpt>
      <trkpt lat="46.369700962677598" lon="8.68681401014328">
        <ele>1549.780029</ele>
        <time>2014-10-18T12:30:52Z</time>
      </trkpt>
      <trkpt lat="46.369740022346377" lon="8.686832031235099">
        <ele>1547.8599850000001</ele>
        <time>2014-10-18T12:31:09Z</time>
      </trkpt>
      <trkpt lat="46.369824009016156" lon="8.686859020963311">
        <ele>1546.420044</ele>
        <time>2014-10-18T12:31:26Z</time>
      </trkpt>
      <trkpt lat="46.369831971824169" lon="8.686874024569988">
        <ele>1544.5</ele>
        <time>2014-10-18T12:31:39Z</time>
      </trkpt>
      <trkpt lat="46.36991897597909" lon="8.686891039833427">
        <ele>1542.0900879999999</ele>
        <time>2014-10-18T12:31:58Z</time>
      </trkpt>
      <trkpt lat="46.370036993175745" lon="8.687022970989347">
        <ele>1539.209961</ele>
        <time>2014-10-18T12:32:19Z</time>
      </trkpt>
      <trkpt lat="46.370078986510634" lon="8.687076028436422">
        <ele>1537.7700199999999</ele>
        <time>2014-10-18T12:32:33Z</time>
      </trkpt>
      <trkpt lat="46.370131960138679" lon="8.687139982357621">
        <ele>1536.3199460000001</ele>
        <time>2014-10-18T12:32:49Z</time>
      </trkpt>
      <trkpt lat="46.370169008150697" lon="8.68722103536129">
        <ele>1535.839966</ele>
        <time>2014-10-18T12:33:02Z</time>
      </trkpt>
      <trkpt lat="46.370231034234166" lon="8.687251964583993">
        <ele>1532.9600829999999</ele>
        <time>2014-10-18T12:33:19Z</time>
      </trkpt>
      <trkpt lat="46.37030303478241" lon="8.687300998717547">
        <ele>1530.079956</ele>
        <time>2014-10-18T12:33:34Z</time>
      </trkpt>
      <trkpt lat="46.3703260011971" lon="8.687308961525559">
        <ele>1530.079956</ele>
        <time>2014-10-18T12:33:51Z</time>
      </trkpt>
      <trkpt lat="46.370319966226816" lon="8.687291024252772">
        <ele>1530.079956</ele>
        <time>2014-10-18T12:41:50Z</time>
      </trkpt>
      <trkpt lat="46.370316026732326" lon="8.687291024252772">
        <ele>1530.5600589999999</ele>
        <time>2014-10-18T12:42:21Z</time>
      </trkpt>
      <trkpt lat="46.370307980105281" lon="8.687284989282489">
        <ele>1530.079956</ele>
        <time>2014-10-18T12:42:45Z</time>
      </trkpt>
      <trkpt lat="46.37034896761179" lon="8.687348021194339">
        <ele>1528.630005</ele>
        <time>2014-10-18T12:43:02Z</time>
      </trkpt>
      <trkpt lat="46.370451981201768" lon="8.687376016750932">
        <ele>1526.709961</ele>
        <time>2014-10-18T12:43:20Z</time>
      </trkpt>
      <trkpt lat="46.370448041707277" lon="8.687405018135905">
        <ele>1525.2698969999999</ele>
        <time>2014-10-18T12:43:35Z</time>
      </trkpt>
      <trkpt lat="46.370537979528308" lon="8.687480958178639">
        <ele>1522.3900149999999</ele>
        <time>2014-10-18T12:43:58Z</time>
      </trkpt>
      <trkpt lat="46.37058399617672" lon="8.687470983713865">
        <ele>1520.459961</ele>
        <time>2014-10-18T12:44:26Z</time>
      </trkpt>
      <trkpt lat="46.370588019490242" lon="8.68748196400702">
        <ele>1519.9799800000001</ele>
        <time>2014-10-18T12:45:12Z</time>
      </trkpt>
      <trkpt lat="46.370663959532976" lon="8.687523035332561">
        <ele>1516.6201169999999</ele>
        <time>2014-10-18T12:45:33Z</time>
      </trkpt>
      <trkpt lat="46.370715005323291" lon="8.687521023675799">
        <ele>1513.7299800000001</ele>
        <time>2014-10-18T12:45:49Z</time>
      </trkpt>
      <trkpt lat="46.370792035013437" lon="8.687596963718534">
        <ele>1510.849976</ele>
        <time>2014-10-18T12:46:22Z</time>
      </trkpt>
      <trkpt lat="46.370808966457844" lon="8.687570979818702">
        <ele>1508.929932</ele>
        <time>2014-10-18T12:47:13Z</time>
      </trkpt>
      <trkpt lat="46.370867975056171" lon="8.687497973442078">
        <ele>1507.969971</ele>
        <time>2014-10-18T12:47:28Z</time>
      </trkpt>
      <trkpt lat="46.370895970612764" lon="8.687437037006021">
        <ele>1506.5200199999999</ele>
        <time>2014-10-18T12:47:39Z</time>
      </trkpt>
      <trkpt lat="46.370922038331628" lon="8.687371993437409">
        <ele>1504.119995</ele>
        <time>2014-10-18T12:47:53Z</time>
      </trkpt>
      <trkpt lat="46.370919020846486" lon="8.687298987060785">
        <ele>1501.23999</ele>
        <time>2014-10-18T12:48:10Z</time>
      </trkpt>
      <trkpt lat="46.370881972834468" lon="8.687208965420723">
        <ele>1499.3100589999999</ele>
        <time>2014-10-18T12:48:27Z</time>
      </trkpt>
      <trkpt lat="46.370870992541313" lon="8.687102012336254">
        <ele>1497.869995</ele>
        <time>2014-10-18T12:48:40Z</time>
      </trkpt>
      <trkpt lat="46.370918015018106" lon="8.687016014009714">
        <ele>1496.910034</ele>
        <time>2014-10-18T12:49:02Z</time>
      </trkpt>
      <trkpt lat="46.370920026674867" lon="8.687017019838095">
        <ele>1494.030029</ele>
        <time>2014-10-18T12:49:03Z</time>
      </trkpt>
      <trkpt lat="46.370909968391061" lon="8.687069993466139">
        <ele>1491.6201169999999</ele>
        <time>2014-10-18T12:49:34Z</time>
      </trkpt>
      <trkpt lat="46.37101398780942" lon="8.687053984031081">
        <ele>1489.700073</ele>
        <time>2014-10-18T12:49:51Z</time>
      </trkpt>
      <trkpt lat="46.371061010286212" lon="8.686827002093196">
        <ele>1486.339966</ele>
        <time>2014-10-18T12:50:08Z</time>
      </trkpt>
      <trkpt lat="46.371133010834455" lon="8.686805963516235">
        <ele>1483.4499510000001</ele>
        <time>2014-10-18T12:50:25Z</time>
      </trkpt>
      <trkpt lat="46.371154133230448" lon="8.686872096732259">
        <ele>1480.570068</ele>
        <time>2014-10-18T12:50:42Z</time>
      </trkpt>
      <trkpt lat="46.37116402387619" lon="8.68679297156632">
        <ele>1478.160034</ele>
        <time>2014-10-18T12:51:04Z</time>
      </trkpt>
      <trkpt lat="46.37127198278904" lon="8.686723988503218">
        <ele>1474.799927</ele>
        <time>2014-10-18T12:51:26Z</time>
      </trkpt>
      <trkpt lat="46.371256979182363" lon="8.68659800849855">
        <ele>1472.3999020000001</ele>
        <time>2014-10-18T12:51:43Z</time>
      </trkpt>
      <trkpt lat="46.371285980567336" lon="8.686563977971673">
        <ele>1470.469971</ele>
        <time>2014-10-18T12:51:56Z</time>
      </trkpt>
      <trkpt lat="46.371283968910575" lon="8.686648970469832">
        <ele>1467.1099850000001</ele>
        <time>2014-10-18T12:52:14Z</time>
      </trkpt>
      <trkpt lat="46.371325040236115" lon="8.686661962419748">
        <ele>1464.2299800000001</ele>
        <time>2014-10-18T12:52:31Z</time>
      </trkpt>
      <trkpt lat="46.371398968622088" lon="8.686561966314912">
        <ele>1461.820068</ele>
        <time>2014-10-18T12:52:45Z</time>
      </trkpt>
      <trkpt lat="46.371434004977345" lon="8.686475967988372">
        <ele>1460.8599850000001</ele>
        <time>2014-10-18T12:53:00Z</time>
      </trkpt>
      <trkpt lat="46.371436016634107" lon="8.686468005180359">
        <ele>1458.9399410000001</ele>
        <time>2014-10-18T12:53:02Z</time>
      </trkpt>
      <trkpt lat="46.371453031897545" lon="8.686424000188708">
        <ele>1456.5299070000001</ele>
        <time>2014-10-18T12:53:17Z</time>
      </trkpt>
      <trkpt lat="46.371497958898544" lon="8.686361974105239">
        <ele>1453.650024</ele>
        <time>2014-10-18T12:53:34Z</time>
      </trkpt>
      <trkpt lat="46.371495025232434" lon="8.686416959390044">
        <ele>1451.25</ele>
        <time>2014-10-18T12:53:52Z</time>
      </trkpt>
      <trkpt lat="46.371521009132266" lon="8.68638401851058">
        <ele>1448.3599850000001</ele>
        <time>2014-10-18T12:54:11Z</time>
      </trkpt>
      <trkpt lat="46.371580017730594" lon="8.686360968276858">
        <ele>1445.4801030000001</ele>
        <time>2014-10-18T12:55:00Z</time>
      </trkpt>
      <trkpt lat="46.371564008295536" lon="8.686354011297226">
        <ele>1445</ele>
        <time>2014-10-18T12:55:33Z</time>
      </trkpt>
      <trkpt lat="46.371589992195368" lon="8.686299026012421">
        <ele>1443.5600589999999</ele>
        <time>2014-10-18T12:56:03Z</time>
      </trkpt>
      <trkpt lat="46.371625028550625" lon="8.686210010200739">
        <ele>1440.1899410000001</ele>
        <time>2014-10-18T12:56:18Z</time>
      </trkpt>
      <trkpt lat="46.371623016893864" lon="8.686162987723947">
        <ele>1438.2698969999999</ele>
        <time>2014-10-18T12:56:26Z</time>
      </trkpt>
      <trkpt lat="46.37163701467216" lon="8.68604002520442">
        <ele>1436.830078</ele>
        <time>2014-10-18T12:56:45Z</time>
      </trkpt>
      <trkpt lat="46.371681019663811" lon="8.68608201853931">
        <ele>1434.420044</ele>
        <time>2014-10-18T12:56:59Z</time>
      </trkpt>
      <trkpt lat="46.371752014383674" lon="8.686094004660845">
        <ele>1431.059937</ele>
        <time>2014-10-18T12:57:13Z</time>
      </trkpt>
      <trkpt lat="46.371822003275156" lon="8.686007000505924">
        <ele>1428.6599120000001</ele>
        <time>2014-10-18T12:57:30Z</time>
      </trkpt>
      <trkpt lat="46.371849998831749" lon="8.686084030196071">
        <ele>1425.7700199999999</ele>
        <time>2014-10-18T12:57:42Z</time>
      </trkpt>
      <trkpt lat="46.37193800881505" lon="8.686128035187721">
        <ele>1422.8900149999999</ele>
        <time>2014-10-18T12:57:57Z</time>
      </trkpt>
      <trkpt lat="46.371999029070139" lon="8.68610599078238">
        <ele>1420</ele>
        <time>2014-10-18T12:58:12Z</time>
      </trkpt>
      <trkpt lat="46.372070023790002" lon="8.686095010489225">
        <ele>1418.080078</ele>
        <time>2014-10-18T12:58:25Z</time>
      </trkpt>
      <trkpt lat="46.372114028781652" lon="8.686059974133968">
        <ele>1415.6800539999999</ele>
        <time>2014-10-18T12:58:39Z</time>
      </trkpt>
      <trkpt lat="46.372176976874471" lon="8.686071960255504">
        <ele>1413.280029</ele>
        <time>2014-10-18T12:58:55Z</time>
      </trkpt>
      <trkpt lat="46.372171025723219" lon="8.686054022982717">
        <ele>1411.3500979999999</ele>
        <time>2014-10-18T12:59:10Z</time>
      </trkpt>
      <trkpt lat="46.372254006564617" lon="8.68604295887053">
        <ele>1408.950073</ele>
        <time>2014-10-18T12:59:23Z</time>
      </trkpt>
      <trkpt lat="46.372274961322546" lon="8.686042036861181">
        <ele>1408.469971</ele>
        <time>2014-10-18T12:59:26Z</time>
      </trkpt>
      <trkpt lat="46.372348973527551" lon="8.685993002727628">
        <ele>1405.099976</ele>
        <time>2014-10-18T12:59:40Z</time>
      </trkpt>
      <trkpt lat="46.372387027367949" lon="8.685971964150667">
        <ele>1402.700073</ele>
        <time>2014-10-18T12:59:54Z</time>
      </trkpt>
      <trkpt lat="46.372418040409684" lon="8.68599602021277">
        <ele>1401.7398679999999</ele>
        <time>2014-10-18T13:00:22Z</time>
      </trkpt>
      <trkpt lat="46.37245299294591" lon="8.685950003564358">
        <ele>1399.820068</ele>
        <time>2014-10-18T13:00:48Z</time>
      </trkpt>
      <trkpt lat="46.372507978230715" lon="8.685969030484557">
        <ele>1397.410034</ele>
        <time>2014-10-18T13:01:06Z</time>
      </trkpt>
      <trkpt lat="46.372503032907844" lon="8.685960983857513">
        <ele>1396.929932</ele>
        <time>2014-10-18T13:01:47Z</time>
      </trkpt>
      <trkpt lat="46.372576961293817" lon="8.685940029099584">
        <ele>1394.5299070000001</ele>
        <time>2014-10-18T13:02:02Z</time>
      </trkpt>
      <trkpt lat="46.372629012912512" lon="8.685943968594074">
        <ele>1392.610107</ele>
        <time>2014-10-18T13:02:38Z</time>
      </trkpt>
      <trkpt lat="46.372720962390304" lon="8.686076989397407">
        <ele>1391.650024</ele>
        <time>2014-10-18T13:03:08Z</time>
      </trkpt>
      <trkpt lat="46.372667988762259" lon="8.686012029647827">
        <ele>1388.76001</ele>
        <time>2014-10-18T13:03:43Z</time>
      </trkpt>
      <trkpt lat="46.372688021510839" lon="8.686048993840814">
        <ele>1385.880005</ele>
        <time>2014-10-18T13:04:18Z</time>
      </trkpt>
      <trkpt lat="46.372723979875445" lon="8.686095010489225">
        <ele>1384.4399410000001</ele>
        <time>2014-10-18T13:04:57Z</time>
      </trkpt>
      <trkpt lat="46.372865969315171" lon="8.686164999380708">
        <ele>1382.030029</ele>
        <time>2014-10-18T13:05:18Z</time>
      </trkpt>
      <trkpt lat="46.373040983453393" lon="8.686170028522611">
        <ele>1382.98999</ele>
        <time>2014-10-18T13:05:37Z</time>
      </trkpt>
      <trkpt lat="46.373156988993287" lon="8.686230964958668">
        <ele>1381.0699460000001</ele>
        <time>2014-10-18T13:05:52Z</time>
      </trkpt>
      <trkpt lat="46.373252961784601" lon="8.686275975778699">
        <ele>1379.150024</ele>
        <time>2014-10-18T13:06:06Z</time>
      </trkpt>
      <trkpt lat="46.373291015625" lon="8.686183020472527">
        <ele>1375.780029</ele>
        <time>2014-10-18T13:06:21Z</time>
      </trkpt>
      <trkpt lat="46.373344995081425" lon="8.686158964410424">
        <ele>1372.900024</ele>
        <time>2014-10-18T13:06:34Z</time>
      </trkpt>
      <trkpt lat="46.373406015336514" lon="8.686135997995734">
        <ele>1370.5</ele>
        <time>2014-10-18T13:06:45Z</time>
      </trkpt>
      <trkpt lat="46.373488996177912" lon="8.686129963025451">
        <ele>1368.0900879999999</ele>
        <time>2014-10-18T13:06:56Z</time>
      </trkpt>
      <trkpt lat="46.373560996726155" lon="8.68612602353096">
        <ele>1365.690063</ele>
        <time>2014-10-18T13:07:07Z</time>
      </trkpt>
      <trkpt lat="46.373670967295766" lon="8.686086963862181">
        <ele>1363.290039</ele>
        <time>2014-10-18T13:07:22Z</time>
      </trkpt>
      <trkpt lat="46.37374397367239" lon="8.686032984405756">
        <ele>1360.3999020000001</ele>
        <time>2014-10-18T13:07:37Z</time>
      </trkpt>
      <trkpt lat="46.373802982270718" lon="8.685942040756345">
        <ele>1357.9998780000001</ele>
        <time>2014-10-18T13:07:54Z</time>
      </trkpt>
      <trkpt lat="46.373832989484072" lon="8.68589099496603">
        <ele>1354.630005</ele>
        <time>2014-10-18T13:08:06Z</time>
      </trkpt>
      <trkpt lat="46.373929968103766" lon="8.685866016894579">
        <ele>1352.709961</ele>
        <time>2014-10-18T13:08:20Z</time>
      </trkpt>
      <trkpt lat="46.373971961438656" lon="8.685860987752676">
        <ele>1351.2698969999999</ele>
        <time>2014-10-18T13:08:35Z</time>
      </trkpt>
      <trkpt lat="46.373993000015616" lon="8.68587096221745">
        <ele>1351.2698969999999</ele>
        <time>2014-10-18T13:08:50Z</time>
      </trkpt>
      <trkpt lat="46.373985959216952" lon="8.685841960832477">
        <ele>1351.2698969999999</ele>
        <time>2014-10-18T13:09:13Z</time>
      </trkpt>
      <trkpt lat="46.373982019722462" lon="8.685777001082897">
        <ele>1348.3900149999999</ele>
        <time>2014-10-18T13:09:33Z</time>
      </trkpt>
      <trkpt lat="46.374069023877382" lon="8.685749005526304">
        <ele>1345.5</ele>
        <time>2014-10-18T13:09:47Z</time>
      </trkpt>
      <trkpt lat="46.374109005555511" lon="8.685768032446504">
        <ele>1344.059937</ele>
        <time>2014-10-18T13:09:53Z</time>
      </trkpt>
      <trkpt lat="46.374114034697413" lon="8.685678010806441">
        <ele>1341.179932</ele>
        <time>2014-10-18T13:10:09Z</time>
      </trkpt>
      <trkpt lat="46.374134989455342" lon="8.685597041621804">
        <ele>1339.7299800000001</ele>
        <time>2014-10-18T13:10:32Z</time>
      </trkpt>
      <trkpt lat="46.374123003333807" lon="8.685584971681237">
        <ele>1337.329956</ele>
        <time>2014-10-18T13:10:34Z</time>
      </trkpt>
      <trkpt lat="46.374090984463692" lon="8.685543984174728">
        <ele>1334.4499510000001</ele>
        <time>2014-10-18T13:10:47Z</time>
      </trkpt>
      <trkpt lat="46.374040022492409" lon="8.685456980019808">
        <ele>1331.080078</ele>
        <time>2014-10-18T13:11:03Z</time>
      </trkpt>
      <trkpt lat="46.374096013605595" lon="8.685419009998441">
        <ele>1327.719971</ele>
        <time>2014-10-18T13:11:16Z</time>
      </trkpt>
      <trkpt lat="46.374160973355174" lon="8.685387996956706">
        <ele>1325.799927</ele>
        <time>2014-10-18T13:11:29Z</time>
      </trkpt>
      <trkpt lat="46.374226016923785" lon="8.685380034148693">
        <ele>1322.910034</ele>
        <time>2014-10-18T13:11:45Z</time>
      </trkpt>
      <trkpt lat="46.374261975288391" lon="8.685313984751701">
        <ele>1320.030029</ele>
        <time>2014-10-18T13:11:59Z</time>
      </trkpt>
      <trkpt lat="46.37434302829206" lon="8.685335023328662">
        <ele>1316.6599120000001</ele>
        <time>2014-10-18T13:12:14Z</time>
      </trkpt>
      <trkpt lat="46.374361971393228" lon="8.685236033052206">
        <ele>1313.3000489999999</ele>
        <time>2014-10-18T13:12:29Z</time>
      </trkpt>
      <trkpt lat="46.374443024396896" lon="8.685318008065224">
        <ele>1311.380005</ele>
        <time>2014-10-18T13:12:44Z</time>
      </trkpt>
      <trkpt lat="46.374410670250654" lon="8.68525723926723">
        <ele>1309.929932</ele>
        <time>2014-10-18T13:12:54Z</time>
      </trkpt>
      <trkpt lat="46.374456435441971" lon="8.685193285346031">
        <ele>1307.5299070000001</ele>
        <time>2014-10-18T13:13:14Z</time>
      </trkpt>
      <trkpt lat="46.374502116814256" lon="8.685129415243864">
        <ele>1305.1298830000001</ele>
        <time>2014-10-18T13:13:27Z</time>
      </trkpt>
      <trkpt lat="46.374547798186541" lon="8.685065377503634">
        <ele>1302.23999</ele>
        <time>2014-10-18T13:13:38Z</time>
      </trkpt>
      <trkpt lat="46.37454922311008" lon="8.684935541823506">
        <ele>1299.3599850000001</ele>
        <time>2014-10-18T13:13:52Z</time>
      </trkpt>
      <trkpt lat="46.374594904482365" lon="8.684871504083276">
        <ele>1296.4801030000001</ele>
        <time>2014-10-18T13:14:07Z</time>
      </trkpt>
      <trkpt lat="46.37468408793211" lon="8.684938559308648">
        <ele>1295.030029</ele>
        <time>2014-10-18T13:14:12Z</time>
      </trkpt>
      <trkpt lat="46.374729769304395" lon="8.684874605387449">
        <ele>1293.1099850000001</ele>
        <time>2014-10-18T13:14:23Z</time>
      </trkpt>
      <trkpt lat="46.374819790944457" lon="8.684876700863242">
        <ele>1290.709961</ele>
        <time>2014-10-18T13:14:36Z</time>
      </trkpt>
      <trkpt lat="46.374865472316742" lon="8.684812663123012">
        <ele>1287.3400879999999</ele>
        <time>2014-10-18T13:14:50Z</time>
      </trkpt>
      <trkpt lat="46.374999666586518" lon="8.684880807995796">
        <ele>1284.940063</ele>
        <time>2014-10-18T13:15:03Z</time>
      </trkpt>
      <trkpt lat="46.375038977712393" lon="8.684882987290621">
        <ele>1282.059937</ele>
        <time>2014-10-18T13:15:17Z</time>
      </trkpt>
      <trkpt lat="46.375045264139771" lon="8.684816937893629">
        <ele>1279.170044</ele>
        <time>2014-10-18T13:15:34Z</time>
      </trkpt>
      <trkpt lat="46.375046102330089" lon="8.684751894325018">
        <ele>1277.7299800000001</ele>
        <time>2014-10-18T13:15:47Z</time>
      </trkpt>
      <trkpt lat="46.375135285779834" lon="8.684818865731359">
        <ele>1277.25</ele>
        <time>2014-10-18T13:16:17Z</time>
      </trkpt>
      <trkpt lat="46.375091029331088" lon="8.684752900153399">
        <ele>1277.25</ele>
        <time>2014-10-18T13:20:39Z</time>
      </trkpt>
      <trkpt lat="46.375141991302371" lon="8.684774022549391">
        <ele>1273.880005</ele>
        <time>2014-10-18T13:21:32Z</time>
      </trkpt>
      <trkpt lat="46.375120030716062" lon="8.684646030887961">
        <ele>1270.5198969999999</ele>
        <time>2014-10-18T13:21:47Z</time>
      </trkpt>
      <trkpt lat="46.375130005180836" lon="8.684586016461253">
        <ele>1268.6000979999999</ele>
        <time>2014-10-18T13:22:05Z</time>
      </trkpt>
      <trkpt lat="46.375150959938765" lon="8.684504041448236">
        <ele>1265.709961</ele>
        <time>2014-10-18T13:22:20Z</time>
      </trkpt>
      <trkpt lat="46.375191025435925" lon="8.684456013143063">
        <ele>1262.829956</ele>
        <time>2014-10-18T13:22:33Z</time>
      </trkpt>
      <trkpt lat="46.375194964930415" lon="8.684457018971443">
        <ele>1262.829956</ele>
        <time>2014-10-18T13:22:34Z</time>
      </trkpt>
      <trkpt lat="46.375271994620562" lon="8.68449398316443">
        <ele>1259.940063</ele>
        <time>2014-10-18T13:22:48Z</time>
      </trkpt>
      <trkpt lat="46.375339971855283" lon="8.684440003708005">
        <ele>1257.059937</ele>
        <time>2014-10-18T13:23:02Z</time>
      </trkpt>
      <trkpt lat="46.375329997390509" lon="8.684400022029877">
        <ele>1255.619995</ele>
        <time>2014-10-18T13:23:18Z</time>
      </trkpt>
      <trkpt lat="46.375296972692013" lon="8.684315029531717">
        <ele>1253.219971</ele>
        <time>2014-10-18T13:23:51Z</time>
      </trkpt>
      <trkpt lat="46.375310970470309" lon="8.684218972921372">
        <ele>1250.329956</ele>
        <time>2014-10-18T13:24:04Z</time>
      </trkpt>
      <trkpt lat="46.375360004603863" lon="8.684123000130057">
        <ele>1247.450073</ele>
        <time>2014-10-18T13:24:17Z</time>
      </trkpt>
      <trkpt lat="46.375362016260624" lon="8.684069020673633">
        <ele>1246.48999</ele>
        <time>2014-10-18T13:24:22Z</time>
      </trkpt>
      <trkpt lat="46.37541901320219" lon="8.684019986540079">
        <ele>1244.079956</ele>
        <time>2014-10-18T13:24:32Z</time>
      </trkpt>
      <trkpt lat="46.37548103928566" lon="8.684006994590163">
        <ele>1240.719971</ele>
        <time>2014-10-18T13:24:44Z</time>
      </trkpt>
      <trkpt lat="46.375475004315376" lon="8.6839550267905">
        <ele>1239.76001</ele>
        <time>2014-10-18T13:24:47Z</time>
      </trkpt>
      <trkpt lat="46.37539797462523" lon="8.683821000158787">
        <ele>1236.3900149999999</ele>
        <time>2014-10-18T13:24:59Z</time>
      </trkpt>
      <trkpt lat="46.375426976010203" lon="8.683789987117052">
        <ele>1234.950073</ele>
        <time>2014-10-18T13:25:05Z</time>
      </trkpt>
      <trkpt lat="46.375436028465629" lon="8.68372100405395">
        <ele>1232.0699460000001</ele>
        <time>2014-10-18T13:25:17Z</time>
      </trkpt>
      <trkpt lat="46.375444997102022" lon="8.683713041245937">
        <ele>1231.589966</ele>
        <time>2014-10-18T13:25:19Z</time>
      </trkpt>
      <trkpt lat="46.375467963516712" lon="8.68369703181088">
        <ele>1228.219971</ele>
        <time>2014-10-18T13:25:32Z</time>
      </trkpt>
      <trkpt lat="46.375455977395177" lon="8.683575997129083">
        <ele>1225.339966</ele>
        <time>2014-10-18T13:25:45Z</time>
      </trkpt>
      <trkpt lat="46.375476010143757" lon="8.683534003794193">
        <ele>1223.900024</ele>
        <time>2014-10-18T13:25:51Z</time>
      </trkpt>
      <trkpt lat="46.375496964901686" lon="8.683446999639273">
        <ele>1221.01001</ele>
        <time>2014-10-18T13:26:04Z</time>
      </trkpt>
      <trkpt lat="46.375534012913704" lon="8.68337701074779">
        <ele>1218.130005</ele>
        <time>2014-10-18T13:26:17Z</time>
      </trkpt>
      <trkpt lat="46.375579023733735" lon="8.68335697799921">
        <ele>1216.209961</ele>
        <time>2014-10-18T13:26:24Z</time>
      </trkpt>
      <trkpt lat="46.375553961843252" lon="8.68320501409471">
        <ele>1213.320068</ele>
        <time>2014-10-18T13:26:34Z</time>
      </trkpt>
      <trkpt lat="46.375599978491664" lon="8.683164026588202">
        <ele>1211.880005</ele>
        <time>2014-10-18T13:26:41Z</time>
      </trkpt>
      <trkpt lat="46.375665022060275" lon="8.683120021596551">
        <ele>1208.51001</ele>
        <time>2014-10-18T13:26:56Z</time>
      </trkpt>
      <trkpt lat="46.375737022608519" lon="8.683083979412913">
        <ele>1205.630005</ele>
        <time>2014-10-18T13:27:13Z</time>
      </trkpt>
      <trkpt lat="46.3756999745965" lon="8.683100994676352">
        <ele>1203.709961</ele>
        <time>2014-10-18T13:32:07Z</time>
      </trkpt>
      <trkpt lat="46.37578203342855" lon="8.683090014383197">
        <ele>1201.790039</ele>
        <time>2014-10-18T13:32:20Z</time>
      </trkpt>
      <trkpt lat="46.375855961814523" lon="8.683038968592882">
        <ele>1197.9399410000001</ele>
        <time>2014-10-18T13:32:31Z</time>
      </trkpt>
      <trkpt lat="46.375875994563103" lon="8.683060007169843">
        <ele>1197.9399410000001</ele>
        <time>2014-10-18T13:32:32Z</time>
      </trkpt>
      <trkpt lat="46.37591103091836" lon="8.683062018826604">
        <ele>1196.9799800000001</ele>
        <time>2014-10-18T13:32:35Z</time>
      </trkpt>
      <trkpt lat="46.375929974019527" lon="8.683009967207909">
        <ele>1194.089966</ele>
        <time>2014-10-18T13:32:47Z</time>
      </trkpt>
      <trkpt lat="46.375936008989811" lon="8.682975014671683">
        <ele>1193.130005</ele>
        <time>2014-10-18T13:32:51Z</time>
      </trkpt>
      <trkpt lat="46.375889992341399" lon="8.682800000533462">
        <ele>1189.7700199999999</ele>
        <time>2014-10-18T13:33:06Z</time>
      </trkpt>
      <trkpt lat="46.37589200399816" lon="8.682763958349824">
        <ele>1188.329956</ele>
        <time>2014-10-18T13:33:10Z</time>
      </trkpt>
      <trkpt lat="46.37591203674674" lon="8.682760018855333">
        <ele>1187.849976</ele>
        <time>2014-10-18T13:33:12Z</time>
      </trkpt>
      <trkpt lat="46.375967022031546" lon="8.68275498971343">
        <ele>1186.400024</ele>
        <time>2014-10-18T13:33:18Z</time>
      </trkpt>
      <trkpt lat="46.376022007316351" lon="8.682755995541811">
        <ele>1184.4799800000001</ele>
        <time>2014-10-18T13:33:24Z</time>
      </trkpt>
      <trkpt lat="46.376058300957084" lon="8.682695310562849">
        <ele>1184</ele>
        <time>2014-10-18T13:33:32Z</time>
      </trkpt>
      <trkpt lat="46.376100964844227" lon="8.682605037465692">
        <ele>1184</ele>
        <time>2014-10-18T13:33:44Z</time>
      </trkpt>
      <trkpt lat="46.376101970672607" lon="8.682597996667028">
        <ele>1184</ele>
        <time>2014-10-18T13:33:45Z</time>
      </trkpt>
      <trkpt lat="46.37617003172636" lon="8.682479979470372">
        <ele>1180.6400149999999</ele>
        <time>2014-10-18T13:33:57Z</time>
      </trkpt>
      <trkpt lat="46.376273967325687" lon="8.682586010545492">
        <ele>1180.160034</ele>
        <time>2014-10-18T13:34:02Z</time>
      </trkpt>
      <trkpt lat="46.376378992572427" lon="8.682654993608594">
        <ele>1179.190063</ele>
        <time>2014-10-18T13:34:08Z</time>
      </trkpt>
      <trkpt lat="46.376474965363741" lon="8.682821039110422">
        <ele>1178.2299800000001</ele>
        <time>2014-10-18T13:34:11Z</time>
      </trkpt>
      <trkpt lat="46.376445963978767" lon="8.682749038562179">
        <ele>1177.75</ele>
        <time>2014-10-18T13:34:14Z</time>
      </trkpt>
      <trkpt lat="46.376420985907316" lon="8.682677960023284">
        <ele>1177.2700199999999</ele>
        <time>2014-10-18T13:34:16Z</time>
      </trkpt>
      <trkpt lat="46.376413023099303" lon="8.682613000273705">
        <ele>1177.2700199999999</ele>
        <time>2014-10-18T13:34:24Z</time>
      </trkpt>
      <trkpt lat="46.376506984233856" lon="8.682700004428625">
        <ele>1174.3900149999999</ele>
        <time>2014-10-18T13:34:35Z</time>
      </trkpt>
      <trkpt lat="46.376526011154056" lon="8.682565977796912">
        <ele>1171.5</ele>
        <time>2014-10-18T13:34:49Z</time>
      </trkpt>
      <trkpt lat="46.376563981175423" lon="8.682515015825629">
        <ele>1169.099976</ele>
        <time>2014-10-18T13:35:04Z</time>
      </trkpt>
      <trkpt lat="46.37659901753068" lon="8.682455001398921">
        <ele>1166.219971</ele>
        <time>2014-10-18T13:35:19Z</time>
      </trkpt>
      <trkpt lat="46.376646962016821" lon="8.682361040264368">
        <ele>1162.849976</ele>
        <time>2014-10-18T13:35:37Z</time>
      </trkpt>
      <trkpt lat="46.37664302252233" lon="8.682336984202266">
        <ele>1161.8900149999999</ele>
        <time>2014-10-18T13:35:40Z</time>
      </trkpt>
      <trkpt lat="46.376698007807136" lon="8.682234976440668">
        <ele>1159.48999</ele>
        <time>2014-10-18T13:35:53Z</time>
      </trkpt>
      <trkpt lat="46.376745030283928" lon="8.682184014469385">
        <ele>1157.5600589999999</ele>
        <time>2014-10-18T13:36:01Z</time>
      </trkpt>
      <trkpt lat="46.376870004460216" lon="8.682090975344181">
        <ele>1154.6800539999999</ele>
        <time>2014-10-18T13:36:17Z</time>
      </trkpt>
      <trkpt lat="46.376970000565052" lon="8.681995002552867">
        <ele>1151.799927</ele>
        <time>2014-10-18T13:36:31Z</time>
      </trkpt>
      <trkpt lat="46.377019034698606" lon="8.681947980076075">
        <ele>1149.3900149999999</ele>
        <time>2014-10-18T13:36:44Z</time>
      </trkpt>
      <trkpt lat="46.377103021368384" lon="8.681860975921154">
        <ele>1146.51001</ele>
        <time>2014-10-18T13:37:01Z</time>
      </trkpt>
      <trkpt lat="46.377122970297933" lon="8.681822000071406">
        <ele>1145.5500489999999</ele>
        <time>2014-10-18T13:37:04Z</time>
      </trkpt>
      <trkpt lat="46.377234030514956" lon="8.681670958176255">
        <ele>1143.630005</ele>
        <time>2014-10-18T13:37:21Z</time>
      </trkpt>
      <trkpt lat="46.377301001921296" lon="8.681500973179936">
        <ele>1141.6999510000001</ele>
        <time>2014-10-18T13:37:40Z</time>
      </trkpt>
      <trkpt lat="46.377408960834146" lon="8.681484963744879">
        <ele>1139.780029</ele>
        <time>2014-10-18T13:37:51Z</time>
      </trkpt>
      <trkpt lat="46.377423964440823" lon="8.681480018422008">
        <ele>1139.299927</ele>
        <time>2014-10-18T13:37:55Z</time>
      </trkpt>
      <trkpt lat="46.377442991361022" lon="8.681490998715162">
        <ele>1138.820068</ele>
        <time>2014-10-18T13:37:57Z</time>
      </trkpt>
      <trkpt lat="46.377467969432473" lon="8.681379016488791">
        <ele>1136.420044</ele>
        <time>2014-10-18T13:38:10Z</time>
      </trkpt>
      <trkpt lat="46.377572994679213" lon="8.681312967091799">
        <ele>1134.48999</ele>
        <time>2014-10-18T13:38:27Z</time>
      </trkpt>
      <trkpt lat="46.377606019377708" lon="8.681236021220684">
        <ele>1132.5699460000001</ele>
        <time>2014-10-18T13:38:38Z</time>
      </trkpt>
      <trkpt lat="46.377606019377708" lon="8.681085985153914">
        <ele>1129.690063</ele>
        <time>2014-10-18T13:38:55Z</time>
      </trkpt>
      <trkpt lat="46.377605013549328" lon="8.680961010977626">
        <ele>1126.320068</ele>
        <time>2014-10-18T13:39:11Z</time>
      </trkpt>
      <trkpt lat="46.377624962478876" lon="8.680907031521201">
        <ele>1124.400024</ele>
        <time>2014-10-18T13:39:19Z</time>
      </trkpt>
      <trkpt lat="46.377639966085553" lon="8.680866966024041">
        <ele>1123.4399410000001</ele>
        <time>2014-10-18T13:39:25Z</time>
      </trkpt>
      <trkpt lat="46.377677014097571" lon="8.680850034579635">
        <ele>1122.4799800000001</ele>
        <time>2014-10-18T13:39:40Z</time>
      </trkpt>
      <trkpt lat="46.377752032130957" lon="8.680789014324546">
        <ele>1120.0699460000001</ele>
        <time>2014-10-18T13:40:04Z</time>
      </trkpt>
      <trkpt lat="46.377797964960337" lon="8.680664962157607">
        <ele>1118.630005</ele>
        <time>2014-10-18T13:40:20Z</time>
      </trkpt>
      <trkpt lat="46.377881029620767" lon="8.680592039600015">
        <ele>1118.150024</ele>
        <time>2014-10-18T13:41:03Z</time>
      </trkpt>
      <trkpt lat="46.377920005470514" lon="8.680577035993338">
        <ele>1115.2700199999999</ele>
        <time>2014-10-18T13:41:06Z</time>
      </trkpt>
      <trkpt lat="46.377929979935288" lon="8.680567983537912">
        <ele>1114.790039</ele>
        <time>2014-10-18T13:41:07Z</time>
      </trkpt>
      <trkpt lat="46.37792713008821" lon="8.6804632935673">
        <ele>1111.900024</ele>
        <time>2014-10-18T13:41:25Z</time>
      </trkpt>
      <trkpt lat="46.378054032102227" lon="8.680281993001699">
        <ele>1109.0200199999999</ele>
        <time>2014-10-18T13:41:39Z</time>
      </trkpt>
      <trkpt lat="46.37806098908186" lon="8.680147966369987">
        <ele>1105.650024</ele>
        <time>2014-10-18T13:41:55Z</time>
      </trkpt>
      <trkpt lat="46.378105999901891" lon="8.680071020498872">
        <ele>1103.7299800000001</ele>
        <time>2014-10-18T13:42:06Z</time>
      </trkpt>
      <trkpt lat="46.378176994621754" lon="8.679943028837442">
        <ele>1100.369995</ele>
        <time>2014-10-18T13:42:19Z</time>
      </trkpt>
      <trkpt lat="46.37816702015698" lon="8.6798329744488">
        <ele>1097.4799800000001</ele>
        <time>2014-10-18T13:42:34Z</time>
      </trkpt>
      <trkpt lat="46.378141036257148" lon="8.679784024134278">
        <ele>1096.0399170000001</ele>
        <time>2014-10-18T13:42:38Z</time>
      </trkpt>
      <trkpt lat="46.378128966316581" lon="8.67965997196734">
        <ele>1092.6800539999999</ele>
        <time>2014-10-18T13:42:51Z</time>
      </trkpt>
      <trkpt lat="46.378137012943625" lon="8.679556958377361">
        <ele>1089.3100589999999</ele>
        <time>2014-10-18T13:43:05Z</time>
      </trkpt>
      <trkpt lat="46.378141958266497" lon="8.679550001397729">
        <ele>1089.3100589999999</ele>
        <time>2014-10-18T13:43:06Z</time>
      </trkpt>
      <trkpt lat="46.378203984349966" lon="8.679456040263176">
        <ele>1085.950073</ele>
        <time>2014-10-18T13:43:22Z</time>
      </trkpt>
      <trkpt lat="46.378187974914908" lon="8.679397031664848">
        <ele>1083.059937</ele>
        <time>2014-10-18T13:43:35Z</time>
      </trkpt>
      <trkpt lat="46.37819099240005" lon="8.679318996146321">
        <ele>1080.660034</ele>
        <time>2014-10-18T13:43:48Z</time>
      </trkpt>
      <trkpt lat="46.378195015713573" lon="8.67922998033464">
        <ele>1077.290039</ele>
        <time>2014-10-18T13:44:03Z</time>
      </trkpt>
      <trkpt lat="46.378250000998378" lon="8.679106011986733">
        <ele>1074.410034</ele>
        <time>2014-10-18T13:44:16Z</time>
      </trkpt>
      <trkpt lat="46.37827699072659" lon="8.679067036136985">
        <ele>1072.01001</ele>
        <time>2014-10-18T13:44:31Z</time>
      </trkpt>
      <trkpt lat="46.378305992111564" lon="8.678947007283568">
        <ele>1069.599976</ele>
        <time>2014-10-18T13:44:43Z</time>
      </trkpt>
      <trkpt lat="46.378335999324918" lon="8.678817003965378">
        <ele>1067.1999510000001</ele>
        <time>2014-10-18T13:44:55Z</time>
      </trkpt>
      <trkpt lat="46.378411017358303" lon="8.678890010342002">
        <ele>1066.719971</ele>
        <time>2014-10-18T13:44:58Z</time>
      </trkpt>
      <trkpt lat="46.378438007086515" lon="8.678751038387418">
        <ele>1063.8400879999999</ele>
        <time>2014-10-18T13:45:12Z</time>
      </trkpt>
      <trkpt lat="46.378437001258135" lon="8.67871499620378">
        <ele>1062.869995</ele>
        <time>2014-10-18T13:45:15Z</time>
      </trkpt>
      <trkpt lat="46.378444964066148" lon="8.67865196429193">
        <ele>1062.3900149999999</ele>
        <time>2014-10-18T13:45:19Z</time>
      </trkpt>
      <trkpt lat="46.378443958237767" lon="8.67860795930028">
        <ele>1061.910034</ele>
        <time>2014-10-18T13:45:22Z</time>
      </trkpt>
      <trkpt lat="46.378527022898197" lon="8.678650036454201">
        <ele>1060.469971</ele>
        <time>2014-10-18T13:45:30Z</time>
      </trkpt>
      <trkpt lat="46.378581002354622" lon="8.678607037290931">
        <ele>1057.589966</ele>
        <time>2014-10-18T13:45:45Z</time>
      </trkpt>
      <trkpt lat="46.378573961555958" lon="8.678523972630501">
        <ele>1057.1099850000001</ele>
        <time>2014-10-18T13:45:47Z</time>
      </trkpt>
      <trkpt lat="46.378579996526241" lon="8.678417019546032">
        <ele>1055.1800539999999</ele>
        <time>2014-10-18T13:45:54Z</time>
      </trkpt>
      <trkpt lat="46.378592988476157" lon="8.678372008726001">
        <ele>1055.1800539999999</ele>
        <time>2014-10-18T13:45:57Z</time>
      </trkpt>
      <trkpt lat="46.378687033429742" lon="8.678354993462563">
        <ele>1054.219971</ele>
        <time>2014-10-18T13:46:09Z</time>
      </trkpt>
      <trkpt lat="46.378687033429742" lon="8.67834996432066">
        <ele>1054.219971</ele>
        <time>2014-10-18T13:46:10Z</time>
      </trkpt>
      <trkpt lat="46.378745958209038" lon="8.678200012072921">
        <ele>1052.299927</ele>
        <time>2014-10-18T13:46:22Z</time>
      </trkpt>
      <trkpt lat="46.378766996785998" lon="8.678186014294624">
        <ele>1052.299927</ele>
        <time>2014-10-18T13:46:24Z</time>
      </trkpt>
      <trkpt lat="46.378762973472476" lon="8.677974035963416">
        <ele>1052.299927</ele>
        <time>2014-10-18T13:46:30Z</time>
      </trkpt>
      <trkpt lat="46.378871016204357" lon="8.678083000704646">
        <ele>1052.780029</ele>
        <time>2014-10-18T13:46:34Z</time>
      </trkpt>
      <trkpt lat="46.378850983455777" lon="8.67792097851634">
        <ele>1053.26001</ele>
        <time>2014-10-18T13:46:40Z</time>
      </trkpt>
      <trkpt lat="46.37894201092422" lon="8.677979987114668">
        <ele>1053.73999</ele>
        <time>2014-10-18T13:46:43Z</time>
      </trkpt>
      <trkpt lat="46.379005964845419" lon="8.678021980449557">
        <ele>1055.1800539999999</ele>
        <time>2014-10-18T13:46:49Z</time>
      </trkpt>
      <trkpt lat="46.37900797650218" lon="8.677986022084951">
        <ele>1055.1800539999999</ele>
        <time>2014-10-18T13:46:53Z</time>
      </trkpt>
      <trkpt lat="46.379123395308852" lon="8.678020806983113">
        <ele>1055.669922</ele>
        <time>2014-10-18T13:47:05Z</time>
      </trkpt>
      <trkpt lat="46.379166897386312" lon="8.678151816129684">
        <ele>1054.219971</ele>
        <time>2014-10-18T13:47:15Z</time>
      </trkpt>
      <trkpt lat="46.379212578758597" lon="8.678087862208486">
        <ele>1053.73999</ele>
        <time>2014-10-18T13:47:19Z</time>
      </trkpt>
      <trkpt lat="46.379256919026375" lon="8.678153911605477">
        <ele>1053.73999</ele>
        <time>2014-10-18T13:47:22Z</time>
      </trkpt>
      <trkpt lat="46.379282986745238" lon="8.677960960194469">
        <ele>1053.26001</ele>
        <time>2014-10-18T13:47:35Z</time>
      </trkpt>
      <trkpt lat="46.379303270950913" lon="8.678024914115667">
        <ele>1050.380005</ele>
        <time>2014-10-18T13:48:33Z</time>
      </trkpt>
      <trkpt lat="46.379306958988309" lon="8.678034972399473">
        <ele>1049.420044</ele>
        <time>2014-10-18T13:48:52Z</time>
      </trkpt>
      <trkpt lat="46.379313999786973" lon="8.678050981834531">
        <ele>1048.940063</ele>
        <time>2014-10-18T13:49:12Z</time>
      </trkpt>
      <trkpt lat="46.379124065861106" lon="8.677955931052566">
        <ele>1046.530029</ele>
        <time>2014-10-18T13:49:29Z</time>
      </trkpt>
      <trkpt lat="46.379124820232391" lon="8.677890887483954">
        <ele>1044.6099850000001</ele>
        <time>2014-10-18T13:49:37Z</time>
      </trkpt>
      <trkpt lat="46.379202017560601" lon="8.677832968533039">
        <ele>1041.7299800000001</ele>
        <time>2014-10-18T13:49:50Z</time>
      </trkpt>
      <trkpt lat="46.379300002008677" lon="8.67778804153204">
        <ele>1039.3199460000001</ele>
        <time>2014-10-18T13:50:03Z</time>
      </trkpt>
      <trkpt lat="46.379467975348234" lon="8.677605986595154">
        <ele>1036.920044</ele>
        <time>2014-10-18T13:50:18Z</time>
      </trkpt>
      <trkpt lat="46.379594039171934" lon="8.677558964118362">
        <ele>1035.4799800000001</ele>
        <time>2014-10-18T13:50:29Z</time>
      </trkpt>
      <trkpt lat="46.379657993093133" lon="8.677479000762105">
        <ele>1032.589966</ele>
        <time>2014-10-18T13:50:41Z</time>
      </trkpt>
      <trkpt lat="46.379679031670094" lon="8.677372969686985">
        <ele>1030.1899410000001</ele>
        <time>2014-10-18T13:50:55Z</time>
      </trkpt>
      <trkpt lat="46.379720019176602" lon="8.677351009100676">
        <ele>1030.669922</ele>
        <time>2014-10-18T13:51:00Z</time>
      </trkpt>
      <trkpt lat="46.379698980599642" lon="8.67718898691237">
        <ele>1030.669922</ele>
        <time>2014-10-18T13:51:08Z</time>
      </trkpt>
      <trkpt lat="46.379696968942881" lon="8.677008021622896">
        <ele>1030.1899410000001</ele>
        <time>2014-10-18T13:51:20Z</time>
      </trkpt>
      <trkpt lat="46.379733011126518" lon="8.676871983334422">
        <ele>1028.75</ele>
        <time>2014-10-18T13:51:41Z</time>
      </trkpt>
      <trkpt lat="46.37978196144104" lon="8.676753966137767">
        <ele>1026.3400879999999</ele>
        <time>2014-10-18T13:51:58Z</time>
      </trkpt>
      <trkpt lat="46.379775004461408" lon="8.676710966974497">
        <ele>1025.380005</ele>
        <time>2014-10-18T13:52:08Z</time>
      </trkpt>
      <trkpt lat="46.379830995574594" lon="8.676583981141448">
        <ele>1023.940002</ele>
        <time>2014-10-18T13:52:21Z</time>
      </trkpt>
      <trkpt lat="46.379796965047717" lon="8.676471998915076">
        <ele>1023.459961</ele>
        <time>2014-10-18T13:52:34Z</time>
      </trkpt>
      <trkpt lat="46.379771986976266" lon="8.676337972283363">
        <ele>1022.980042</ele>
        <time>2014-10-18T13:52:46Z</time>
      </trkpt>
      <trkpt lat="46.379771986976266" lon="8.676199000328779">
        <ele>1021.540039</ele>
        <time>2014-10-18T13:52:59Z</time>
      </trkpt>
      <trkpt lat="46.379780033603311" lon="8.676131023094058">
        <ele>1021.540039</ele>
        <time>2014-10-18T13:53:14Z</time>
      </trkpt>
      <trkpt lat="46.37984499335289" lon="8.676030021160841">
        <ele>1018.650024</ele>
        <time>2014-10-18T13:53:31Z</time>
      </trkpt>
      <trkpt lat="46.379878018051386" lon="8.675830028951168">
        <ele>1015.77002</ele>
        <time>2014-10-18T13:53:46Z</time>
      </trkpt>
      <trkpt lat="46.379888998344541" lon="8.675761967897415">
        <ele>1014.809998</ele>
        <time>2014-10-18T13:53:52Z</time>
      </trkpt>
      <trkpt lat="46.379910036921501" lon="8.67546902038157">
        <ele>1011.440002</ele>
        <time>2014-10-18T13:54:10Z</time>
      </trkpt>
      <trkpt lat="46.379912970587611" lon="8.675322001799941">
        <ele>1009.52002</ele>
        <time>2014-10-18T13:54:21Z</time>
      </trkpt>
      <trkpt lat="46.379954963922501" lon="8.675153022632003">
        <ele>1007.599976</ele>
        <time>2014-10-18T13:54:39Z</time>
      </trkpt>
      <trkpt lat="46.379978014156222" lon="8.674999969080091">
        <ele>1005.679993</ele>
        <time>2014-10-18T13:54:48Z</time>
      </trkpt>
      <trkpt lat="46.380013972520828" lon="8.674902990460396">
        <ele>1003.27002</ele>
        <time>2014-10-18T13:54:58Z</time>
      </trkpt>
      <trkpt lat="46.380117991939187" lon="8.674777010455728">
        <ele>999.910034</ele>
        <time>2014-10-18T13:55:15Z</time>
      </trkpt>
      <trkpt lat="46.380181023851037" lon="8.674737028777599">
        <ele>997.98999000000003</ele>
        <time>2014-10-18T13:55:24Z</time>
      </trkpt>
      <trkpt lat="46.380228968337178" lon="8.67465496994555">
        <ele>995.580017</ele>
        <time>2014-10-18T13:55:37Z</time>
      </trkpt>
      <trkpt lat="46.380279008299112" lon="8.674390017986298">
        <ele>993.65997300000004</ele>
        <time>2014-10-18T13:55:54Z</time>
      </trkpt>
      <trkpt lat="46.380325024947524" lon="8.674211986362934">
        <ele>990.78002900000001</ele>
        <time>2014-10-18T13:56:14Z</time>
      </trkpt>
      <trkpt lat="46.380283031612635" lon="8.674192037433386">
        <ele>987.410034</ele>
        <time>2014-10-18T13:56:32Z</time>
      </trkpt>
      <trkpt lat="46.380185969173908" lon="8.67426797747612">
        <ele>984.04998799999998</ele>
        <time>2014-10-18T13:56:48Z</time>
      </trkpt>
      <trkpt lat="46.380126038566232" lon="8.674377026036382">
        <ele>981.64001499999995</ele>
        <time>2014-10-18T13:57:01Z</time>
      </trkpt>
      <trkpt lat="46.380054038017988" lon="8.674340983852744">
        <ele>979.71997099999999</ele>
        <time>2014-10-18T13:57:15Z</time>
      </trkpt>
      <trkpt lat="46.380068035796285" lon="8.674294967204332">
        <ele>976.35998500000005</ele>
        <time>2014-10-18T13:57:29Z</time>
      </trkpt>
      <trkpt lat="46.380027970299125" lon="8.674157001078129">
        <ele>974.910034</ele>
        <time>2014-10-18T13:57:36Z</time>
      </trkpt>
      <trkpt lat="46.379978014156222" lon="8.674126993864775">
        <ele>972.98999000000003</ele>
        <time>2014-10-18T13:57:48Z</time>
      </trkpt>
      <trkpt lat="46.379983965307474" lon="8.674082988873124">
        <ele>971.54998799999998</ele>
        <time>2014-10-18T13:58:00Z</time>
      </trkpt>
      <trkpt lat="46.380039034411311" lon="8.67398701608181">
        <ele>968.67004399999996</ele>
        <time>2014-10-18T13:59:03Z</time>
      </trkpt>
      <trkpt lat="46.380041968077421" lon="8.673855001106858">
        <ele>965.78002900000001</ele>
        <time>2014-10-18T13:59:17Z</time>
      </trkpt>
      <trkpt lat="46.380036016926169" lon="8.673804961144924">
        <ele>964.82000700000003</ele>
        <time>2014-10-18T13:59:20Z</time>
      </trkpt>
      <trkpt lat="46.379977008327842" lon="8.673716029152274">
        <ele>961.45996100000002</ele>
        <time>2014-10-18T13:59:37Z</time>
      </trkpt>
      <trkpt lat="46.380041968077421" lon="8.673648973926902">
        <ele>958.57000700000003</ele>
        <time>2014-10-18T13:59:52Z</time>
      </trkpt>
      <trkpt lat="46.380124026909471" lon="8.673554006963968">
        <ele>955.21002199999998</ele>
        <time>2014-10-18T14:00:08Z</time>
      </trkpt>
      <trkpt lat="46.380149004980922" lon="8.673413023352623">
        <ele>951.84002699999996</ele>
        <time>2014-10-18T14:00:24Z</time>
      </trkpt>
      <trkpt lat="46.380126038566232" lon="8.673276985064149">
        <ele>949.919983</ele>
        <time>2014-10-18T14:00:52Z</time>
      </trkpt>
      <trkpt lat="46.380222011357546" lon="8.673448981717229">
        <ele>948.47997999999995</ele>
        <time>2014-10-18T14:01:39Z</time>
      </trkpt>
      <trkpt lat="46.380235003307462" lon="8.673286037519574">
        <ele>945.589966</ele>
        <time>2014-10-18T14:01:54Z</time>
      </trkpt>
      <trkpt lat="46.380246989428997" lon="8.67306299507618">
        <ele>942.22997999999995</ele>
        <time>2014-10-18T14:02:08Z</time>
      </trkpt>
      <trkpt lat="46.38029501773417" lon="8.672873983159661">
        <ele>940.30999799999995</ele>
        <time>2014-10-18T14:02:19Z</time>
      </trkpt>
      <trkpt lat="46.380276996642351" lon="8.672682037577033">
        <ele>937.419983</ele>
        <time>2014-10-18T14:02:33Z</time>
      </trkpt>
      <trkpt lat="46.380334999412298" lon="8.672553040087223">
        <ele>935.50006099999996</ele>
        <time>2014-10-18T14:02:45Z</time>
      </trkpt>
      <trkpt lat="46.380367018282413" lon="8.672423036769033">
        <ele>935.01995799999997</ele>
        <time>2014-10-18T14:02:57Z</time>
      </trkpt>
      <trkpt lat="46.380393002182245" lon="8.672266965731978">
        <ele>932.14001499999995</ele>
        <time>2014-10-18T14:03:09Z</time>
      </trkpt>
      <trkpt lat="46.380362994968891" lon="8.672156995162368">
        <ele>932.14001499999995</ele>
        <time>2014-10-18T14:03:14Z</time>
      </trkpt>
      <trkpt lat="46.380413034930825" lon="8.672016011551023">
        <ele>930.69000200000005</ele>
        <time>2014-10-18T14:03:26Z</time>
      </trkpt>
      <trkpt lat="46.380423009395599" lon="8.671894976869226">
        <ele>929.25</ele>
        <time>2014-10-18T14:03:38Z</time>
      </trkpt>
      <trkpt lat="46.380452010780573" lon="8.671803027391434">
        <ele>927.80999799999995</ele>
        <time>2014-10-18T14:03:51Z</time>
      </trkpt>
      <trkpt lat="46.380531974136829" lon="8.67170998826623">
        <ele>926.36999500000002</ele>
        <time>2014-10-18T14:04:06Z</time>
      </trkpt>
      <trkpt lat="46.380657032132149" lon="8.671542014926672">
        <ele>923.47997999999995</ele>
        <time>2014-10-18T14:04:26Z</time>
      </trkpt>
      <trkpt lat="46.380749987438321" lon="8.671399019658566">
        <ele>921.080017</ele>
        <time>2014-10-18T14:04:43Z</time>
      </trkpt>
      <trkpt lat="46.380758034065366" lon="8.67134696803987">
        <ele>920.60003700000004</ele>
        <time>2014-10-18T14:04:46Z</time>
      </trkpt>
      <trkpt lat="46.380784017965198" lon="8.671327019110322">
        <ele>919.64001499999995</ele>
        <time>2014-10-18T14:04:53Z</time>
      </trkpt>
      <trkpt lat="46.380847971886396" lon="8.671276979148388">
        <ele>918.67999299999997</ele>
        <time>2014-10-18T14:05:01Z</time>
      </trkpt>
      <trkpt lat="46.381021980196238" lon="8.671235991641879">
        <ele>916.75</ele>
        <time>2014-10-18T14:05:18Z</time>
      </trkpt>
      <trkpt lat="46.381162963807583" lon="8.671182012185454">
        <ele>913.38995399999999</ele>
        <time>2014-10-18T14:05:34Z</time>
      </trkpt>
      <trkpt lat="46.381238987669349" lon="8.67117497138679">
        <ele>909.54003899999998</ele>
        <time>2014-10-18T14:05:52Z</time>
      </trkpt>
      <trkpt lat="46.381380977109075" lon="8.671051003038883">
        <ele>906.17999299999997</ele>
        <time>2014-10-18T14:06:08Z</time>
      </trkpt>
      <trkpt lat="46.38143403455615" lon="8.670897027477622">
        <ele>903.77996800000005</ele>
        <time>2014-10-18T14:06:24Z</time>
      </trkpt>
      <trkpt lat="46.381595972925425" lon="8.670901972800493">
        <ele>900.88995399999999</ele>
        <time>2014-10-18T14:06:45Z</time>
      </trkpt>
      <trkpt lat="46.381696974858642" lon="8.670772975310683">
        <ele>897.53002900000001</ele>
        <time>2014-10-18T14:07:04Z</time>
      </trkpt>
      <trkpt lat="46.381836030632257" lon="8.670641966164112">
        <ele>894.64001499999995</ele>
        <time>2014-10-18T14:07:19Z</time>
      </trkpt>
      <trkpt lat="46.381894033402205" lon="8.670588992536068">
        <ele>891.27996800000005</ele>
        <time>2014-10-18T14:07:33Z</time>
      </trkpt>
      <trkpt lat="46.381991012021899" lon="8.670539036393166">
        <ele>888.40002400000003</ele>
        <time>2014-10-18T14:07:50Z</time>
      </trkpt>
      <trkpt lat="46.38214498758316" lon="8.670556973665953">
        <ele>885.03002900000001</ele>
        <time>2014-10-18T14:08:08Z</time>
      </trkpt>
      <trkpt lat="46.382284965366125" lon="8.670583041384816">
        <ele>882.14996299999996</ele>
        <time>2014-10-18T14:08:29Z</time>
      </trkpt>
      <trkpt lat="46.382398959249258" lon="8.67048698477447">
        <ele>878.77996800000005</ele>
        <time>2014-10-18T14:08:43Z</time>
      </trkpt>
      <trkpt lat="46.382403988391161" lon="8.670337032526732">
        <ele>875.90002400000003</ele>
        <time>2014-10-18T14:08:56Z</time>
      </trkpt>
      <trkpt lat="46.382325030863285" lon="8.670277018100023">
        <ele>873.97997999999995</ele>
        <time>2014-10-18T14:09:12Z</time>
      </trkpt>
      <trkpt lat="46.382327964529395" lon="8.670320017263293">
        <ele>873.97997999999995</ele>
        <time>2014-10-18T14:09:34Z</time>
      </trkpt>
      <trkpt lat="46.382270967587829" lon="8.670412972569466">
        <ele>873.01000999999997</ele>
        <time>2014-10-18T14:10:40Z</time>
      </trkpt>
      <trkpt lat="46.382232997566462" lon="8.670279029756784">
        <ele>869.64996299999996</ele>
        <time>2014-10-18T14:12:37Z</time>
      </trkpt>
      <trkpt lat="46.382215982303023" lon="8.670165035873652">
        <ele>866.77002000000005</ele>
        <time>2014-10-18T14:12:49Z</time>
      </trkpt>
      <trkpt lat="46.382206007838249" lon="8.67014198563993">
        <ele>865.80004899999994</ele>
        <time>2014-10-18T14:12:51Z</time>
      </trkpt>
      <trkpt lat="46.382134007290006" lon="8.670088006183505">
        <ele>862.44000200000005</ele>
        <time>2014-10-18T14:13:05Z</time>
      </trkpt>
      <trkpt lat="46.382081033661962" lon="8.670028997585177">
        <ele>860.51995799999997</ele>
        <time>2014-10-18T14:13:13Z</time>
      </trkpt>
      <trkpt lat="46.381998974829912" lon="8.669974012300372">
        <ele>858.10998500000005</ele>
        <time>2014-10-18T14:13:22Z</time>
      </trkpt>
      <trkpt lat="46.381948012858629" lon="8.669898994266987">
        <ele>855.23004200000003</ele>
        <time>2014-10-18T14:13:35Z</time>
      </trkpt>
      <trkpt lat="46.381904007866979" lon="8.669846020638943">
        <ele>851.86999500000002</ele>
        <time>2014-10-18T14:13:47Z</time>
      </trkpt>
      <trkpt lat="46.381828989833593" lon="8.669780977070332">
        <ele>848.5</ele>
        <time>2014-10-18T14:13:59Z</time>
      </trkpt>
      <trkpt lat="46.381785990670323" lon="8.669758010655642">
        <ele>845.61999500000002</ele>
        <time>2014-10-18T14:14:11Z</time>
      </trkpt>
      <trkpt lat="46.381666967645288" lon="8.66973496042192">
        <ele>842.73004200000003</ele>
        <time>2014-10-18T14:14:25Z</time>
      </trkpt>
      <trkpt lat="46.381599996238947" lon="8.669672012329102">
        <ele>839.36999500000002</ele>
        <time>2014-10-18T14:14:37Z</time>
      </trkpt>
      <trkpt lat="46.381594967097044" lon="8.669666983187199">
        <ele>839.36999500000002</ele>
        <time>2014-10-18T14:14:38Z</time>
      </trkpt>
      <trkpt lat="46.381607037037611" lon="8.669614009559155">
        <ele>835.51995799999997</ele>
        <time>2014-10-18T14:14:55Z</time>
      </trkpt>
      <trkpt lat="46.38158499263227" lon="8.669518958777189">
        <ele>832.64001499999995</ele>
        <time>2014-10-18T14:15:13Z</time>
      </trkpt>
      <trkpt lat="46.381618017330766" lon="8.669568998739123">
        <ele>831.20001200000002</ele>
        <time>2014-10-18T14:15:59Z</time>
      </trkpt>
      <trkpt lat="46.381492959335446" lon="8.669478977099061">
        <ele>828.30999799999995</ele>
        <time>2014-10-18T14:17:48Z</time>
      </trkpt>
      <trkpt lat="46.381431017071009" lon="8.669523987919092">
        <ele>826.86999500000002</ele>
        <time>2014-10-18T14:18:05Z</time>
      </trkpt>
      <trkpt lat="46.381381982937455" lon="8.66949800401926">
        <ele>825.43005400000004</ele>
        <time>2014-10-18T14:18:18Z</time>
      </trkpt>
      <trkpt lat="46.381337977945805" lon="8.669417034834623">
        <ele>822.54998799999998</ele>
        <time>2014-10-18T14:18:30Z</time>
      </trkpt>
      <trkpt lat="46.381310988217592" lon="8.669232968240976">
        <ele>819.17999299999997</ele>
        <time>2014-10-18T14:18:44Z</time>
      </trkpt>
      <trkpt lat="46.381311994045973" lon="8.669214025139809">
        <ele>817.73999000000003</ele>
        <time>2014-10-18T14:18:50Z</time>
      </trkpt>
      <trkpt lat="46.381406961008906" lon="8.669106988236308">
        <ele>814.36999500000002</ele>
        <time>2014-10-18T14:19:05Z</time>
      </trkpt>
      <trkpt lat="46.381481979042292" lon="8.66900397464633">
        <ele>811.48999000000003</ele>
        <time>2014-10-18T14:19:18Z</time>
      </trkpt>
      <trkpt lat="46.381512992084026" lon="8.668828038498759">
        <ele>807.64001499999995</ele>
        <time>2014-10-18T14:19:33Z</time>
      </trkpt>
      <trkpt lat="46.381550962105393" lon="8.668738016858697">
        <ele>804.76000999999997</ele>
        <time>2014-10-18T14:19:44Z</time>
      </trkpt>
      <trkpt lat="46.38151902705431" lon="8.668635003268719">
        <ele>801.88000499999998</ele>
        <time>2014-10-18T14:19:58Z</time>
      </trkpt>
      <trkpt lat="46.381480973213911" lon="8.668565014377236">
        <ele>799.94995100000006</ele>
        <time>2014-10-18T14:20:05Z</time>
      </trkpt>
      <trkpt lat="46.381404027342796" lon="8.668528972193599">
        <ele>796.589966</ele>
        <time>2014-10-18T14:20:18Z</time>
      </trkpt>
      <trkpt lat="46.381401009857655" lon="8.668531989678741">
        <ele>796.589966</ele>
        <time>2014-10-18T14:20:19Z</time>
      </trkpt>
      <trkpt lat="46.38145700097084" lon="8.668440040200949">
        <ele>793.21997099999999</ele>
        <time>2014-10-18T14:20:34Z</time>
      </trkpt>
      <trkpt lat="46.381487008184195" lon="8.668442973867059">
        <ele>791.77996800000005</ele>
        <time>2014-10-18T14:20:40Z</time>
      </trkpt>
      <trkpt lat="46.381501005962491" lon="8.668327974155545">
        <ele>788.419983</ele>
        <time>2014-10-18T14:20:54Z</time>
      </trkpt>
      <trkpt lat="46.381512992084026" lon="8.668269971385598">
        <ele>785.04998799999998</ele>
        <time>2014-10-18T14:21:08Z</time>
      </trkpt>
      <trkpt lat="46.381469992920756" lon="8.668211968615651">
        <ele>783.13000499999998</ele>
        <time>2014-10-18T14:21:17Z</time>
      </trkpt>
      <trkpt lat="46.381423976272345" lon="8.668236024677753">
        <ele>780.25</ele>
        <time>2014-10-18T14:21:30Z</time>
      </trkpt>
      <trkpt lat="46.381375025957823" lon="8.668220015242696">
        <ele>778.31994599999996</ele>
        <time>2014-10-18T14:21:37Z</time>
      </trkpt>
      <trkpt lat="46.381250973790884" lon="8.668218003585935">
        <ele>774.96002199999998</ele>
        <time>2014-10-18T14:21:51Z</time>
      </trkpt>
      <trkpt lat="46.381229013204575" lon="8.668199982494116">
        <ele>774.47997999999995</ele>
        <time>2014-10-18T14:21:54Z</time>
      </trkpt>
      <trkpt lat="46.381118036806583" lon="8.668205011636019">
        <ele>771.60003700000004</ele>
        <time>2014-10-18T14:22:05Z</time>
      </trkpt>
      <trkpt lat="46.381099009886384" lon="8.668195037171245">
        <ele>771.10998500000005</ele>
        <time>2014-10-18T14:22:07Z</time>
      </trkpt>
      <trkpt lat="46.380993984639645" lon="8.668219009414315">
        <ele>769.19006300000001</ele>
        <time>2014-10-18T14:22:20Z</time>
      </trkpt>
      <trkpt lat="46.380931958556175" lon="8.668216997757554">
        <ele>765.34997599999997</ele>
        <time>2014-10-18T14:22:37Z</time>
      </trkpt>
      <trkpt lat="46.380861969664693" lon="8.668138040229678">
        <ele>762.94000200000005</ele>
        <time>2014-10-18T14:22:48Z</time>
      </trkpt>
      <trkpt lat="46.38079097494483" lon="8.668113984167576">
        <ele>761.5</ele>
        <time>2014-10-18T14:23:02Z</time>
      </trkpt>
      <trkpt lat="46.380775971338153" lon="8.668124964460731">
        <ele>761.01995799999997</ele>
        <time>2014-10-18T14:24:15Z</time>
      </trkpt>
      <trkpt lat="46.380884014070034" lon="8.668283969163895">
        <ele>761.01995799999997</ele>
        <time>2014-10-18T14:24:38Z</time>
      </trkpt>
      <trkpt lat="46.380980992689729" lon="8.668387988582254">
        <ele>761.97997999999995</ele>
        <time>2014-10-18T14:25:05Z</time>
      </trkpt>
      <trkpt lat="46.380985016003251" lon="8.668210040777922">
        <ele>761.5</ele>
        <time>2014-10-18T14:26:23Z</time>
      </trkpt>
      <trkpt lat="46.381031032651663" lon="8.66814399138093">
        <ele>762.94000200000005</ele>
        <time>2014-10-18T14:26:46Z</time>
      </trkpt>
      <trkpt lat="46.381043018773198" lon="8.668142985552549">
        <ele>762.94000200000005</ele>
        <time>2014-10-18T14:27:09Z</time>
      </trkpt>
      <trkpt lat="46.380957020446658" lon="8.66803796030581">
        <ele>762.94000200000005</ele>
        <time>2014-10-18T14:27:34Z</time>
      </trkpt>
      <trkpt lat="46.380956014618278" lon="8.6680350266397">
        <ele>762.94000200000005</ele>
        <time>2014-10-18T14:28:26Z</time>
      </trkpt>
      <trkpt lat="46.380872027948499" lon="8.668069979175925">
        <ele>761.97997999999995</ele>
        <time>2014-10-18T14:28:45Z</time>
      </trkpt>
      <trkpt lat="46.380796004086733" lon="8.668076014146209">
        <ele>760.53997800000002</ele>
        <time>2014-10-18T14:28:59Z</time>
      </trkpt>
      <trkpt lat="46.380808996036649" lon="8.668063022196293">
        <ele>760.53997800000002</ele>
        <time>2014-10-18T14:29:18Z</time>
      </trkpt>
      <trkpt lat="46.380776977166533" lon="8.667956991121173">
        <ele>760.05999799999995</ele>
        <time>2014-10-18T14:29:43Z</time>
      </trkpt>
      <trkpt lat="46.380758034065366" lon="8.667879961431027">
        <ele>758.14001499999995</ele>
        <time>2014-10-18T14:29:54Z</time>
      </trkpt>
      <trkpt lat="46.380751999095082" lon="8.667864035815001">
        <ele>757.660034</ele>
        <time>2014-10-18T14:29:56Z</time>
      </trkpt>
      <trkpt lat="46.380733978003263" lon="8.667687010020018">
        <ele>754.77002000000005</ele>
        <time>2014-10-18T14:30:09Z</time>
      </trkpt>
      <trkpt lat="46.380724003538489" lon="8.667548038065434">
        <ele>752.84997599999997</ele>
        <time>2014-10-18T14:30:26Z</time>
      </trkpt>
      <trkpt lat="46.380736995488405" lon="8.667405964806676">
        <ele>751.89001499999995</ele>
        <time>2014-10-18T14:30:35Z</time>
      </trkpt>
      <trkpt lat="46.380730038508773" lon="8.66734704002738">
        <ele>751.89001499999995</ele>
        <time>2014-10-18T14:30:38Z</time>
      </trkpt>
      <trkpt lat="46.380724003538489" lon="8.667207984253764">
        <ele>750.92999299999997</ele>
        <time>2014-10-18T14:30:49Z</time>
      </trkpt>
      <trkpt lat="46.380715034902096" lon="8.667139001190662">
        <ele>749.96997099999999</ele>
        <time>2014-10-18T14:30:53Z</time>
      </trkpt>
      <trkpt lat="46.380703970789909" lon="8.66709097288549">
        <ele>749.96997099999999</ele>
        <time>2014-10-18T14:30:56Z</time>
      </trkpt>
      <trkpt lat="46.380700031295419" lon="8.667027018964291">
        <ele>749.49005099999999</ele>
        <time>2014-10-18T14:30:59Z</time>
      </trkpt>
      <trkpt lat="46.380632976070046" lon="8.666850998997688">
        <ele>748.03997800000002</ele>
        <time>2014-10-18T14:31:15Z</time>
      </trkpt>
      <trkpt lat="46.380629036575556" lon="8.666858961805701">
        <ele>747.55999799999995</ele>
        <time>2014-10-18T14:31:17Z</time>
      </trkpt>
      <trkpt lat="46.380604980513453" lon="8.666826020926237">
        <ele>747.07995600000004</ele>
        <time>2014-10-18T14:31:22Z</time>
      </trkpt>
      <trkpt lat="46.380537003278732" lon="8.666723007336259">
        <ele>746.60003700000004</ele>
        <time>2014-10-18T14:31:31Z</time>
      </trkpt>
      <trkpt lat="46.380529962480068" lon="8.666709009557962">
        <ele>746.11999500000002</ele>
        <time>2014-10-18T14:31:32Z</time>
      </trkpt>
      <trkpt lat="46.380516970530152" lon="8.666685959324241">
        <ele>746.11999500000002</ele>
        <time>2014-10-18T14:31:33Z</time>
      </trkpt>
      <trkpt lat="46.380508001893759" lon="8.666683025658131">
        <ele>746.11999500000002</ele>
        <time>2014-10-18T14:31:34Z</time>
      </trkpt>
      <trkpt lat="46.380503978580236" lon="8.666675984859467">
        <ele>745.64001499999995</ele>
        <time>2014-10-18T14:31:35Z</time>
      </trkpt>
      <trkpt lat="46.380401970818639" lon="8.66650901734829">
        <ele>745.160034</ele>
        <time>2014-10-18T14:31:48Z</time>
      </trkpt>
      <trkpt lat="46.380384033545852" lon="8.666479010134935">
        <ele>745.160034</ele>
        <time>2014-10-18T14:31:50Z</time>
      </trkpt>
      <trkpt lat="46.380346985533834" lon="8.666336014866829">
        <ele>744.67999299999997</ele>
        <time>2014-10-18T14:32:02Z</time>
      </trkpt>
      <trkpt lat="46.38027498498559" lon="8.666272982954979">
        <ele>744.20001200000002</ele>
        <time>2014-10-18T14:32:10Z</time>
      </trkpt>
      <trkpt lat="46.380235003307462" lon="8.666296033188701">
        <ele>743.72003199999995</ele>
        <time>2014-10-18T14:32:13Z</time>
      </trkpt>
      <trkpt lat="46.380213964730501" lon="8.666305001825094">
        <ele>744.20001200000002</ele>
        <time>2014-10-18T14:32:14Z</time>
      </trkpt>
      <trkpt lat="46.380040040239692" lon="8.666264014318585">
        <ele>742.76000999999997</ele>
        <time>2014-10-18T14:32:30Z</time>
      </trkpt>
      <trkpt lat="46.379919005557895" lon="8.666254039853811">
        <ele>741.79003899999998</ele>
        <time>2014-10-18T14:32:40Z</time>
      </trkpt>
      <trkpt lat="46.379909031093121" lon="8.666248004883528">
        <ele>741.79003899999998</ele>
        <time>2014-10-18T14:32:41Z</time>
      </trkpt>
      <trkpt lat="46.379795037209988" lon="8.666157983243465">
        <ele>740.830017</ele>
        <time>2014-10-18T14:32:53Z</time>
      </trkpt>
      <trkpt lat="46.379785984754562" lon="8.66614599712193">
        <ele>740.830017</ele>
        <time>2014-10-18T14:32:54Z</time>
      </trkpt>
      <trkpt lat="46.379686994478106" lon="8.666124036535621">
        <ele>740.34997599999997</ele>
        <time>2014-10-18T14:33:02Z</time>
      </trkpt>
      <trkpt lat="46.379657993093133" lon="8.666100986301899">
        <ele>740.34997599999997</ele>
        <time>2014-10-18T14:33:05Z</time>
      </trkpt>
      <trkpt lat="46.379627985879779" lon="8.666087994351983">
        <ele>739.86999500000002</ele>
        <time>2014-10-18T14:33:07Z</time>
      </trkpt>
      <trkpt lat="46.379620023071766" lon="8.666075002402067">
        <ele>739.86999500000002</ele>
        <time>2014-10-18T14:33:08Z</time>
      </trkpt>
      <trkpt lat="46.379608036950231" lon="8.666068967431784">
        <ele>739.86999500000002</ele>
        <time>2014-10-18T14:33:09Z</time>
      </trkpt>
      <trkpt lat="46.379545005038381" lon="8.666046001017094">
        <ele>739.86999500000002</ele>
        <time>2014-10-18T14:33:14Z</time>
      </trkpt>
      <trkpt lat="46.379530001431704" lon="8.66603996604681">
        <ele>739.39001499999995</ele>
        <time>2014-10-18T14:33:15Z</time>
      </trkpt>
      <trkpt lat="46.379526983946562" lon="8.666028985753655">
        <ele>739.39001499999995</ele>
        <time>2014-10-18T14:33:16Z</time>
      </trkpt>
      <trkpt lat="46.379488008096814" lon="8.666010964661837">
        <ele>738.90997300000004</ele>
        <time>2014-10-18T14:33:20Z</time>
      </trkpt>
      <trkpt lat="46.379461018368602" lon="8.665998978540301">
        <ele>738.42999299999997</ele>
        <time>2014-10-18T14:33:23Z</time>
      </trkpt>
      <trkpt lat="46.379439979791641" lon="8.66597299464047">
        <ele>738.42999299999997</ele>
        <time>2014-10-18T14:33:26Z</time>
      </trkpt>
      <trkpt lat="46.379439979791641" lon="8.665957991033793">
        <ele>738.42999299999997</ele>
        <time>2014-10-18T14:33:27Z</time>
      </trkpt>
      <trkpt lat="46.379408966749907" lon="8.66593100130558">
        <ele>737.94995100000006</ele>
        <time>2014-10-18T14:33:32Z</time>
      </trkpt>
      <trkpt lat="46.379361022263765" lon="8.66586402989924">
        <ele>737.94995100000006</ele>
        <time>2014-10-18T14:33:37Z</time>
      </trkpt>
      <trkpt lat="46.379326991736889" lon="8.665760010480881">
        <ele>737.46997099999999</ele>
        <time>2014-10-18T14:33:45Z</time>
      </trkpt>
      <trkpt lat="46.379320034757257" lon="8.665742995217443">
        <ele>737.46997099999999</ele>
        <time>2014-10-18T14:33:46Z</time>
      </trkpt>
      <trkpt lat="46.379302013665438" lon="8.665710976347327">
        <ele>737.46997099999999</ele>
        <time>2014-10-18T14:33:48Z</time>
      </trkpt>
      <trkpt lat="46.379279969260097" lon="8.665701001882553">
        <ele>737.46997099999999</ele>
        <time>2014-10-18T14:33:49Z</time>
      </trkpt>
      <trkpt lat="46.379258008673787" lon="8.665675017982721">
        <ele>736.99005099999999</ele>
        <time>2014-10-18T14:33:51Z</time>
      </trkpt>
      <trkpt lat="46.379187013953924" lon="8.66556697525084">
        <ele>736.99005099999999</ele>
        <time>2014-10-18T14:33:59Z</time>
      </trkpt>
      <trkpt lat="46.379133034497499" lon="8.665497992187738">
        <ele>736.51000999999997</ele>
        <time>2014-10-18T14:34:04Z</time>
      </trkpt>
      <trkpt lat="46.379125993698835" lon="8.665483994409442">
        <ele>736.51000999999997</ele>
        <time>2014-10-18T14:34:05Z</time>
      </trkpt>
      <trkpt lat="46.379096992313862" lon="8.665448036044836">
        <ele>736.51000999999997</ele>
        <time>2014-10-18T14:34:08Z</time>
      </trkpt>
      <trkpt lat="46.379056004807353" lon="8.665426997467876">
        <ele>736.51000999999997</ele>
        <time>2014-10-18T14:34:11Z</time>
      </trkpt>
      <trkpt lat="46.379021974280477" lon="8.665403025224805">
        <ele>736.51000999999997</ele>
        <time>2014-10-18T14:34:14Z</time>
      </trkpt>
      <trkpt lat="46.379011999815702" lon="8.66539397276938">
        <ele>736.51000999999997</ele>
        <time>2014-10-18T14:34:15Z</time>
      </trkpt>
      <trkpt lat="46.378826005384326" lon="8.665271010249853">
        <ele>736.51000999999997</ele>
        <time>2014-10-18T14:34:31Z</time>
      </trkpt>
      <trkpt lat="46.378579996526241" lon="8.665062971413136">
        <ele>735.54998799999998</ele>
        <time>2014-10-18T14:34:54Z</time>
      </trkpt>
      <trkpt lat="46.378569016233087" lon="8.665060959756374">
        <ele>735.54998799999998</ele>
        <time>2014-10-18T14:34:55Z</time>
      </trkpt>
      <trkpt lat="46.378472037613392" lon="8.664987031370401">
        <ele>734.57995600000004</ele>
        <time>2014-10-18T14:35:05Z</time>
      </trkpt>
      <trkpt lat="46.378442030400038" lon="8.664966998621821">
        <ele>734.10003700000004</ele>
        <time>2014-10-18T14:35:08Z</time>
      </trkpt>
      <trkpt lat="46.378290988504887" lon="8.664915030822158">
        <ele>732.660034</ele>
        <time>2014-10-18T14:35:21Z</time>
      </trkpt>
      <trkpt lat="46.378226028755307" lon="8.664906984195113">
        <ele>732.17999299999997</ele>
        <time>2014-10-18T14:35:28Z</time>
      </trkpt>
      <trkpt lat="46.378107005730271" lon="8.664884017780423">
        <ele>730.26000999999997</ele>
        <time>2014-10-18T14:35:42Z</time>
      </trkpt>
      <trkpt lat="46.378069035708904" lon="8.664930034428835">
        <ele>729.77996800000005</ele>
        <time>2014-10-18T14:35:47Z</time>
      </trkpt>
      <trkpt lat="46.378059983253479" lon="8.664943026378751">
        <ele>729.77996800000005</ele>
        <time>2014-10-18T14:35:48Z</time>
      </trkpt>
      <trkpt lat="46.37806098908186" lon="8.664944032207131">
        <ele>729.29998799999998</ele>
        <time>2014-10-18T14:35:50Z</time>
      </trkpt>
      <trkpt lat="46.377872982993722" lon="8.66498401388526">
        <ele>727.86004600000001</ele>
        <time>2014-10-18T14:36:07Z</time>
      </trkpt>
      <trkpt lat="46.377811040729284" lon="8.665017038583756">
        <ele>726.89001499999995</ele>
        <time>2014-10-18T14:36:12Z</time>
      </trkpt>
      <trkpt lat="46.377798970788717" lon="8.665029024705291">
        <ele>726.89001499999995</ele>
        <time>2014-10-18T14:36:13Z</time>
      </trkpt>
      <trkpt lat="46.377791007980704" lon="8.665056014433503">
        <ele>726.89001499999995</ele>
        <time>2014-10-18T14:36:14Z</time>
      </trkpt>
      <trkpt lat="46.37773996219039" lon="8.665097001940012">
        <ele>725.92999299999997</ele>
        <time>2014-10-18T14:36:20Z</time>
      </trkpt>
      <trkpt lat="46.377724036574364" lon="8.665068000555039">
        <ele>725.44995100000006</ele>
        <time>2014-10-18T14:36:21Z</time>
      </trkpt>
      <trkpt lat="46.377556985244155" lon="8.66496498696506">
        <ele>724.01000999999997</ele>
        <time>2014-10-18T14:36:36Z</time>
      </trkpt>
      <trkpt lat="46.377553967759013" lon="8.664944032207131">
        <ele>723.53002900000001</ele>
        <time>2014-10-18T14:36:41Z</time>
      </trkpt>
      <trkpt lat="46.377584980800748" lon="8.664795001968741">
        <ele>721.60998500000005</ele>
        <time>2014-10-18T14:36:55Z</time>
      </trkpt>
      <trkpt lat="46.377582969143987" lon="8.664777986705303">
        <ele>721.13000499999998</ele>
        <time>2014-10-18T14:37:14Z</time>
      </trkpt>
      <trkpt lat="46.377585986629128" lon="8.664701040834189">
        <ele>720.64996299999996</ele>
        <time>2014-10-18T14:37:18Z</time>
      </trkpt>
      <trkpt lat="46.377592021599412" lon="8.664617976173759">
        <ele>720.64996299999996</ele>
        <time>2014-10-18T14:37:22Z</time>
      </trkpt>
      <trkpt lat="46.377548016607761" lon="8.664263002574444">
        <ele>717.76000999999997</ele>
        <time>2014-10-18T14:37:42Z</time>
      </trkpt>
      <trkpt lat="46.377421030774713" lon="8.664209023118019">
        <ele>716.32000700000003</ele>
        <time>2014-10-18T14:37:55Z</time>
      </trkpt>
      <trkpt lat="46.377355987206101" lon="8.664202988147736">
        <ele>715.36004600000001</ele>
        <time>2014-10-18T14:38:00Z</time>
      </trkpt>
      <trkpt lat="46.377239981666207" lon="8.664206005632877">
        <ele>714.40002400000003</ele>
        <time>2014-10-18T14:38:08Z</time>
      </trkpt>
      <trkpt lat="46.377205029129982" lon="8.66414800286293">
        <ele>713.44000200000005</ele>
        <time>2014-10-18T14:38:14Z</time>
      </trkpt>
      <trkpt lat="46.37720201164484" lon="8.664053035899997">
        <ele>712.94995100000006</ele>
        <time>2014-10-18T14:38:20Z</time>
      </trkpt>
      <trkpt lat="46.377177033573389" lon="8.663842985406518">
        <ele>711.03002900000001</ele>
        <time>2014-10-18T14:38:36Z</time>
      </trkpt>
      <trkpt lat="46.377046024426818" lon="8.66354500874877">
        <ele>708.14996299999996</ele>
        <time>2014-10-18T14:38:59Z</time>
      </trkpt>
      <trkpt lat="46.376992966979742" lon="8.663518019020557">
        <ele>707.669983</ele>
        <time>2014-10-18T14:39:04Z</time>
      </trkpt>
      <trkpt lat="46.376920966431499" lon="8.663398995995522">
        <ele>706.22997999999995</ele>
        <time>2014-10-18T14:39:13Z</time>
      </trkpt>
      <trkpt lat="46.376821976155043" lon="8.663308974355459">
        <ele>705.26000999999997</ele>
        <time>2014-10-18T14:39:23Z</time>
      </trkpt>
      <trkpt lat="46.376788029447198" lon="8.663311991840601">
        <ele>704.77996800000005</ele>
        <time>2014-10-18T14:39:25Z</time>
      </trkpt>
      <trkpt lat="46.376757016405463" lon="8.663253989070654">
        <ele>704.29998799999998</ele>
        <time>2014-10-18T14:39:29Z</time>
      </trkpt>
      <trkpt lat="46.376689039170742" lon="8.663234040141106">
        <ele>703.82000700000003</ele>
        <time>2014-10-18T14:39:37Z</time>
      </trkpt>
      <trkpt lat="46.376632964238524" lon="8.663170002400875">
        <ele>702.86004600000001</ele>
        <time>2014-10-18T14:39:41Z</time>
      </trkpt>
      <trkpt lat="46.376607986167073" lon="8.663047039881349">
        <ele>702.37994400000002</ele>
        <time>2014-10-18T14:39:47Z</time>
      </trkpt>
      <trkpt lat="46.376588959246874" lon="8.663043016567826">
        <ele>701.90002400000003</ele>
        <time>2014-10-18T14:39:49Z</time>
      </trkpt>
      <trkpt lat="46.37651301920414" lon="8.662945032119751">
        <ele>700.94000200000005</ele>
        <time>2014-10-18T14:40:00Z</time>
      </trkpt>
      <trkpt lat="46.376436995342374" lon="8.662919970229268">
        <ele>700.46002199999998</ele>
        <time>2014-10-18T14:40:04Z</time>
      </trkpt>
      <trkpt lat="46.376239014789462" lon="8.66273196414113">
        <ele>698.04998799999998</ele>
        <time>2014-10-18T14:40:21Z</time>
      </trkpt>
      <trkpt lat="46.376076992601156" lon="8.662803964689374">
        <ele>696.60998500000005</ele>
        <time>2014-10-18T14:40:32Z</time>
      </trkpt>
      <trkpt lat="46.376060983166099" lon="8.662826009094715">
        <ele>696.60998500000005</ele>
        <time>2014-10-18T14:40:34Z</time>
      </trkpt>
      <trkpt lat="46.37599996291101" lon="8.662843024358153">
        <ele>695.64996299999996</ele>
        <time>2014-10-18T14:40:39Z</time>
      </trkpt>
      <trkpt lat="46.375982025638223" lon="8.662865990772843">
        <ele>695.64996299999996</ele>
        <time>2014-10-18T14:40:41Z</time>
      </trkpt>
      <trkpt lat="46.375959981232882" lon="8.662894992157817">
        <ele>695.169983</ele>
        <time>2014-10-18T14:40:43Z</time>
      </trkpt>
      <trkpt lat="46.375923017039895" lon="8.66294302046299">
        <ele>695.169983</ele>
        <time>2014-10-18T14:40:47Z</time>
      </trkpt>
      <trkpt lat="46.375874988734722" lon="8.662933968007565">
        <ele>693.72997999999995</ele>
        <time>2014-10-18T14:40:55Z</time>
      </trkpt>
      <trkpt lat="46.375922011211514" lon="8.662876971065998">
        <ele>693.24993900000004</ele>
        <time>2014-10-18T14:40:59Z</time>
      </trkpt>
      <trkpt lat="46.375950006768107" lon="8.662844030186534">
        <ele>692.77002000000005</ele>
        <time>2014-10-18T14:41:02Z</time>
      </trkpt>
      <trkpt lat="46.376036005094647" lon="8.662747973576188">
        <ele>690.839966</ele>
        <time>2014-10-18T14:41:14Z</time>
      </trkpt>
      <trkpt lat="46.376044973731041" lon="8.662736993283033">
        <ele>690.36004600000001</ele>
        <time>2014-10-18T14:41:16Z</time>
      </trkpt>
      <trkpt lat="46.376094007864594" lon="8.662711009383202">
        <ele>689.87994400000002</ele>
        <time>2014-10-18T14:41:20Z</time>
      </trkpt>
      <trkpt lat="46.376125020906329" lon="8.66268795914948">
        <ele>689.40002400000003</ele>
        <time>2014-10-18T14:41:22Z</time>
      </trkpt>
      <trkpt lat="46.376163996756077" lon="8.662671027705073">
        <ele>688.92004399999996</ele>
        <time>2014-10-18T14:41:26Z</time>
      </trkpt>
      <trkpt lat="46.376328030601144" lon="8.662649989128113">
        <ele>686.03997800000002</ele>
        <time>2014-10-18T14:41:43Z</time>
      </trkpt>
      <trkpt lat="46.376402964815497" lon="8.662690976634622">
        <ele>685.55999799999995</ele>
        <time>2014-10-18T14:41:47Z</time>
      </trkpt>
      <trkpt lat="46.376436995342374" lon="8.662736993283033">
        <ele>683.63000499999998</ele>
        <time>2014-10-18T14:41:54Z</time>
      </trkpt>
      <trkpt lat="46.376469014212489" lon="8.662744034081698">
        <ele>683.14996299999996</ele>
        <time>2014-10-18T14:42:00Z</time>
      </trkpt>
      <trkpt lat="46.376507990062237" lon="8.662744034081698">
        <ele>682.669983</ele>
        <time>2014-10-18T14:42:03Z</time>
      </trkpt>
      <trkpt lat="46.376620978116989" lon="8.66286096163094">
        <ele>681.70996100000002</ele>
        <time>2014-10-18T14:42:14Z</time>
      </trkpt>
      <trkpt lat="46.376644028350711" lon="8.662870014086366">
        <ele>681.70996100000002</ele>
        <time>2014-10-18T14:42:16Z</time>
      </trkpt>
      <trkpt lat="46.376717034727335" lon="8.66273196414113">
        <ele>681.22997999999995</ele>
        <time>2014-10-18T14:42:28Z</time>
      </trkpt>
      <trkpt lat="46.376787023618817" lon="8.662481009960175">
        <ele>680.74993900000004</ele>
        <time>2014-10-18T14:42:46Z</time>
      </trkpt>
      <trkpt lat="46.376895988360047" lon="8.662143973633647">
        <ele>679.79003899999998</ele>
        <time>2014-10-18T14:43:08Z</time>
      </trkpt>
      <trkpt lat="46.377005958929658" lon="8.661957979202271">
        <ele>678.830017</ele>
        <time>2014-10-18T14:43:23Z</time>
      </trkpt>
      <trkpt lat="46.377060022205114" lon="8.661994021385908">
        <ele>678.35003700000004</ele>
        <time>2014-10-18T14:43:38Z</time>
      </trkpt>
      <trkpt lat="46.377207962796092" lon="8.66206300444901">
        <ele>678.830017</ele>
        <time>2014-10-18T14:43:55Z</time>
      </trkpt>
      <trkpt lat="46.377317011356354" lon="8.661986980587244">
        <ele>678.830017</ele>
        <time>2014-10-18T14:44:13Z</time>
      </trkpt>
      <trkpt lat="46.377320028841496" lon="8.661970971152186">
        <ele>679.30999799999995</ele>
        <time>2014-10-18T14:44:15Z</time>
      </trkpt>
    </trkseg>
  </trk>

</gpx>